[[{"header":{"parameterUnit":"m.s-1","parameterCategory":1,"la1":30.6,"la2":28.766,"lo1":-90.7593,"lo2":-88.6598,"dy":0.0162,"dx":0.0183,"nx":116,"ny":114,"refTime":"2024-02-06T18:00:00:Z","depth":0,"parameterNumber":2,"parameterNumberName":"U-component_of_WINDS"},"data":[0.0,0.0,0.0,0.0,0.0,0.0,0.0,0.0,0.0,0.0,0.0,0.0,0.0,0.0,0.0,0.0,0.0,0.0,0.0,0.0,0.0,0.0,0.0,0.0,0.0,0.0,0.0,0.0,0.0,0.0,0.0,0.0,0.0,0.0,0.0,0.0,0.0,0.0,0.0,0.0,0.0,0.0,0.0,0.0,0.0,0.0,0.0,0.0,0.0,0.0,0.0,0.0,0.0,0.0,0.0,0.0,0.0,0.0,0.0,0.0,0.0,0.0,0.0,0.0,0.0,0.0,0.0,0.0,0.0,0.0,0.0,0.0,0.0,0.0,0.0,0.0,0.0,0.0,0.0,0.0,0.0,0.0,0.0,0.0,0.0,0.0,0.0,0.0,0.0,0.0,0.0,0.0,0.0,0.0,0.0,0.0,0.0,0.0,0.0,0.0,0.0,0.0,0.0,0.0,0.0,0.0,0.0,0.0,0.0,0.0,0.0,0.0,0.0,0.0,0.0,0.0,0.0,0.0,0.0,0.0,0.0,0.0,0.0,0.0,0.0,0.0,0.0,0.0,0.0,0.0,0.0,0.0,0.0,0.0,0.0,0.0,0.0,0.0,0.0,0.0,0.0,0.0,0.0,0.0,0.0,0.0,0.0,0.0,0.0,0.0,0.0,0.0,0.0,0.0,0.0,0.0,0.0,0.0,0.0,0.0,0.0,0.0,0.0,0.0,0.0,0.0,0.0,0.0,0.0,0.0,0.0,0.0,0.0,0.0,0.0,0.0,0.0,0.0,0.0,0.0,0.0,0.0,0.0,0.0,0.0,0.0,0.0,0.0,0.0,0.0,0.0,0.0,0.0,0.0,0.0,0.0,0.0,0.0,0.0,0.0,0.0,0.0,0.0,0.0,0.0,0.0,0.0,0.0,0.0,0.0,0.0,0.0,0.0,0.0,0.0,0.0,0.0,0.0,0.0,0.0,0.0,0.0,0.0,0.0,0.0,0.0,0.0,0.0,0.0,0.0,0.0,0.0,0.0,0.0,0.0,0.0,0.0,0.0,0.0,0.0,0.0,0.0,0.0,0.0,0.0,0.0,0.0,0.0,0.0,0.0,0.0,0.0,0.0,0.0,0.0,0.0,0.0,0.0,0.0,0.0,0.0,0.0,0.0,0.0,0.0,0.0,0.0,0.0,0.0,0.0,0.0,0.0,0.0,0.0,0.0,0.0,0.0,0.0,0.0,0.0,0.0,0.0,0.0,0.0,0.0,0.0,0.0,0.0,0.0,0.0,0.0,0.0,0.0,0.0,0.0,0.0,0.0,0.0,0.0,0.0,0.0,0.0,0.0,0.0,0.0,0.0,0.0,0.0,0.0,0.0,0.0,0.0,0.0,0.0,0.0,0.0,0.0,0.0,0.0,0.0,0.0,0.0,0.0,0.0,0.0,0.0,0.0,0.0,0.0,0.0,0.0,0.0,0.0,0.0,0.0,0.0,0.0,0.0,0.0,0.0,0.0,0.0,0.0,0.0,0.0,0.0,0.0,0.0,0.0,0.0,0.0,0.0,0.0,0.0,0.0,0.0,0.0,0.0,0.0,0.0,0.0,0.0,0.0,0.0,0.0,0.0,0.0,0.0,0.0,0.0,0.0,0.0,0.0,0.0,0.0,0.0,0.0,0.0,0.0,0.0,0.0,0.0,0.0,0.0,0.0,0.0,0.0,0.0,0.0,0.0,0.0,0.0,0.0,0.0,0.0,0.0,0.0,0.0,0.0,0.0,0.0,0.0,0.0,0.0,0.0,0.0,0.0,0.0,0.0,0.0,0.0,0.0,0.0,0.0,0.0,0.0,0.0,0.0,0.0,0.0,0.0,0.0,0.0,0.0,0.0,0.0,0.0,0.0,0.0,0.0,0.0,0.0,0.0,0.0,0.0,0.0,0.0,0.0,0.0,0.0,0.0,0.0,0.0,0.0,0.0,0.0,0.0,0.0,0.0,0.0,0.0,0.0,0.0,0.0,0.0,0.0,0.0,0.0,0.0,0.0,0.0,0.0,0.0,0.0,0.0,0.0,0.0,0.0,0.0,0.0,0.0,0.0,0.0,0.0,0.0,0.0,0.0,0.0,0.0,0.0,0.0,0.0,0.0,0.0,0.0,0.0,0.0,0.0,0.0,0.0,0.0,0.0,0.0,0.0,0.0,0.0,0.0,0.0,0.0,0.0,0.0,0.0,0.0,0.0,0.0,0.0,0.0,0.0,0.0,0.0,0.0,0.0,0.0,0.0,0.0,0.0,0.0,0.0,0.0,0.0,0.0,0.0,0.0,0.0,0.0,0.0,0.0,0.0,0.0,0.0,0.0,0.0,0.0,0.0,0.0,0.0,0.0,0.0,0.0,0.0,0.0,0.0,0.0,0.0,0.0,0.0,0.0,0.0,0.0,0.0,0.0,0.0,0.0,0.0,0.0,0.0,0.0,0.0,0.0,0.0,0.0,0.0,0.0,0.0,0.0,0.0,0.0,0.0,0.0,0.0,0.0,0.0,0.0,0.0,0.0,0.0,0.0,0.0,0.0,0.0,0.0,0.0,0.0,0.0,0.0,0.0,0.0,0.0,0.0,0.0,0.0,0.0,0.0,0.0,0.0,0.0,0.0,0.0,0.0,0.0,0.0,0.0,0.0,0.0,0.0,0.0,0.0,0.0,0.0,0.0,0.0,0.0,0.0,0.0,0.0,0.0,0.0,0.0,0.0,0.0,0.0,0.0,0.0,0.0,0.0,0.0,0.0,0.0,0.0,0.0,0.0,0.0,0.0,0.0,0.0,0.0,0.0,0.0,0.0,0.0,0.0,0.0,0.0,0.0,0.0,0.0,0.0,0.0,0.0,0.0,0.0,0.0,0.0,0.0,0.0,0.0,0.0,0.0,0.0,0.0,0.0,0.0,0.0,0.0,0.0,0.0,0.0,0.0,0.0,0.0,0.0,0.0,0.0,0.0,0.0,0.0,0.0,0.0,0.0,0.0,0.0,0.0,0.0,0.0,0.0,0.0,0.0,0.0,0.0,0.0,0.0,0.0,0.0,0.0,0.0,0.0,0.0,0.0,0.0,0.0,0.0,0.0,0.0,0.0,0.0,0.0,0.0,0.0,0.0,0.0,0.0,0.0,0.0,0.0,0.0,0.0,0.0,0.0,0.0,0.0,0.0,0.0,0.0,0.0,0.0,0.0,0.0,0.0,0.0,0.0,0.0,0.0,0.0,0.0,0.0,0.0,0.0,0.0,0.0,0.0,0.0,0.0,0.0,0.0,0.0,0.0,0.0,0.0,0.0,0.0,0.0,0.0,0.0,0.0,0.0,0.0,0.0,0.0,0.0,0.0,0.0,0.0,0.0,0.0,0.0,0.0,0.0,0.0,0.0,0.0,0.0,0.0,0.0,0.0,0.0,0.0,0.0,0.0,0.0,0.0,0.0,0.0,0.0,0.0,0.0,0.0,0.0,0.0,0.0,0.0,0.0,0.0,0.0,0.0,0.0,0.0,0.0,0.0,0.0,0.0,0.0,0.0,0.0,0.0,0.0,0.0,0.0,0.0,0.0,0.0,0.0,0.0,0.0,0.0,0.0,0.0,0.0,0.0,0.0,0.0,0.0,0.0,0.0,0.0,0.0,0.0,0.0,0.0,0.0,0.0,0.0,0.0,0.0,0.0,0.0,0.0,0.0,0.0,0.0,0.0,0.0,0.0,0.0,0.0,0.0,0.0,0.0,0.0,0.0,0.0,0.0,0.0,0.0,0.0,0.0,0.0,0.0,0.0,0.0,0.0,0.0,0.0,0.0,0.0,0.0,0.0,0.0,0.0,0.0,0.0,0.0,0.0,0.0,0.0,0.0,0.0,0.0,0.0,0.0,0.0,0.0,0.0,0.0,0.0,0.0,0.0,0.0,0.0,0.0,0.0,0.0,0.0,0.0,0.0,0.0,0.0,0.0,0.0,0.0,0.0,0.0,0.0,0.0,0.0,0.0,0.0,0.0,0.0,0.0,0.0,0.0,0.0,0.0,0.0,0.0,0.0,0.0,0.0,0.0,0.0,0.0,0.0,0.0,0.0,0.0,0.0,0.0,0.0,0.0,0.0,0.0,0.0,0.0,0.0,0.0,0.0,0.0,0.0,0.0,0.0,0.0,0.0,0.0,0.0,0.0,0.0,0.0,0.0,0.0,0.0,0.0,0.0,0.0,0.0,0.0,0.0,0.0,0.0,0.0,0.0,0.0,0.0,0.0,0.0,0.0,0.0,0.0,0.0,0.0,0.0,0.0,0.0,0.0,0.0,0.0,0.0,0.0,0.0,0.0,0.0,0.0,0.0,0.0,0.0,0.0,0.0,0.0,0.0,0.0,0.0,0.0,0.0,0.0,0.0,0.0,0.0,0.0,0.0,0.0,0.0,0.0,0.0,0.0,0.0,0.0,0.0,0.0,0.0,0.0,0.0,0.0,0.0,0.0,0.0,0.0,0.0,0.0,0.0,0.0,0.0,0.0,0.0,0.0,0.0,0.0,0.0,0.0,0.0,0.0,0.0,0.0,0.0,0.0,0.0,0.0,0.0,0.0,0.0,0.0,0.0,0.0,0.0,0.0,0.0,0.0,0.0,0.0,0.0,0.0,0.0,0.0,0.0,0.0,0.0,0.0,0.0,0.0,0.0,0.0,0.0,0.0,0.0,0.0,0.0,0.0,0.0,0.0,0.0,0.0,0.0,0.0,0.0,0.0,0.0,0.0,0.0,0.0,0.0,0.0,0.0,0.0,0.0,0.0,0.0,0.0,0.0,0.0,0.0,0.0,0.0,0.0,0.0,0.0,0.0,0.0,0.0,0.0,0.0,0.0,0.0,0.0,0.0,0.0,0.0,0.0,0.0,0.0,0.0,0.0,0.0,0.0,0.0,0.0,0.0,0.0,0.0,0.0,0.0,0.0,0.0,0.0,0.0,0.0,0.0,0.0,0.0,0.0,0.0,0.0,0.0,0.0,0.0,0.0,0.0,0.0,0.0,0.0,0.0,0.0,0.0,0.0,0.0,0.0,0.0,0.0,0.0,0.0,0.0,0.0,0.0,0.0,0.0,0.0,0.0,0.0,0.0,0.0,0.0,0.0,0.0,0.0,0.0,0.0,0.0,0.0,0.0,0.0,0.0,0.0,0.0,0.0,0.0,0.0,0.0,0.0,0.0,0.0,0.0,0.0,0.0,0.0,0.0,0.0,0.0,0.0,0.0,0.0,0.0,0.0,0.0,0.0,0.0,0.0,0.0,0.0,0.0,0.0,0.0,0.0,0.0,0.0,0.0,0.0,0.0,0.0,0.0,0.0,0.0,0.0,0.0,0.0,0.0,0.0,0.0,0.0,0.0,0.0,0.0,0.0,0.0,0.0,0.0,0.0,0.0,0.0,0.0,0.0,0.0,0.0,0.0,0.0,0.0,0.0,0.0,0.0,0.0,0.0,0.0,0.0,0.0,0.0,0.0,0.0,0.0,0.0,0.0,0.0,0.0,0.0,0.0,0.0,0.0,0.0,0.0,0.0,0.0,0.0,0.0,0.0,0.0,0.0,0.0,0.0,0.0,0.0,0.0,0.0,0.0,0.0,0.0,0.0,0.0,0.0,0.0,0.0,0.0,0.0,0.0,0.0,0.0,0.0,0.0,0.0,0.0,0.0,0.0,0.0,0.0,0.0,0.0,0.0,0.0,0.0,0.0,0.0,0.0,0.0,0.0,0.0,0.0,0.0,0.0,0.0,0.0,0.0,0.0,0.0,0.0,0.0,0.0,0.0,0.0,0.0,0.0,0.0,0.0,0.0,0.0,0.0,0.0,0.0,0.0,0.0,0.0,0.0,0.0,0.0,0.0,0.0,0.0,0.0,0.0,0.0,0.0,0.0,0.0,0.0,0.0,0.0,0.0,0.0,0.0,0.0,0.0,0.0,0.0,0.0,0.0,0.0,0.0,0.0,0.0,0.0,0.0,0.0,0.0,0.0,0.0,0.0,0.0,0.0,0.0,0.0,0.0,0.0,0.0,0.0,0.0,0.0,0.0,0.0,0.0,0.0,0.0,0.0,0.0,0.0,0.0,0.0,0.0,-5.0138,-5.1271,0.0,0.0,0.0,0.0,0.0,0.0,0.0,0.0,0.0,0.0,0.0,0.0,0.0,0.0,0.0,0.0,0.0,0.0,0.0,0.0,0.0,0.0,0.0,0.0,0.0,0.0,0.0,0.0,0.0,0.0,0.0,0.0,0.0,0.0,-4.4861,-4.4482,-4.419,-4.3982,-4.402,-4.3912,-4.3742,-4.3742,-4.3644,-4.3515,0.0,0.0,0.0,0.0,0.0,0.0,0.0,0.0,0.0,0.0,0.0,0.0,0.0,0.0,0.0,0.0,0.0,0.0,0.0,0.0,0.0,0.0,0.0,0.0,0.0,0.0,0.0,0.0,0.0,0.0,0.0,0.0,0.0,0.0,0.0,0.0,0.0,0.0,0.0,0.0,0.0,0.0,0.0,0.0,0.0,0.0,0.0,0.0,0.0,0.0,0.0,0.0,0.0,0.0,0.0,0.0,0.0,0.0,0.0,0.0,0.0,0.0,0.0,0.0,0.0,0.0,0.0,0.0,0.0,0.0,-5.0972,-5.1821,0.0,0.0,0.0,0.0,0.0,0.0,0.0,0.0,0.0,0.0,0.0,0.0,0.0,0.0,0.0,0.0,0.0,0.0,0.0,0.0,0.0,0.0,0.0,-4.5594,-4.5594,-4.5594,-4.5594,-4.5594,0.0,0.0,0.0,0.0,0.0,-4.5022,-4.4701,-4.4637,-4.4428,-4.4102,-4.4359,-4.4318,-4.3982,-4.3958,-4.3775,-4.3515,-4.3515,0.0,0.0,0.0,0.0,0.0,0.0,0.0,0.0,0.0,0.0,0.0,0.0,0.0,0.0,0.0,0.0,0.0,0.0,0.0,0.0,0.0,0.0,0.0,0.0,0.0,0.0,0.0,0.0,0.0,0.0,0.0,0.0,0.0,0.0,0.0,0.0,0.0,0.0,0.0,0.0,0.0,0.0,0.0,0.0,0.0,0.0,0.0,0.0,0.0,0.0,0.0,0.0,0.0,0.0,0.0,0.0,0.0,0.0,0.0,0.0,0.0,0.0,0.0,-4.8306,-4.8379,-4.8563,-4.9407,-5.0251,-5.1059,-5.1867,-5.2197,-5.2291,-5.2999,0.0,0.0,0.0,0.0,0.0,0.0,0.0,0.0,0.0,0.0,0.0,0.0,0.0,0.0,0.0,0.0,0.0,0.0,0.0,0.0,0.0,-4.5594,-4.5594,-4.5594,-4.5594,-4.5594,-4.5594,0.0,-4.5577,-4.555,-4.5541,-4.539,-4.5022,-4.4763,-4.4585,-4.4508,-4.4219,-4.4043,-4.3982,-4.3693,-4.3529,-4.3515,-4.3515,-4.3515,-4.3515,0.0,0.0,0.0,0.0,0.0,0.0,0.0,0.0,0.0,0.0,0.0,0.0,0.0,0.0,0.0,0.0,0.0,0.0,0.0,0.0,0.0,0.0,0.0,0.0,0.0,0.0,0.0,0.0,0.0,0.0,0.0,0.0,0.0,0.0,0.0,0.0,0.0,0.0,0.0,0.0,0.0,-4.3515,-4.3515,0.0,0.0,0.0,0.0,0.0,0.0,0.0,0.0,0.0,0.0,0.0,0.0,0.0,-4.8196,-4.8306,-4.8306,-4.8306,-4.8306,-4.8306,-4.871,-4.9463,-5.0251,-5.1096,-5.1867,-5.2711,0.0,-5.3062,-5.3548,0.0,0.0,0.0,0.0,0.0,0.0,0.0,0.0,0.0,0.0,0.0,0.0,0.0,0.0,0.0,0.0,0.0,0.0,0.0,0.0,0.0,-4.5594,-4.5594,-4.5594,-4.5594,-4.5594,-4.5594,-4.5594,-4.5594,-4.5594,-4.5419,-4.5351,-4.539,-4.4872,-4.4612,-4.4612,-4.4414,-4.4219,-4.3982,-4.3849,-4.3677,-4.3515,-4.3515,-4.3515,-4.3515,-4.3515,0.0,0.0,0.0,0.0,0.0,0.0,0.0,0.0,0.0,0.0,0.0,0.0,0.0,0.0,0.0,0.0,0.0,0.0,0.0,0.0,0.0,0.0,0.0,0.0,0.0,0.0,0.0,0.0,0.0,0.0,0.0,0.0,0.0,0.0,0.0,0.0,0.0,0.0,0.0,-4.3515,-4.3515,-4.3515,-4.3515,-4.3515,0.0,0.0,0.0,0.0,0.0,0.0,0.0,0.0,0.0,-4.7076,-4.7883,-4.8306,-4.8306,-4.8306,-4.8306,-4.8306,-4.8783,-4.9224,-4.9647,-5.0875,-5.1683,-5.205,-5.2858,-5.3203,-5.3188,-5.34,-5.3464,-5.3464,0.0,0.0,0.0,0.0,-5.4517,-5.55,0.0,0.0,0.0,0.0,0.0,0.0,0.0,0.0,0.0,0.0,0.0,0.0,-4.5594,-4.5594,-4.5594,-4.5594,-4.5594,-4.5594,-4.5594,-4.5594,-4.5594,-4.5594,-4.5371,-4.5293,-4.5457,-4.4977,-4.4701,-4.4612,-4.4612,-4.4387,-4.3982,-4.3927,-4.3742,-4.3515,-4.3515,-4.3515,-4.3515,-4.3515,-4.3515,-4.3515,0.0,0.0,0.0,0.0,0.0,0.0,0.0,0.0,0.0,0.0,0.0,0.0,0.0,0.0,0.0,0.0,0.0,0.0,0.0,0.0,0.0,0.0,0.0,0.0,0.0,0.0,0.0,0.0,0.0,0.0,0.0,0.0,0.0,0.0,0.0,0.0,0.0,-4.3515,-4.3515,-4.3515,-4.3515,-4.3515,0.0,0.0,0.0,0.0,0.0,0.0,-4.6177,-4.6746,-4.7186,-4.7406,-4.7993,-4.8306,-4.8306,-4.8306,-4.8306,-4.8306,-4.9187,-4.9721,-4.9958,-5.1373,-5.2087,-5.2344,-5.2931,-5.3203,-5.3203,-5.3203,-5.3203,-5.3203,-5.3203,-5.3511,-5.3995,-5.4291,-5.5244,-5.6401,0.0,0.0,0.0,0.0,0.0,0.0,0.0,0.0,0.0,0.0,0.0,-4.5594,-4.5594,-4.5594,-4.5594,-4.5594,-4.5594,-4.5594,-4.5594,-4.5594,-4.5594,-4.5594,-4.5577,-4.5429,-4.5148,-4.5105,-4.4919,-4.4612,-4.4612,-4.4387,-4.3982,-4.366,-4.3532,-4.3515,-4.3515,-4.3515,-4.3515,-4.3515,-4.3515,-4.3515,-4.3515,0.0,0.0,0.0,0.0,0.0,0.0,0.0,0.0,0.0,0.0,0.0,0.0,0.0,0.0,0.0,0.0,0.0,0.0,0.0,0.0,0.0,0.0,0.0,0.0,0.0,0.0,0.0,0.0,0.0,0.0,0.0,0.0,0.0,0.0,0.0,0.0,0.0,0.0,-4.3515,-4.3515,0.0,0.0,0.0,0.0,-4.4691,-4.5406,-4.6177,-4.7003,-4.7076,-4.7443,-4.8233,-4.8269,-4.8306,-4.8306,-4.8306,-4.8306,-4.8306,-4.9187,-4.9994,-5.0765,-5.161,-5.2417,-5.313,-5.3167,-5.3203,-5.3203,-5.3203,-5.3203,-5.3203,-5.3203,-5.3665,-5.4369,-5.4399,-5.5412,-5.6771,0.0,0.0,0.0,0.0,0.0,0.0,0.0,0.0,-4.5594,-4.5594,-4.5594,-4.5594,-4.5594,-4.5594,-4.5594,-4.5594,-4.5594,-4.5594,-4.5594,-4.5594,-4.5594,-4.5594,-4.54,-4.5222,-4.5115,-4.5115,-4.4931,-4.4612,-4.4332,-4.4296,-4.4455,-4.4338,-4.4268,-4.4268,-4.4268,-4.3975,-4.3515,-4.3515,-4.3515,-4.3515,-4.3515,-4.3515,0.0,0.0,0.0,0.0,0.0,0.0,0.0,0.0,0.0,0.0,0.0,0.0,0.0,0.0,0.0,0.0,0.0,0.0,0.0,0.0,0.0,0.0,0.0,0.0,0.0,0.0,0.0,0.0,0.0,0.0,0.0,0.0,0.0,0.0,0.0,0.0,0.0,-4.3515,-4.3515,0.0,-4.4232,-4.4525,-4.5131,-4.6159,-4.6489,-4.7003,-4.781,-4.7846,-4.8012,-4.8306,-4.882,-4.9114,-4.9114,-4.9664,-4.9921,-4.9921,-5.0729,-5.1279,-5.161,-5.2417,-5.2931,-5.3203,-5.3203,-5.3203,-5.3203,-5.3203,-5.3203,-5.324,-5.3775,-5.4142,-5.4546,-5.5574,-5.6308,-5.6859,0.0,0.0,0.0,0.0,0.0,0.0,0.0,0.0,-4.5594,-4.5594,-4.5594,-4.5594,-4.5594,-4.5594,-4.5594,-4.5594,-4.5594,-4.5594,-4.5594,-4.5594,-4.5594,-4.5594,-4.539,-4.5263,-4.5263,-4.5169,-4.5083,-4.5014,-4.4731,-4.4777,-4.5112,-4.5252,-4.5235,-4.5112,-4.5112,-4.4672,-4.3901,-4.3901,-4.3754,-4.3515,-4.3515,-4.3515,-4.3515,0.0,0.0,0.0,0.0,0.0,0.0,0.0,0.0,0.0,0.0,0.0,0.0,0.0,0.0,0.0,0.0,0.0,0.0,0.0,0.0,0.0,0.0,0.0,0.0,0.0,0.0,0.0,0.0,0.0,0.0,0.0,0.0,0.0,0.0,-4.3515,-4.3515,-4.3515,-4.3718,-4.4121,-4.4654,-4.5168,-4.5938,-4.7003,-4.7333,-4.7865,-4.8673,-4.8746,-4.8857,-4.915,-4.9701,-4.9994,-4.9994,-5.0545,-5.0802,-5.0802,-5.161,-5.1977,-5.2013,-5.2821,-5.3203,-5.3203,-5.3203,-5.3203,-5.3203,-5.3203,-5.3371,-5.3665,-5.4179,-5.4583,-5.495,-5.6308,-5.6969,-5.7299,0.0,0.0,0.0,0.0,0.0,0.0,0.0,-4.5594,-4.5594,-4.5594,-4.5594,-4.5594,-4.5594,-4.5594,-4.5594,-4.5594,-4.5594,-4.5594,-4.5594,-4.5594,-4.5594,-4.5594,-4.5594,-4.5594,-4.5594,-4.5291,-4.5364,-4.583,-4.583,-4.5859,-4.5956,-4.6351,-4.6318,-4.5957,-4.5957,-4.548,-4.4745,-4.4709,-4.4268,-4.3551,-4.3515,-4.3515,-4.3515,0.0,0.0,0.0,0.0,0.0,0.0,0.0,0.0,0.0,0.0,0.0,0.0,0.0,0.0,0.0,0.0,0.0,0.0,0.0,0.0,0.0,0.0,0.0,0.0,0.0,0.0,0.0,0.0,0.0,0.0,0.0,0.0,0.0,-4.3515,-4.3515,-4.3551,-4.3551,-4.4268,-4.4728,-4.4764,-4.6195,-4.7149,-4.7186,-4.792,-4.8746,-4.961,-4.9647,-5.0014,-5.0765,-5.0839,-5.0839,-5.0839,-5.0875,-5.0875,-5.0875,-5.1683,-5.205,-5.205,-5.2858,-5.3203,-5.3203,-5.3203,-5.3203,-5.3203,-5.3203,-5.3665,-5.4399,-5.4436,-5.4913,-5.5721,-5.6528,-5.7336,-5.7997,0.0,0.0,0.0,0.0,0.0,0.0,-4.5594,-4.5594,-4.5594,-4.5594,-4.5594,-4.5594,-4.5594,-4.5594,-4.5594,-4.5594,-4.5594,-4.5594,-4.5594,-4.5594,-4.5594,-4.5594,-4.5594,-4.5594,-4.5594,-4.5609,-4.5786,-4.6171,-4.5978,-4.6322,-4.7205,-4.7035,-4.6893,-4.6746,-4.6746,-4.6305,-4.5516,-4.4966,-4.4544,-4.4305,-4.3718,-4.3515,-4.3515,0.0,0.0,0.0,0.0,0.0,0.0,0.0,0.0,0.0,0.0,0.0,0.0,0.0,0.0,0.0,0.0,0.0,0.0,0.0,0.0,0.0,0.0,0.0,0.0,0.0,0.0,0.0,0.0,0.0,0.0,0.0,-4.3515,-4.3515,-4.3515,-4.4011,-4.4378,-4.4378,-4.5076,-4.581,-4.6379,-4.7369,-4.8233,-4.8857,-4.9664,-5.0215,-5.0472,-5.0472,-5.0582,-5.0802,-5.1353,-5.1683,-5.1683,-5.227,-5.2564,-5.2564,-5.2784,-5.2858,-5.2894,-5.3093,-5.3203,-5.3203,-5.3203,-5.3203,-5.3203,-5.3203,-5.3665,-5.4473,-5.5023,-5.5757,-5.6565,-5.7373,-5.7813,-5.7997,0.0,0.0,0.0,0.0,0.0,0.0,-4.5594,-4.5594,-4.5594,-4.5594,-4.5594,-4.5594,-4.5594,-4.5594,-4.5594,-4.5594,-4.5594,-4.5594,-4.5594,-4.5594,-4.5594,-4.5594,-4.5457,-4.564,-4.6124,-4.5919,-4.6316,-4.7366,-4.7231,-4.7516,-4.8207,-4.8124,-4.7919,-4.759,-4.759,-4.7149,-4.6361,-4.5902,-4.5498,-4.5149,-4.4672,-4.4085,-4.3515,-4.3515,-4.3515,-4.3515,-4.3515,-4.3515,-4.3515,-4.3515,0.0,0.0,0.0,0.0,0.0,0.0,0.0,0.0,0.0,0.0,0.0,0.0,0.0,0.0,0.0,0.0,0.0,0.0,0.0,0.0,0.0,0.0,0.0,0.0,-4.3791,-4.4011,-4.4011,-4.4415,-4.4856,-4.5149,-4.6214,-4.7095,-4.7553,-4.8673,-4.9554,-5.0068,-5.0545,-5.0949,-5.1279,-5.1316,-5.1463,-5.1793,-5.227,-5.2491,-5.2491,-5.2968,-5.3203,-5.3203,-5.3203,-5.3203,-5.3203,-5.3555,-5.3702,-5.3739,-5.4069,-5.4216,-5.4216,-5.4216,-5.4693,-5.5427,0.0,0.0,0.0,0.0,-5.7997,-5.7997,0.0,0.0,0.0,0.0,0.0,0.0,-4.5594,-4.5594,-4.5594,-4.5594,-4.5594,-4.5594,-4.5594,-4.5594,-4.5594,-4.5594,-4.5594,-4.5594,-4.5594,-4.5594,-4.5594,-4.5594,-4.5418,-4.5819,-4.6885,-4.6385,-4.7024,-4.885,-4.8917,-4.8954,-4.8961,-4.928,-4.9048,-4.8306,-4.8306,-4.7883,-4.7223,-4.7149,-4.6672,-4.603,-4.5957,-4.5002,-4.3644,-4.3644,-4.3588,-4.3515,-4.3515,-4.3515,-4.3515,-4.3515,0.0,0.0,0.0,0.0,0.0,0.0,0.0,0.0,0.0,0.0,0.0,0.0,0.0,0.0,0.0,0.0,0.0,0.0,0.0,0.0,0.0,0.0,0.0,0.0,-4.4305,-4.4892,-4.5058,-4.5095,-4.5369,-4.6104,-4.7609,-4.86,-4.86,-4.9994,-5.0949,-5.0949,-5.1022,-5.1389,-5.2087,-5.2123,0.0,0.0,0.0,-5.3203,-5.3203,-5.3277,-5.3314,-5.3314,-5.3424,-5.3482,-5.3482,-5.4216,-5.4546,-5.4583,-5.528,-5.5596,-5.5596,-5.5596,-5.6051,-5.6748,-5.6088,-5.6308,-5.7042,-5.774,-5.7997,-5.7997,0.0,0.0,0.0,0.0,0.0,0.0,-4.5594,-4.5594,-4.5594,-4.5594,-4.5594,-4.5594,-4.5594,-4.5594,-4.5594,-4.5594,-4.5594,-4.5594,-4.5594,-4.5594,-4.5594,-4.5594,-4.6195,-4.6646,-4.6885,-4.7761,-4.8568,-4.9278,-4.9366,-4.9381,-4.9371,-4.9123,-4.8761,-4.8306,-4.8306,-4.8233,-4.8049,-4.7369,-4.7003,-4.6819,-4.6177,-4.5333,-4.4488,-4.4488,-4.4085,-4.3515,-4.3515,-4.3515,-4.3515,-4.3515,-4.3515,-4.3515,-4.3515,-4.3515,0.0,0.0,0.0,0.0,0.0,0.0,0.0,0.0,0.0,0.0,0.0,0.0,0.0,0.0,0.0,0.0,0.0,0.0,0.0,-4.4488,-4.5149,-4.6104,-4.7425,-4.7609,-4.7682,-4.7829,-4.9297,-5.0325,-5.0325,-5.1206,-5.1756,-5.1756,-5.238,-5.2821,-5.2968,-5.2968,-5.3041,-5.3203,-5.3203,-5.3203,-5.3203,-5.3849,-5.4179,-5.4179,-5.484,0.0,-5.5133,-5.528,-5.5354,-5.5354,-5.5537,-5.5596,-5.5596,-5.5596,-5.6051,-5.6859,-5.7336,-5.7629,-5.7776,-5.7923,-5.7997,-5.7997,0.0,0.0,0.0,0.0,0.0,0.0,-4.5594,-4.5594,-4.5594,-4.5594,-4.5594,-4.5594,-4.5594,-4.5594,-4.5594,-4.5594,-4.5594,-4.5594,-4.5594,-4.5594,-4.5787,-4.624,-4.6465,-4.7079,-4.8125,-4.863,-4.9242,-5.0048,-5.0073,-4.9987,-4.9819,-4.9589,-4.9187,-4.8604,-4.8604,-4.8495,-4.8269,-4.7846,-4.77,-4.7663,-4.7278,-4.6397,-4.5259,-4.4856,-4.4452,-4.4048,-4.3644,-4.3515,-4.3515,-4.3515,-4.3515,-4.3515,-4.3515,-4.3631,-4.3726,0.0,0.0,0.0,0.0,0.0,0.0,0.0,0.0,0.0,0.0,0.0,0.0,0.0,0.0,-4.3608,-4.4011,0.0,-4.4856,-4.5259,-4.6324,-4.7388,-4.8196,-4.937,-4.9994,-4.9591,-5.0655,-5.1389,-5.1389,-5.2123,-5.2601,-5.2601,-5.2968,-5.3203,-5.3203,-5.3203,-5.3408,-5.3812,-5.3812,-5.3995,-5.4399,-5.4803,-5.4987,-5.4987,-5.539,-5.5596,-5.5611,-5.6014,-5.6198,-5.6235,-5.6638,-5.6785,-5.6785,-5.6785,-5.7042,-5.7446,-5.785,-5.7997,-5.7997,-5.7997,-5.7997,-5.7997,0.0,0.0,0.0,0.0,0.0,0.0,0.0,-4.5594,-4.5594,-4.5594,-4.5594,-4.5594,-4.5594,-4.5594,-4.5594,-4.5594,-4.5594,-4.5594,-4.5594,-4.5594,-4.597,-4.6846,-4.674,-4.7496,-4.9356,-4.9307,-4.9729,-5.0712,-5.0712,-5.0493,-5.0111,-5.0111,-4.97,-4.9011,-4.8928,-4.8709,-4.8402,-4.8344,-4.8306,-4.8306,-4.8122,-4.7278,-4.603,-4.5076,-4.4599,-4.4378,-4.3718,-4.3515,-4.3515,-4.358,-4.3597,-4.3614,-4.3714,-4.3896,-4.4028,-4.3693,-4.3807,0.0,0.0,0.0,0.0,0.0,0.0,0.0,0.0,-4.3515,-4.3515,-4.3515,-4.3608,-4.3938,-4.4599,-4.4948,-4.5443,-4.625,-4.7609,-4.8673,-4.8967,-5.0729,-5.183,-5.1316,-5.183,-5.2234,-5.2234,-5.2821,-5.3203,-5.3203,-5.3203,-5.3298,-5.3445,-5.3424,-5.3812,-5.462,-5.462,-5.495,-5.5574,-5.578,-5.5831,-5.5831,-5.5978,-5.6073,-5.611,-5.6748,-5.7042,-5.7079,-5.7703,-5.7997,-5.7997,-5.7997,-5.7997,-5.7997,-5.7997,-5.7997,-5.7997,-5.7997,-5.7997,-5.7997,0.0,0.0,0.0,0.0,0.0,0.0,0.0,0.0,-4.5594,-4.5594,-4.5594,-4.5594,-4.5594,-4.5594,-4.5594,-4.5594,-4.5594,-4.5594,-4.5594,-4.5594,-4.597,-4.6846,-4.7558,-4.8366,-4.9394,-5.0106,-5.0567,-5.0712,-5.0712,-5.0493,-5.0111,-5.0111,-4.9872,-4.9416,-4.9059,-4.8898,-4.8813,-4.8458,-4.8306,-4.8233,-4.7516,-4.7113,-4.6782,-4.5278,-4.4268,-4.3608,-4.3551,-4.3515,-4.3566,-4.3833,-4.3921,-4.4035,-4.4346,-4.4519,-4.4479,-4.4043,-4.3952,-4.3943,-4.3597,-4.3515,-4.3515,-4.3515,-4.3515,-4.3515,0.0,-4.3515,-4.3515,-4.3515,-4.4085,-4.4581,-4.4654,-4.5865,-4.7076,-4.7902,-4.882,-4.9941,-5.1389,-5.183,-5.2234,-5.2858,-5.2983,-5.3078,-5.3078,-5.313,-5.3203,-5.3203,-5.3203,-5.3518,-5.4216,-5.4289,-5.462,-5.5427,-5.5464,-5.55,-5.5596,-5.6308,-5.6675,-5.6675,-5.7373,-5.774,-5.774,-5.7813,-5.7886,-5.7886,-5.796,-5.7997,-5.7997,-5.7997,-5.7997,-5.7997,-5.7997,-5.7997,-5.7997,-5.7997,-5.7997,-5.7997,0.0,0.0,0.0,0.0,0.0,0.0,0.0,0.0,0.0,-4.5594,-4.5594,-4.5594,-4.5594,-4.5594,-4.5594,-4.5594,-4.5594,-4.5594,-4.5594,-4.5594,-4.597,-4.6846,-4.7231,-4.8048,-4.9356,-4.974,-5.0202,-5.0712,-5.0712,-5.0614,-5.0462,-5.0462,-5.0123,-4.9489,-4.9326,-4.8978,-4.8495,-4.7868,-4.759,-4.7516,-4.6728,-4.6248,-4.5904,-4.5017,-4.4482,-4.408,-4.3664,-4.3515,0.0,-4.3896,-4.3982,-4.4058,-4.4455,-4.4612,-4.4508,-4.4117,-4.3982,-4.3943,-4.3597,-4.3515,-4.3515,-4.3515,-4.3515,-4.3515,-4.3515,-4.3515,-4.3608,-4.4085,-4.4488,-4.4984,-4.5902,-4.6636,-4.7516,-4.882,-4.9738,-5.0692,-5.183,-5.2417,-5.2821,-5.3188,-5.3203,-5.3203,-5.3203,-5.3203,-5.3203,-5.3203,-5.3628,-5.4069,-5.4363,-5.484,-5.5464,-5.6271,-5.6308,-5.6528,-5.6969,-5.7336,-5.7483,-5.7483,-5.785,-5.7997,-5.7997,-5.7997,-5.7997,-5.7997,-5.7997,-5.7997,-5.7997,-5.7997,-5.7997,-5.7997,-5.7997,-5.7997,-5.7997,-5.7997,-5.7997,-5.7997,0.0,0.0,0.0,0.0,0.0,0.0,0.0,0.0,0.0,0.0,-4.5594,-4.5594,-4.5594,-4.5594,-4.5594,-4.5594,-4.5594,-4.5594,-4.5594,-4.5594,-4.597,-4.6846,-4.6885,-4.7586,-4.9009,-4.9048,-4.9327,-4.9844,-4.9844,-4.9803,-4.969,-4.969,-4.9413,-4.8824,-4.8723,-4.8338,-4.7776,-4.7077,-4.6746,-4.6709,-4.5883,-4.538,-4.502,-4.4637,-4.44,-4.4242,-4.3714,-4.3546,-4.366,-4.3927,-4.3982,-4.4058,-4.4455,-4.4612,-4.4508,-4.4117,-4.3982,-4.3943,-4.3597,-4.3563,-4.3631,-4.3495,-4.3515,-4.3515,-4.3515,-4.3644,-4.4011,-4.4599,-4.5058,-4.5718,-4.6892,-4.7259,-4.7976,-4.9664,-5.0398,-5.1169,-5.2197,-5.2821,-5.3203,-5.3203,-5.3203,-5.3203,-5.3203,-5.3203,-5.3203,-5.3203,-5.3959,-5.4509,-5.473,-5.55,-5.6308,-5.7116,-5.7152,-5.7409,-5.7997,-5.7997,-5.7997,-5.7997,-5.7997,-5.7997,-5.7997,-5.7997,-5.7997,-5.7997,-5.7997,-5.7997,-5.7997,-5.7997,-5.7997,-5.7997,-5.7997,-5.7997,-5.7997,-5.7997,-5.7997,-5.7997,0.0,0.0,0.0,0.0,0.0,0.0,0.0,0.0,0.0,0.0,0.0,0.0,0.0,-4.5594,-4.5594,-4.5594,-4.5594,-4.5594,-4.5594,-4.5594,-4.597,-4.6846,-4.6885,-4.7278,-4.8125,-4.8125,-4.7971,-4.7678,-4.7678,-4.7526,-4.7222,-4.7222,-4.7208,-4.7168,-4.678,-4.6579,-4.6531,-4.6098,-4.5957,-4.5883,-4.5076,-4.4745,-4.4651,-4.4183,-4.3823,-4.3549,-4.3515,-4.371,-4.3967,-4.3982,-4.3982,-4.4058,-4.4455,-4.4612,-4.4508,-4.4117,-4.3982,-4.3943,-4.3597,-4.3742,-4.3912,-4.358,-4.3515,-4.3515,-4.3515,-4.4085,-4.4654,-4.4691,-4.5938,-4.7039,-4.7076,-4.7736,-4.882,-5.0508,-5.0765,-5.1353,-5.2968,-5.3167,-5.3203,-5.3203,-5.3203,-5.3203,-5.3203,-5.3203,-5.3203,-5.3203,-5.3959,-5.473,-5.5522,-5.6345,-5.7152,-5.7923,-5.796,-5.796,-5.7997,-5.7997,-5.7997,-5.7997,-5.7997,-5.7997,-5.7997,-5.7997,-5.7997,-5.7997,-5.7997,-5.7997,-5.7997,-5.7997,-5.7997,-5.7997,-5.7997,-5.7997,-5.7997,-5.7997,-5.7997,-5.7997,0.0,0.0,0.0,0.0,0.0,0.0,0.0,0.0,0.0,0.0,0.0,0.0,0.0,0.0,0.0,0.0,-4.5594,-4.5594,-4.5594,-4.5594,-4.5748,-4.6009,-4.6047,-4.6432,-4.7278,-4.7308,-4.7501,-4.7923,-4.7718,-4.7674,-4.775,-4.7315,-4.7092,-4.7013,-4.6659,-4.6347,-4.6059,-4.5404,-4.5112,-4.5039,-4.4232,-4.4053,-4.4241,-4.4048,-4.4233,-4.4535,0.0,-4.3989,-4.3693,-4.3943,-4.3982,-4.4058,-4.4455,-4.4401,-4.4175,-4.4028,-4.3833,-4.3693,-4.3786,-4.3758,-4.3664,-4.3549,-4.3515,-4.3515,-4.3515,-4.4341,-4.5177,-4.5441,-4.676,-4.7884,-4.7905,-4.8347,-4.9159,-5.0568,-5.0802,-5.1353,-5.2947,-5.3203,-5.3203,-5.3203,-5.3203,-5.3203,-5.3203,-5.3203,-5.3445,-5.3959,-5.473,-5.5537,-5.6345,-5.7152,-5.7703,-5.7997,-5.7997,-5.7997,-5.7997,-5.7997,-5.7997,-5.7997,-5.7997,-5.7997,-5.7997,-5.7997,-5.7997,-5.7997,-5.7997,-5.7997,-5.7997,-5.7997,-5.7997,-5.7997,-5.7997,-5.7997,-5.7997,-5.7997,-5.7997,-5.7997,0.0,0.0,0.0,0.0,0.0,0.0,0.0,0.0,0.0,0.0,0.0,0.0,0.0,0.0,0.0,0.0,0.0,-4.5594,-4.5594,-4.5594,-4.5594,-4.5594,-4.5594,-4.5855,-4.6432,-4.6432,-4.6617,-4.703,-4.6827,-4.6746,-4.6849,-4.6265,-4.598,-4.5899,-4.5584,-4.5261,-4.5002,-4.4488,-4.4268,-4.4232,-4.3718,-4.3647,-4.3849,-4.4102,-4.4428,0.0,-4.4776,-4.4387,-4.3881,-4.3989,-4.3982,-4.4013,-4.4184,-4.4087,-4.3967,-4.3849,-4.3871,-4.3902,-4.3818,-4.3758,-4.3664,-4.3549,-4.3515,-4.3512,-4.3627,-4.4496,-4.5398,-4.5795,-4.7031,-4.8075,-4.8068,-4.8419,-4.9213,-5.0748,-5.1024,-5.1578,-5.3182,-5.3404,-5.3359,-5.3246,-5.3203,-5.3203,-5.3203,-5.3482,-5.3849,-5.4363,-5.5133,-5.5941,-5.6748,-5.7556,-5.7997,-5.7997,-5.7997,-5.7997,-5.7997,-5.7997,-5.7997,-5.7997,-5.7997,-5.7997,-5.7997,-5.7997,-5.7997,-5.7997,-5.7997,-5.7997,-5.7997,-5.7997,-5.7997,-5.7997,-5.7997,-5.7997,-5.7997,-5.7997,-5.7997,-5.7997,0.0,0.0,0.0,0.0,0.0,0.0,0.0,0.0,0.0,0.0,0.0,0.0,0.0,0.0,0.0,0.0,0.0,0.0,-4.5594,-4.5594,-4.5594,-4.5594,-4.5594,-4.5594,-4.5594,-4.5594,-4.5438,-4.5137,-4.5126,-4.4943,-4.465,-4.4204,-4.3998,-4.3998,-4.3644,-4.3515,-4.3515,-4.3515,-4.3515,-4.3515,-4.3515,-4.3515,-4.3563,-4.4313,-4.4332,-4.4132,-4.4823,-4.4908,-4.4612,-4.4161,-4.4013,-4.3958,-4.3614,-4.3726,-4.3958,-4.3631,-4.402,-4.4438,-4.373,-4.3758,-4.3912,-4.3597,-4.3549,-4.3614,-4.3974,-4.4646,-4.535,-4.5683,-4.6817,-4.7707,-4.769,-4.805,-4.8993,-5.0986,-5.1337,-5.1915,-5.3498,-5.374,-5.3643,-5.323,-5.3203,-5.3203,-5.324,-5.3959,-5.4436,-5.4509,-5.5207,-5.6014,-5.6822,-5.7593,-5.7997,-5.7997,-5.7997,-5.7997,-5.7997,-5.7997,-5.7997,-5.7997,-5.7997,-5.7997,-5.7997,-5.7997,-5.7997,-5.7997,-5.7997,-5.7997,-5.7997,-5.7997,-5.7997,-5.7997,-5.7997,-5.7997,-5.7997,-5.7997,-5.7997,-5.7997,0.0,0.0,0.0,0.0,0.0,0.0,0.0,0.0,0.0,0.0,0.0,0.0,0.0,0.0,0.0,0.0,0.0,0.0,-4.5594,-4.5594,-4.5594,-4.5594,-4.5594,-4.5594,-4.5594,-4.5594,-4.5559,-4.5457,-4.5222,-4.5191,-4.5313,-4.4404,-4.4146,-4.4401,-4.3775,-4.3515,-4.3515,-4.3515,-4.3515,-4.3515,-4.3515,-4.3515,-4.3529,-4.3989,-4.4276,-4.4495,-4.4943,-4.5211,-4.5253,-4.4638,-4.4247,-4.3958,-4.3614,-4.3726,-4.3967,-4.3912,-4.402,-4.4102,-4.3927,-4.3758,-4.366,-4.3818,-4.3881,-4.3989,-4.4346,-4.5067,-4.5576,-4.541,-4.6855,-4.8078,-4.7751,-4.8255,-4.9113,-5.0259,-5.0731,-5.1315,-5.2327,-5.2991,-5.3297,-5.3188,-5.3203,-5.3445,-5.4032,-5.4289,-5.4913,-5.6124,-5.6381,-5.6859,-5.7666,-5.7886,-5.7997,-5.7997,-5.7997,-5.7997,-5.7997,-5.7997,-5.7997,-5.7997,-5.7997,-5.7997,-5.7997,-5.7997,-5.7997,-5.7997,-5.7997,-5.7997,-5.7997,-5.7997,-5.7997,-5.7997,-5.7997,-5.7997,-5.7997,-5.7997,-5.7997,-5.7997,0.0,0.0,0.0,0.0,0.0,0.0,0.0,0.0,0.0,0.0,0.0,0.0,0.0,0.0,0.0,0.0,0.0,0.0,0.0,-4.5457,-4.539,-4.539,-4.539,-4.539,-4.539,-4.5541,-4.5594,-4.5594,-4.541,-4.5419,-4.5577,-4.4688,-4.4373,-4.4585,-4.3839,-4.3515,-4.3515,-4.3515,-4.3515,0.0,0.0,-4.3515,-4.3549,-4.3865,-4.4247,-4.465,-4.4977,-4.5222,-4.5293,-4.4788,-4.4219,-4.3791,-4.3742,-4.3974,-4.4261,-4.4261,-4.4261,-4.4219,-4.4043,-4.3758,-4.3566,-4.3742,-4.3896,-4.4058,-4.4276,-4.4831,-4.52,-4.4979,-4.6422,-4.7636,-4.7417,-4.8226,-4.9243,-5.0263,-5.0764,-5.134,-5.2153,-5.2947,-5.342,-5.3209,-5.3203,-5.3518,-5.4326,-5.473,-5.5464,-5.6712,-5.6822,-5.7152,-5.796,-5.7997,-5.7997,-5.7997,-5.7997,-5.7997,-5.7997,-5.7997,-5.7997,-5.7997,-5.7997,-5.7997,-5.7997,-5.7997,-5.7997,-5.7997,-5.7997,-5.7997,-5.7997,-5.7997,-5.7997,-5.7997,-5.7997,-5.7997,-5.7997,-5.7997,-5.7997,-5.7997,0.0,0.0,0.0,0.0,0.0,0.0,0.0,0.0,0.0,0.0,0.0,0.0,0.0,0.0,0.0,0.0,0.0,0.0,0.0,0.0,-4.5115,-4.5115,-4.5044,-4.5033,-4.5115,-4.539,-4.5559,-4.5594,-4.5594,-4.5594,-4.5586,-4.4966,-4.4676,-4.465,-4.3918,-4.3563,-4.3546,-4.3532,-4.3515,-4.3515,-4.3515,-4.3515,-4.3512,0.0,-4.4161,-4.4548,-4.4954,-4.5115,-4.5033,-4.4726,-4.414,-4.3631,-4.3912,-4.4276,-4.4612,-4.4612,-4.4612,-4.4495,-4.4102,-4.3758,-4.3515,-4.3546,-4.3818,-4.4073,-4.4073,-4.4346,-4.4636,-4.4659,-4.5889,-4.6996,-4.7127,-4.8168,-4.9332,-5.0455,-5.0986,-5.1486,-5.2233,-5.3033,-5.3493,-5.323,-5.3203,-5.3555,-5.4473,-5.517,-5.5978,-5.6895,-5.6969,-5.7262,-5.796,-5.7997,-5.7997,-5.7997,-5.7997,-5.7997,-5.7997,-5.7997,-5.7997,-5.7997,-5.7997,-5.7997,-5.7997,-5.7997,-5.7997,-5.7997,-5.7997,-5.7997,-5.7997,-5.7997,-5.7997,-5.7997,-5.7997,-5.7997,-5.7997,-5.7997,-5.7997,-5.7997,0.0,0.0,0.0,0.0,0.0,0.0,0.0,0.0,0.0,0.0,-4.5594,-4.5594,0.0,0.0,0.0,0.0,0.0,0.0,0.0,0.0,0.0,-4.5115,-4.4837,-4.4825,-4.5077,-4.5169,-4.5303,-4.5594,-4.5594,-4.5594,-4.5586,-4.5201,-4.5,-4.4977,-4.4247,-4.3927,-4.3896,-4.3631,-4.3515,-4.3515,-4.3515,-4.3515,-4.3515,-4.3563,0.0,0.0,-4.4872,-4.5115,-4.5033,-4.4726,-4.4276,-4.3943,-4.3967,-4.4276,-4.4612,-4.4612,-4.4612,-4.4495,-4.4102,-4.3758,-4.3563,-4.3833,-4.419,-4.4519,-4.4519,-4.4559,-4.467,-4.5021,-4.591,-4.6892,-4.7891,-4.8819,-4.9453,-4.9678,-5.0038,-5.0507,-5.1038,-5.1788,-5.252,-5.3115,-5.3203,-5.3775,-5.5244,-5.5522,-5.6198,-5.7666,-5.7776,-5.785,-5.7997,-5.7997,-5.7997,-5.7997,-5.7997,-5.7997,-5.7997,-5.7997,-5.7997,-5.7997,-5.7997,-5.7997,-5.7997,-5.7997,-5.7997,-5.7997,-5.7997,-5.7997,-5.7997,-5.7997,-5.7997,-5.7997,-5.7997,-5.7997,-5.7997,-5.7997,-5.7997,-5.7997,0.0,0.0,0.0,0.0,0.0,0.0,0.0,-4.5594,-4.5594,-4.5594,-4.5594,-4.5594,-4.5594,-4.5594,0.0,0.0,0.0,0.0,0.0,0.0,0.0,0.0,-4.4482,-4.4359,-4.4535,-4.4713,-4.5,-4.5361,0.0,-4.5429,-4.5586,-4.5253,-4.5,-4.4825,-4.4247,-4.3912,-4.3726,-4.3563,-4.3515,-4.3515,-4.3515,-4.3515,-4.3515,0.0,0.0,0.0,-4.5099,-4.5148,-4.4825,-4.4663,-4.4227,-4.3791,-4.3921,-4.4276,-4.465,-4.4812,-4.4751,-4.4572,-4.4359,-4.3896,-4.3529,-4.3693,-4.4146,-4.4519,-4.4125,-4.4341,-4.4678,-4.4909,-4.5945,-4.7108,-4.8108,-4.9105,-4.9819,-4.9819,-4.9956,-5.0337,-5.0953,-5.1587,-5.2307,-5.3093,-5.3203,-5.3849,-5.5427,-5.5596,-5.6271,-5.7886,-5.7997,-5.7997,-5.7997,-5.7997,-5.7997,-5.7997,-5.7997,-5.7997,-5.7997,-5.7997,-5.7997,-5.7997,-5.7997,-5.7997,-5.7997,-5.7997,-5.7997,-5.7997,-5.7997,-5.7997,-5.7997,-5.7997,-5.7997,-5.7997,-5.7997,-5.7997,-5.7997,-5.7997,-5.7997,-5.7997,0.0,0.0,0.0,0.0,0.0,0.0,0.0,-4.5594,-4.5594,-4.5594,-4.5594,-4.5594,-4.5594,-4.5594,-4.5594,0.0,0.0,0.0,0.0,0.0,0.0,0.0,0.0,0.0,-4.3982,0.0,0.0,-4.5115,-4.5115,0.0,0.0,0.0,0.0,0.0,-4.4304,-4.3943,-4.3614,-4.3512,-4.3515,0.0,0.0,-4.3515,-4.3515,0.0,0.0,0.0,0.0,-4.5077,-4.4714,-4.4637,-4.4169,-4.3647,-4.3818,-4.4204,-4.4676,-4.4988,-4.4861,-4.4612,-4.4612,-4.4065,-4.3515,-4.3515,-4.405,-4.4425,-4.3681,-4.4214,-4.4885,-4.492,-4.6158,-4.7486,-4.8386,-4.9403,-5.0111,-5.0111,-5.0055,-5.0267,-5.117,-5.156,-5.2123,-5.3078,-5.3203,-5.3775,-5.5207,-5.55,-5.6198,-5.7629,-5.7886,-5.7997,-5.7997,-5.7997,-5.7997,-5.7997,-5.7997,-5.7997,-5.7997,-5.7997,-5.7997,-5.7997,-5.7997,-5.7997,-5.7997,-5.7997,-5.7997,-5.7997,-5.7997,-5.7997,-5.7997,-5.7997,-5.7997,-5.7997,-5.7997,-5.7997,-5.7997,-5.7997,-5.7997,-5.7997,0.0,0.0,0.0,0.0,0.0,0.0,0.0,-4.5594,-4.5594,-4.5594,-4.5594,-4.5594,-4.5594,-4.5594,-4.5594,0.0,0.0,0.0,0.0,0.0,0.0,0.0,0.0,0.0,0.0,0.0,0.0,-4.5115,-4.5115,0.0,0.0,0.0,0.0,0.0,0.0,-4.4318,-4.3943,-4.3647,0.0,0.0,0.0,0.0,0.0,0.0,0.0,0.0,0.0,-4.4849,-4.5,-4.4714,-4.4304,-4.3912,-4.3647,-4.402,-4.4676,-4.4988,-4.4861,-4.4612,-4.4612,-4.4065,-4.3515,-4.3515,-4.405,-4.4425,-4.3681,-4.4646,-4.5721,-4.5785,-4.6786,-4.7991,-4.9167,-4.977,-5.0111,-5.0111,-4.979,-4.9972,-5.1131,-5.108,-5.1499,-5.3041,-5.3203,-5.3555,-5.4436,-5.517,-5.5941,-5.6859,-5.7593,-5.7997,-5.7997,-5.7997,-5.7997,-5.7997,-5.7997,-5.7997,-5.7997,-5.7997,-5.7997,-5.7997,-5.7997,-5.7997,-5.7997,-5.7997,-5.7997,-5.7997,-5.7997,-5.7997,-5.7997,-5.7997,-5.7997,-5.7997,-5.7997,-5.7997,-5.7997,-5.7997,-5.7997,-5.7997,0.0,0.0,0.0,0.0,0.0,0.0,-4.5594,-4.5594,-4.5594,-4.5594,-4.5594,-4.5594,-4.5594,-4.5594,-4.5594,-4.5594,0.0,0.0,0.0,0.0,0.0,0.0,0.0,0.0,0.0,0.0,-4.408,-4.4812,-4.4561,0.0,0.0,0.0,0.0,0.0,0.0,-4.405,-4.3677,-4.3546,0.0,0.0,0.0,0.0,0.0,0.0,0.0,0.0,0.0,0.0,-4.4428,-4.429,-4.4004,-4.366,-4.3529,-4.3989,-4.4637,-4.4763,-4.4714,-4.4612,-4.4612,-4.4065,-4.3515,-4.3515,-4.3849,-4.4125,-4.3614,-4.4496,-4.5513,-4.5843,-4.6863,-4.8055,-4.928,-4.9846,-5.0111,-5.0111,-4.9741,-4.9755,-5.0477,-5.0711,-5.1206,-5.2344,-5.2931,-5.3518,-5.4326,-5.5133,-5.6124,-5.7446,-5.7813,-5.7997,-5.7997,-5.7997,-5.7997,-5.7997,-5.7997,-5.7997,-5.7997,-5.7997,-5.7997,-5.7997,-5.7997,-5.7997,-5.7997,-5.7997,-5.7997,-5.7997,-5.7997,-5.7997,-5.7997,-5.7997,-5.7997,-5.7997,-5.7997,-5.7997,-5.7997,-5.7997,-5.7997,-5.7997,0.0,0.0,0.0,0.0,0.0,-4.5594,-4.5594,-4.5594,-4.5594,-4.5594,-4.5594,-4.5594,-4.5594,-4.5594,-4.5594,-4.5594,-4.5523,0.0,0.0,0.0,0.0,0.0,0.0,0.0,0.0,0.0,-4.3807,-4.4414,-4.4132,-4.4332,0.0,0.0,-4.4373,-4.3982,0.0,0.0,0.0,0.0,0.0,0.0,0.0,0.0,0.0,0.0,0.0,0.0,0.0,0.0,0.0,0.0,0.0,-4.3515,-4.3515,-4.3912,-4.4414,-4.4414,-4.4533,-4.4585,-4.4441,-4.3958,-4.3515,-4.3515,-4.3758,-4.3927,-4.358,-4.4589,-4.5605,-4.5863,-4.6926,-4.8228,-4.9288,-4.9631,-4.9808,-5.0049,-4.9659,-4.9518,-5.0013,-5.0489,-5.1096,-5.1903,-5.2711,-5.3445,-5.3995,-5.4766,-5.5904,-5.7519,-5.7666,-5.774,-5.7997,-5.7997,-5.7997,-5.7997,-5.7997,-5.7997,-5.7997,-5.7997,-5.7997,-5.7997,-5.7997,-5.7997,-5.7997,-5.7997,-5.7997,-5.7997,-5.7997,-5.7997,-5.7997,-5.7997,-5.7997,-5.7997,-5.7997,-5.7997,-5.7997,-5.7997,-5.7997,-5.7997,0.0,0.0,0.0,0.0,0.0,0.0,-4.5594,-4.5594,-4.5594,-4.5594,-4.5594,-4.5594,-4.5594,-4.5594,-4.5594,-4.5594,-4.5283,0.0,0.0,0.0,0.0,0.0,0.0,0.0,0.0,0.0,-4.366,-4.3998,-4.3998,-4.4204,-4.4612,-4.4612,-4.4373,-4.3982,0.0,0.0,0.0,0.0,0.0,0.0,0.0,0.0,0.0,0.0,0.0,0.0,0.0,0.0,0.0,0.0,0.0,0.0,0.0,-4.3742,-4.3998,-4.3998,-4.4276,-4.4495,-4.4102,-4.3775,-4.3515,-4.3515,-4.3758,-4.3927,-4.358,-4.5016,-4.6294,-4.5974,-4.7168,-4.8532,-4.9356,-4.9171,-4.9171,-4.9974,-4.9431,-4.9176,-5.0016,-5.0489,-5.1096,-5.1903,-5.2711,-5.3203,-5.3203,-5.3959,-5.5097,-5.6712,-5.6822,-5.7152,-5.796,-5.7997,-5.7997,-5.7997,-5.7997,-5.7997,-5.7997,-5.7997,-5.7997,-5.7997,-5.7997,-5.7997,-5.7997,-5.7997,-5.7997,-5.7997,-5.7997,-5.7997,-5.7997,-5.7997,-5.7997,-5.7997,-5.7997,-5.7997,-5.7997,-5.7997,-5.7997,-5.7997,0.0,0.0,0.0,0.0,0.0,0.0,0.0,-4.5594,-4.5594,-4.5594,-4.5594,-4.5594,-4.5594,-4.5594,-4.5594,-4.5594,-4.5485,0.0,0.0,0.0,0.0,0.0,0.0,0.0,0.0,0.0,-4.3644,-4.3982,-4.3791,-4.3818,-4.4175,-4.3943,-4.3775,-4.3644,-4.3644,-4.3597,0.0,0.0,0.0,0.0,0.0,0.0,-4.3515,0.0,0.0,0.0,0.0,0.0,0.0,0.0,0.0,0.0,0.0,0.0,0.0,-4.3726,-4.3912,-4.4161,-4.4028,-4.3758,-4.3515,-4.3515,-4.358,-4.3795,-4.423,-4.5219,-4.6192,-4.6636,-4.7553,-4.8477,-4.8978,-4.8978,-4.8978,-4.9249,-4.9059,-4.8887,-4.8883,-4.9983,-5.0875,-5.1169,-5.238,-5.3445,-5.3959,-5.4252,-5.484,-5.5904,-5.6492,-5.6932,-5.7189,-5.7703,-5.7997,-5.7997,-5.7997,-5.7997,-5.7997,-5.7997,-5.7997,-5.7997,-5.7997,-5.7997,-5.7997,-5.7997,-5.7997,-5.7997,-5.7997,-5.7997,-5.7997,-5.7997,-5.7997,-5.7997,-5.7997,-5.7997,-5.7997,-5.7997,-5.7997,-5.7997,0.0,0.0,0.0,0.0,0.0,0.0,0.0,-4.5594,-4.5594,-4.5594,-4.5594,-4.5594,-4.5594,-4.5594,-4.5559,-4.5419,-4.541,0.0,0.0,0.0,0.0,0.0,0.0,0.0,-4.3515,-4.3515,-4.3614,-4.3802,-4.3614,-4.3614,-4.3802,-4.3597,-4.3515,-4.3515,-4.3515,-4.3515,0.0,0.0,0.0,0.0,0.0,0.0,-4.3515,0.0,0.0,0.0,0.0,0.0,0.0,0.0,0.0,0.0,0.0,0.0,0.0,0.0,-4.3664,-4.3802,-4.3802,-4.3644,-4.3515,-4.3515,-4.3515,-4.3718,-4.4525,-4.5333,-4.614,-4.6929,-4.7736,-4.8421,-4.883,-4.8779,-4.8709,-4.8898,-4.8779,-4.8586,-4.8344,-4.9738,-5.1022,-5.1646,-5.2601,-5.3387,-5.3922,-5.3959,-5.4289,-5.5097,-5.5611,-5.6161,-5.6785,-5.7299,-5.7703,-5.7997,-5.7997,-5.7997,-5.7997,-5.7997,-5.7997,-5.7997,-5.7997,-5.7997,-5.7997,-5.7997,-5.7997,-5.7997,-5.7997,-5.7997,0.0,-5.7997,-5.7997,-5.7997,-5.7997,-5.7997,-5.7997,-5.7997,-5.7997,-5.7997,0.0,0.0,0.0,0.0,0.0,0.0,0.0,-4.5594,-4.5594,-4.5594,-4.5594,-4.5594,-4.5594,-4.5577,-4.5438,-4.5137,0.0,0.0,0.0,0.0,0.0,0.0,0.0,0.0,-4.3515,-4.3515,-4.3515,-4.3515,-4.3515,-4.3515,-4.3515,-4.3515,-4.3515,-4.3515,-4.3515,-4.3515,-4.3515,-4.3515,-4.3515,-4.3515,-4.3515,-4.3515,0.0,0.0,0.0,0.0,0.0,0.0,0.0,0.0,0.0,0.0,0.0,0.0,0.0,0.0,0.0,0.0,0.0,-4.3515,-4.3515,-4.3515,-4.3515,-4.3718,-4.4599,-4.5369,0.0,-4.7003,-4.7773,-4.8402,-4.8796,-4.855,-4.8421,-4.8796,-4.8532,-4.8306,-4.8306,-4.9738,-5.1389,-5.2983,-5.3203,-5.3203,-5.3203,-5.3203,-5.3518,-5.4252,-5.4363,-5.506,-5.6565,-5.6748,-5.7152,-5.7886,-5.796,-5.7997,-5.7997,-5.7997,-5.7997,-5.7997,-5.7997,-5.7997,-5.7997,-5.7997,-5.7997,-5.7997,-5.7997,-5.7997,-5.7997,-5.7997,-5.7997,-5.7997,-5.7997,-5.7997,-5.7997,-5.7997,-5.7997,-5.7997,0.0,0.0,0.0,0.0,0.0,0.0,0.0,0.0,0.0,0.0,-4.5594,-4.5594,-4.5594,-4.5381,-4.5191,0.0,0.0,0.0,0.0,0.0,0.0,0.0,0.0,0.0,-4.3515,-4.3515,-4.3515,-4.3515,-4.3515,-4.3515,-4.3515,-4.3515,-4.3515,-4.3515,-4.3515,-4.3515,-4.3515,-4.3515,-4.3515,-4.3515,-4.3515,-4.3515,0.0,0.0,0.0,0.0,-4.3515,-4.3515,0.0,0.0,0.0,0.0,0.0,0.0,0.0,0.0,-4.3515,-4.3515,-4.3515,0.0,-4.3515,-4.3515,-4.3515,-4.3882,0.0,-4.5773,-4.6287,-4.7719,-4.8196,-4.8344,-4.8421,-4.8345,-4.8344,-4.8421,-4.8345,-4.8306,-4.8306,-4.9738,-5.1389,-5.2983,-5.3203,-5.3203,-5.3203,-5.3203,-5.3277,-5.3482,-5.4069,-5.4583,-5.495,-5.6124,-5.6895,-5.7079,-5.7666,-5.7997,-5.7997,-5.7997,-5.7997,-5.7997,-5.7997,-5.7997,-5.7997,-5.7997,-5.7997,-5.7997,-5.7997,-5.7997,-5.7997,-5.7997,-5.7997,-5.7997,-5.7997,-5.7997,-5.7997,-5.7997,-5.7997,-5.7997,0.0,0.0,0.0,0.0,0.0,0.0,0.0,0.0,0.0,0.0,0.0,0.0,0.0,0.0,0.0,0.0,0.0,0.0,0.0,0.0,0.0,0.0,0.0,-4.3515,-4.3515,-4.3515,-4.3515,-4.3515,-4.3515,-4.3515,-4.3515,-4.3515,-4.3515,-4.3515,-4.3515,-4.3515,-4.3515,-4.3515,-4.3515,-4.3515,-4.3515,0.0,0.0,0.0,0.0,0.0,-4.3515,-4.3515,0.0,-4.3515,-4.3515,-4.3515,0.0,0.0,0.0,0.0,-4.3515,-4.3515,-4.3515,-4.3515,-4.3515,-4.3515,-4.3515,-4.3901,-4.5516,-4.5883,-4.6361,-4.7976,-4.8306,-4.8306,-4.8306,-4.8306,-4.8306,-4.8306,-4.8306,-4.8563,-4.9334,-5.0545,-5.1793,-5.3078,-5.3203,-5.3203,-5.3203,-5.3203,-5.3203,-5.3203,-5.3592,-5.3995,-5.4363,-5.5574,-5.6418,-5.6785,-5.7593,-5.7997,-5.7997,-5.7997,-5.7997,-5.7997,-5.7997,-5.7997,-5.7997,-5.7997,-5.7997,-5.7997,-5.7997,-5.7997,-5.7997,-5.7997,-5.7997,-5.7997,-5.7997,-5.7997,-5.7997,-5.7997,-5.7997,-5.7997,0.0,0.0,0.0,0.0,0.0,0.0,0.0,0.0,0.0,0.0,0.0,0.0,0.0,0.0,0.0,0.0,0.0,0.0,0.0,0.0,0.0,0.0,0.0,-4.3515,-4.3515,-4.3515,-4.3515,-4.3515,-4.3515,-4.3515,-4.3515,-4.3515,-4.3515,-4.3515,-4.3515,-4.3515,-4.3515,-4.3515,-4.3515,-4.3515,-4.3515,0.0,0.0,0.0,0.0,0.0,0.0,0.0,0.0,-4.3515,-4.3515,-4.3515,-4.3515,0.0,0.0,0.0,0.0,0.0,-4.3515,-4.3515,-4.3515,-4.3515,-4.3515,-4.3864,-4.5369,-4.581,-4.6324,-4.7829,-4.8233,-4.8306,-4.8306,-4.8306,-4.8306,-4.8306,-4.8416,-4.904,-5.0582,-5.1499,-5.2307,-5.3093,-5.3203,-5.3203,-5.3203,-5.3203,-5.3203,-5.3203,-5.3203,-5.3518,-5.4179,-5.4987,-5.5794,-5.6602,-5.7409,-5.7886,-5.7997,-5.7997,-5.7997,-5.7997,-5.7997,-5.7997,-5.7997,-5.7997,-5.7997,-5.7997,-5.7997,-5.7997,-5.7997,-5.7997,-5.7997,-5.7997,-5.7997,-5.7997,-5.7997,-5.7997,-5.7997,-5.8033,0.0,0.0,0.0,0.0,0.0,0.0,0.0,0.0,0.0,0.0,0.0,0.0,0.0,0.0,0.0,0.0,0.0,0.0,0.0,0.0,0.0,-4.3515,-4.3515,-4.3515,-4.3515,-4.3515,-4.3515,-4.3515,-4.3515,-4.3515,-4.3515,-4.3515,-4.3515,-4.3515,-4.3515,-4.3515,-4.3515,-4.3515,-4.3515,-4.3515,-4.3515,0.0,0.0,0.0,0.0,0.0,0.0,0.0,0.0,-4.3515,-4.3515,-4.3515,-4.3515,0.0,0.0,0.0,0.0,0.0,-4.3515,-4.3515,-4.3515,-4.3515,-4.3515,-4.3718,-4.4672,-4.5406,-4.6177,-4.7076,-4.781,-4.8306,-4.8306,-4.8306,-4.8306,-4.8306,-4.893,-4.9738,-5.0655,-5.1499,-5.2307,-5.3093,-5.3203,-5.3203,-5.3203,-5.3203,-5.3203,-5.3203,-5.3203,-5.324,-5.3408,-5.4142,-5.495,-5.5757,-5.6565,-5.7299,-5.7997,-5.7997,-5.7997,-5.7997,-5.7997,-5.7997,-5.7997,-5.7997,-5.7997,-5.7997,-5.7997,-5.7997,-5.7997,-5.7997,-5.7997,-5.7997,-5.7997,-5.7997,-5.7997,-5.7997,-5.7997,-5.818,0.0,0.0,0.0,0.0,0.0,0.0,0.0,0.0,0.0,0.0,0.0,0.0,0.0,0.0,0.0,0.0,0.0,0.0,0.0,0.0,-4.3515,-4.3515,-4.3515,-4.3515,-4.3515,-4.3515,-4.3515,-4.3515,-4.3515,-4.3515,-4.3515,-4.3515,-4.3515,-4.3515,-4.3515,-4.3515,-4.3515,-4.3515,-4.3515,-4.3515,0.0,0.0,0.0,0.0,0.0,0.0,0.0,0.0,0.0,0.0,-4.3515,-4.3515,-4.3515,0.0,0.0,0.0,0.0,0.0,-4.3515,-4.3515,-4.3515,-4.3515,-4.3515,-4.3718,-4.4525,-4.5002,-4.559,-4.6856,-4.7369,-4.7773,-4.8233,-4.8306,-4.8306,-4.8306,-4.9407,-5.0362,-5.0765,-5.1867,-5.2784,-5.3188,-5.3203,-5.3203,-5.3203,-5.3203,-5.3203,-5.3203,-5.3203,-5.3203,-5.3203,-5.3959,-5.4583,-5.495,-5.6161,-5.6969,-5.7336,-5.7776,-5.7997,-5.7997,-5.7997,-5.7997,-5.7997,-5.7997,-5.7997,-5.7997,-5.7997,-5.7997,-5.7997,-5.7997,-5.7997,-5.7997,-5.7997,-5.7997,-5.7997,-5.7997,-5.829,-5.8841,0.0,0.0,0.0,0.0,0.0,0.0,0.0,0.0,0.0,0.0,0.0,0.0,0.0,0.0,0.0,0.0,0.0,0.0,0.0,0.0,-4.3515,-4.3515,-4.3515,-4.3515,-4.3515,-4.3515,-4.3515,-4.3515,-4.3515,-4.3515,-4.3515,-4.3515,-4.3515,-4.3515,-4.3515,-4.3515,-4.3515,-4.3515,-4.3515,-4.3515,0.0,0.0,0.0,0.0,0.0,0.0,0.0,0.0,0.0,0.0,0.0,0.0,0.0,0.0,0.0,-4.3515,-4.3515,-4.3515,-4.3515,-4.3515,-4.3515,-4.3515,-4.3515,-4.3644,-4.4268,-4.4562,-4.5058,-4.6269,-4.6856,-4.7296,-4.7883,-4.8196,-4.8379,-4.8563,-4.9848,-5.0875,-5.1059,-5.2307,-5.3203,-5.3203,-5.3203,-5.3203,-5.3203,-5.3203,-5.3203,-5.3203,-5.3203,-5.3203,-5.3203,-5.3775,-5.4216,-5.4399,-5.5611,-5.6418,-5.6822,-5.7409,-5.7813,-5.7997,-5.7997,-5.7997,-5.7997,-5.7997,-5.7997,-5.7997,-5.7997,-5.7997,-5.7997,-5.7997,-5.7997,-5.7997,-5.7997,-5.7997,-5.7997,-5.7997,-5.851,-5.9294,0.0,0.0,0.0,0.0,0.0,0.0,0.0,0.0,0.0,0.0,0.0,0.0,0.0,0.0,0.0,0.0,0.0,0.0,0.0,0.0,-4.3515,-4.3515,-4.3515,-4.3515,-4.3515,-4.3515,-4.3515,-4.3515,-4.3515,-4.3515,-4.3515,-4.3515,-4.3515,-4.3515,-4.3515,-4.3515,-4.3515,-4.3515,-4.3515,-4.3515,-4.3515,0.0,0.0,0.0,0.0,0.0,0.0,0.0,0.0,0.0,0.0,0.0,0.0,0.0,-4.3515,-4.3515,-4.3515,-4.3515,-4.3515,-4.3515,-4.3515,-4.3515,-4.3515,-4.3515,-4.3588,-4.4158,-4.4728,-4.4838,-4.6049,-4.7113,-4.7186,-4.7773,-4.8563,-4.939,-5.0215,-5.1059,-5.1793,-5.2674,-5.3203,-5.3203,-5.3203,-5.3203,-5.3203,-5.3203,-5.3203,-5.3203,-5.3203,-5.3203,-5.3203,-5.324,-5.3628,-5.4363,-5.4509,-5.528,-5.6785,-5.6859,-5.7262,-5.7997,-5.7997,-5.7997,-5.7997,-5.7997,-5.7997,-5.7997,-5.7997,-5.7997,-5.7997,-5.7997,-5.7997,-5.7997,-5.7997,-5.7997,-5.7997,-5.7997,-5.851,-5.9294,0.0,0.0,0.0,0.0,0.0,0.0,0.0,0.0,0.0,0.0,0.0,0.0,0.0,0.0,0.0,0.0,0.0,0.0,0.0,-4.3515,-4.3515,-4.3515,-4.3515,-4.3515,-4.3515,-4.3515,-4.3515,-4.3515,-4.3515,-4.3515,-4.3515,-4.3515,-4.3515,-4.3515,-4.3515,-4.3515,-4.3515,-4.3515,-4.3515,-4.3515,-4.3515,-4.3515,0.0,0.0,0.0,0.0,0.0,0.0,0.0,0.0,-4.3515,-4.3515,-4.3515,-4.3515,-4.3515,-4.3515,-4.3515,-4.3515,-4.3515,-4.3515,-4.3515,-4.3515,-4.3515,-4.3515,-4.3515,-4.3718,-4.4085,-4.4599,-4.559,-4.6654,-4.7663,-4.8086,-4.8563,-4.9407,-5.0251,-5.1096,-5.1867,-5.2711,-5.3203,-5.3203,-5.3203,-5.3203,-5.3203,-5.3203,-5.3203,-5.3203,-5.3203,-5.3203,-5.3203,-5.3203,-5.3314,-5.3665,-5.4142,-5.4693,-5.5317,-5.6308,-5.6969,-5.7262,-5.7776,-5.7997,-5.7997,-5.7997,-5.7997,-5.7997,-5.7997,-5.7997,-5.7997,-5.7997,-5.7997,-5.7997,-5.7997,-5.7997,-5.7997,-5.7997,-5.851,-5.9294,0.0,0.0,0.0,0.0,0.0,0.0,0.0,0.0,0.0,0.0,0.0,0.0,0.0,0.0,0.0,0.0,0.0,0.0,-4.3515,-4.3515,-4.3515,-4.3515,-4.3515,-4.3515,-4.3515,-4.3515,-4.3515,-4.3515,-4.3515,-4.3515,-4.3515,-4.3515,-4.3515,-4.3515,-4.3515,-4.3515,-4.3515,-4.3515,-4.3515,-4.3515,-4.3515,-4.3515,0.0,0.0,0.0,0.0,0.0,0.0,0.0,0.0,-4.3515,-4.3515,-4.3515,-4.3515,-4.3515,-4.3515,-4.3515,-4.3515,-4.3515,-4.3515,-4.3515,-4.3515,-4.3515,-4.3515,-4.3515,-4.3515,-4.3718,-4.4525,-4.5553,-4.6691,-4.8049,-4.8306,-4.8636,-4.9738,-5.0398,-5.1169,-5.2234,-5.2858,-5.3203,-5.3203,-5.3203,-5.3203,-5.3203,-5.3203,-5.3203,-5.3203,-5.3203,-5.3203,-5.3203,-5.3203,-5.3203,-5.3203,-5.3739,-5.4142,-5.4399,-5.55,-5.6308,-5.6822,-5.7373,-5.774,-5.7997,-5.7997,-5.7997,-5.7997,-5.7997,-5.7997,-5.7997,-5.7997,-5.7997,-5.7997,-5.7997,-5.7997,-5.7997,-5.7997,-5.8187,-5.8665,0.0,0.0,0.0,0.0,0.0,0.0,0.0,0.0,0.0,0.0,0.0,0.0,0.0,0.0,0.0,0.0,0.0,0.0,-4.3532,-4.3515,-4.3515,-4.3515,-4.3515,-4.3515,-4.3515,-4.3515,-4.3515,-4.3515,-4.3515,-4.3515,-4.3515,-4.3515,-4.3515,-4.3515,-4.3515,-4.3515,-4.3515,-4.3515,-4.3515,-4.3515,-4.3515,-4.3515,-4.3515,0.0,0.0,0.0,0.0,0.0,0.0,0.0,-4.3515,-4.3515,-4.3515,-4.3515,-4.3515,-4.3515,-4.3515,-4.3515,-4.3515,-4.3515,-4.3515,-4.3515,-4.3515,-4.3515,-4.3515,-4.3515,-4.3718,-4.4562,-4.5975,-4.7333,-4.8159,-4.8306,-4.8857,-5.0545,-5.0802,-5.1353,-5.2947,-5.3203,-5.3203,-5.3203,-5.3203,-5.3203,-5.3203,-5.3203,-5.3203,-5.3203,-5.3203,-5.3203,-5.3203,-5.3203,-5.3203,-5.3203,-5.3203,-5.3592,-5.4363,-5.4399,-5.5207,-5.6785,-5.6763,-5.7203,-5.7997,-5.7997,-5.7997,-5.7997,-5.7997,-5.7997,-5.7997,-5.7997,-5.7997,-5.7997,-5.7997,-5.7997,-5.7997,-5.7997,-5.7522,-5.7206,0.0,0.0,0.0,0.0,0.0,0.0,0.0,0.0,0.0,0.0,0.0,0.0,0.0,0.0,0.0,0.0,0.0,0.0,-4.3515,-4.3515,-4.3515,-4.3515,-4.3515,-4.3515,-4.3515,-4.3515,-4.3515,-4.3515,-4.3515,-4.3515,-4.3515,-4.3515,-4.3515,-4.3515,-4.3515,-4.3515,-4.3515,-4.3515,-4.3515,-4.3515,-4.3515,-4.3515,-4.3515,0.0,0.0,0.0,0.0,0.0,0.0,0.0,0.0,0.0,-4.3515,-4.3515,-4.3515,-4.3515,-4.3515,-4.3515,-4.3515,-4.3515,-4.3515,-4.3515,-4.3515,-4.3515,-4.3515,-4.3938,-4.4745,-4.6122,-4.6782,-4.7333,-4.8159,-4.8306,-4.8857,-5.0545,-5.0802,-5.1353,-5.2947,-5.3203,-5.3203,-5.3203,-5.3203,-5.3203,-5.3203,-5.3203,-5.3203,-5.3203,-5.3203,-5.3203,-5.3203,-5.3203,-5.3203,-5.3203,-5.3203,-5.3314,-5.3555,-5.4106,-5.4913,-5.5941,-5.6017,-5.6733,-5.7997,-5.7997,-5.7997,-5.7973,-5.7449,-5.7498,-5.7973,-5.7449,-5.7252,-5.7252,-5.7252,-5.7252,-5.7252,-5.7252,-5.7091,-5.7082,0.0,0.0,0.0,0.0,0.0,0.0,0.0,0.0,0.0,0.0,-4.358,-4.3529,0.0,0.0,0.0,0.0,0.0,0.0,0.0,-4.3515,-4.3515,-4.3515,-4.3515,-4.3515,-4.3515,-4.3515,-4.3515,-4.3515,-4.3515,-4.3515,-4.3515,-4.3515,-4.3515,-4.3515,-4.3515,-4.3515,-4.3515,-4.3515,-4.3515,-4.3515,-4.3515,-4.3515,-4.3515,0.0,0.0,0.0,0.0,0.0,0.0,0.0,0.0,0.0,-4.3515,-4.3515,-4.3515,-4.3515,-4.3515,-4.3515,-4.3515,-4.3515,-4.3515,-4.3515,-4.3515,-4.3662,-4.4322,-4.4819,-4.5553,-4.6819,-4.7333,-4.77,-4.8233,-4.8306,-4.8857,-5.0545,-5.0802,-5.1353,-5.2947,-5.3203,-5.3203,-5.3203,-5.3203,-5.3203,-5.3203,-5.3203,-5.3203,-5.3203,-5.3203,-5.3203,-5.3203,-5.3203,-5.3203,-5.3203,-5.3203,-5.3203,-5.3203,-5.3702,-5.4326,-5.5133,-5.4882,-5.5583,-5.7109,-5.74,-5.7726,-5.7973,-5.7227,-5.6989,-5.7054,-5.658,-5.6421,-5.6421,-5.6421,-5.6421,-5.6421,-5.6421,-5.6232,-5.6146,0.0,0.0,-4.3515,-4.3515,0.0,0.0,0.0,0.0,0.0,0.0,-4.3758,-4.3644,0.0,0.0,0.0,0.0,0.0,0.0,0.0,0.0,-4.3515,-4.3515,-4.3515,-4.3515,-4.3515,-4.3515,-4.3515,-4.3515,-4.3515,-4.3515,-4.3515,-4.3515,-4.3515,-4.3515,-4.3515,-4.3515,-4.3515,-4.3515,-4.3515,-4.3515,-4.3515,-4.3515,-4.3515,-4.3515,0.0,0.0,0.0,0.0,0.0,0.0,0.0,0.0,-4.3515,-4.3515,-4.3515,-4.3515,-4.3515,-4.3515,-4.3515,-4.3515,-4.3515,-4.3515,-4.3515,-4.3901,-4.5516,-4.5883,-4.614,-4.7039,-4.7773,-4.8306,-4.8306,-4.8306,-4.882,-5.0435,-5.0765,-5.1353,-5.2894,-5.313,-5.3203,-5.3203,-5.3203,-5.3203,-5.3203,-5.3203,-5.3203,-5.3203,-5.3203,-5.3203,-5.3203,-5.3203,-5.3203,-5.3203,-5.3203,-5.3203,-5.3203,-5.3203,-5.3592,-5.4399,-5.3564,-5.4048,-5.5649,-5.6443,-5.718,-5.775,-5.7091,-5.634,-5.561,-5.561,-5.561,-5.561,-5.561,-5.561,-5.561,-5.561,-5.5173,-5.4799,0.0,0.0,-4.3515,-4.3515,0.0,0.0,0.0,0.0,0.0,0.0,0.0,0.0,0.0,0.0,0.0,0.0,0.0,0.0,0.0,0.0,-4.3515,-4.3515,-4.3515,-4.3515,-4.3515,-4.3515,-4.3515,-4.3515,-4.3515,-4.3515,-4.3515,-4.3515,-4.3515,-4.3515,-4.3515,-4.3515,-4.3515,-4.3515,-4.3515,-4.3515,-4.3515,-4.3515,-4.3515,-4.3515,-4.3515,0.0,0.0,0.0,0.0,0.0,0.0,0.0,-4.3515,-4.3515,-4.3515,-4.3515,-4.3515,-4.3515,-4.3515,-4.3515,-4.3515,-4.3515,-4.3515,-4.3901,-4.5516,-4.5883,-4.6324,-4.7755,-4.8196,-4.8306,-4.8306,-4.8306,-4.8636,-4.9684,-5.0398,-5.1132,-5.2123,-5.2821,-5.3203,-5.3203,-5.3203,-5.3203,-5.3203,-5.3203,-5.3203,-5.3203,-5.3203,-5.3203,-5.3203,-5.3203,-5.3203,-5.3203,-5.3203,-5.3203,-5.3203,-5.3203,-5.3592,-5.4378,-5.3059,-5.3284,-5.4844,-5.5663,-5.6083,-5.6196,-5.6031,-5.5524,-5.4848,-5.4848,-5.4848,-5.4848,-5.4848,-5.4848,-5.4848,-5.4848,-5.4726,-5.4637,0.0,0.0,0.0,0.0,0.0,0.0,0.0,0.0,0.0,0.0,0.0,0.0,0.0,0.0,0.0,0.0,0.0,0.0,0.0,0.0,-4.3515,-4.3515,-4.3515,-4.3515,-4.3515,-4.3515,-4.3515,-4.3515,-4.3515,-4.3515,-4.3515,-4.3515,-4.3515,-4.3515,-4.3515,-4.3515,-4.3515,-4.3515,-4.3515,-4.3515,-4.3515,-4.3515,-4.3515,-4.3515,-4.3515,-4.3515,-4.3515,0.0,0.0,0.0,0.0,0.0,0.0,0.0,-4.3515,-4.3515,-4.3515,-4.3515,-4.3515,-4.3515,-4.3515,-4.3515,-4.3515,-4.3845,-4.5039,-4.5626,-4.625,-4.748,-4.8049,-4.8306,-4.8306,-4.8306,-4.86,-4.9463,-4.9958,-5.0618,-5.183,-5.2344,-5.2784,-5.313,-5.3203,-5.3203,-5.3203,-5.3203,-5.3203,-5.3203,-5.3203,-5.3203,-5.3203,-5.3203,-5.3203,-5.3203,-5.3203,-5.3203,-5.3203,-5.3203,-5.3222,-5.3263,-5.2176,-5.2352,-5.3566,-5.4723,-5.5202,-5.5173,-5.5173,-5.4757,-5.4074,-5.4074,-5.4074,-5.4074,-5.4074,-5.4074,-5.4074,-5.4074,-5.4074,-5.4074,0.0,0.0,0.0,0.0,0.0,0.0,0.0,0.0,0.0,0.0,0.0,0.0,0.0,0.0,0.0,0.0,0.0,0.0,0.0,0.0,0.0,-4.3515,-4.3515,-4.3515,-4.3515,-4.3515,-4.3515,-4.3515,-4.3515,-4.3515,-4.3515,-4.3515,-4.3515,-4.3515,-4.3515,-4.3515,-4.3515,-4.3515,-4.3515,-4.3515,-4.3515,-4.3515,-4.3515,-4.3515,-4.3515,-4.3515,-4.3515,-4.3515,-4.3515,-4.3515,0.0,0.0,0.0,0.0,-4.3515,-4.3515,-4.3515,-4.3515,-4.3515,-4.3515,-4.3515,-4.3515,-4.3515,-4.3718,-4.4525,-4.5223,-4.5957,-4.6892,-4.7736,-4.8306,-4.8306,-4.8306,-4.8526,-4.928,-4.95,-5.0051,-5.141,-5.1683,-5.2087,-5.2894,-5.3004,-5.3078,-5.3188,-5.3203,-5.3203,-5.3203,-5.3203,-5.3203,-5.3203,-5.3203,-5.3203,-5.3203,-5.3082,-5.3082,-5.3203,-5.2937,-5.2576,-5.2089,-5.1292,-5.1262,-5.2062,-5.3404,-5.4244,-5.4606,-5.4451,-5.4042,-5.3518,-5.3518,-5.3518,-5.3518,-5.3518,-5.3518,-5.3518,-5.3518,-5.3518,-5.3518,0.0,0.0,0.0,0.0,0.0,0.0,0.0,0.0,0.0,0.0,-4.4204,-4.3974,0.0,0.0,0.0,0.0,0.0,0.0,0.0,0.0,0.0,-4.3515,-4.3515,-4.3515,-4.3515,-4.3515,-4.3515,-4.3515,-4.3515,-4.3515,-4.3515,-4.3515,-4.3515,-4.3515,-4.3515,-4.3515,-4.3515,-4.3515,-4.3515,-4.3515,-4.3515,-4.3515,-4.3515,-4.3515,-4.3515,-4.3515,-4.3515,-4.3515,-4.3515,-4.3515,-4.3515,0.0,0.0,0.0,-4.3515,-4.3515,-4.3515,-4.3515,-4.3515,-4.3515,-4.3515,-4.3515,-4.3515,-4.3718,-4.4525,-4.4764,-4.5296,-4.6782,-4.7736,-4.8306,-4.8306,-4.8306,-4.8343,-4.8453,-4.9114,-4.9684,-4.9904,-5.0508,-5.1242,-5.205,-5.216,-5.2417,-5.3151,-5.3203,-5.3203,-5.3203,-5.3203,-5.3203,-5.3203,-5.3203,-5.3203,-5.3203,-5.2576,-5.2554,-5.3167,-5.2006,-5.1618,-5.2089,-5.0796,-5.0257,-5.0425,-5.1267,-5.2735,-5.4575,-5.3913,-5.3584,-5.3518,-5.3518,-5.3518,-5.3518,-5.3518,-5.3518,-5.3518,-5.3518,-5.3518,-5.3518,0.0,0.0,0.0,0.0,0.0,0.0,0.0,0.0,0.0,0.0,0.0,-4.3726,0.0,0.0,0.0,0.0,0.0,0.0,0.0,0.0,0.0,-4.3515,-4.3515,-4.3515,-4.3515,-4.3515,-4.3515,-4.3515,-4.3515,-4.3515,-4.3515,-4.3515,-4.3515,-4.3515,-4.3515,-4.3515,-4.3515,-4.3515,-4.3515,-4.3515,-4.3515,-4.3515,-4.3515,-4.3515,-4.3515,-4.3515,-4.3515,-4.3515,-4.3515,-4.3515,-4.3515,-4.3515,-4.3515,0.0,0.0,0.0,-4.3515,-4.3515,-4.3515,-4.3515,-4.3515,-4.3515,-4.3515,-4.3571,-4.3938,-4.4378,-4.4911,-4.5608,-4.6746,-4.7773,-4.8233,-4.8306,-4.8306,-4.8306,-4.8636,-4.904,-4.9481,-4.9884,-5.0435,-5.1242,-5.1316,-5.1646,-5.2454,-5.2527,-5.2711,-5.3167,-5.3203,-5.3203,-5.3203,-5.3203,-5.3203,-5.3203,-5.2472,-5.2266,-5.2576,-5.1604,-5.1034,-5.0894,-4.989,-4.9661,-5.0101,-5.0439,-5.1577,-5.3295,-5.3448,-5.3518,-5.3518,-5.3518,-5.3518,-5.3518,-5.3518,-5.3518,-5.3518,-5.3518,-5.3518,-5.3518,0.0,0.0,0.0,0.0,0.0,0.0,0.0,0.0,0.0,0.0,0.0,0.0,0.0,0.0,0.0,0.0,0.0,0.0,0.0,0.0,0.0,0.0,0.0,-4.3515,-4.3515,-4.3515,-4.3515,-4.3515,-4.3515,-4.3515,-4.3515,-4.3515,-4.3515,-4.3515,-4.3515,-4.3515,-4.3515,-4.3515,-4.3515,-4.3515,-4.3515,-4.3515,-4.3515,-4.3515,-4.3515,-4.3515,-4.3515,-4.3515,-4.3515,-4.3515,-4.3515,-4.3515,-4.3515,-4.3515,0.0,0.0,0.0,-4.3515,-4.3515,-4.3515,-4.3515,-4.3515,-4.3515,-4.3515,-4.3515,-4.3975,-4.4452,-4.4672,-4.5645,-4.6782,-4.7829,-4.8159,-4.8306,-4.8306,-4.8306,-4.8526,-4.9114,-4.9224,-4.9554,-5.0398,-5.0508,-5.0802,-5.161,-5.1867,-5.2234,-5.2858,-5.3078,-5.3124,-5.2937,-5.3103,-5.3039,-5.268,-5.2112,-5.1874,-5.1874,-5.1164,-5.0445,-4.9751,-4.9226,-4.9289,-4.983,-4.9999,-5.0811,-5.2063,-5.2841,-5.3315,-5.3518,-5.3518,-5.3518,-5.3518,-5.3518,-5.3518,-5.3518,-5.3518,-5.3518,-5.3518,0.0,0.0,0.0,0.0,0.0,0.0,0.0,0.0,0.0,0.0,0.0,0.0,-4.3515,-4.3515,-4.3515,-4.3515,-4.3515,0.0,0.0,0.0,0.0,0.0,0.0,0.0,-4.3515,-4.3515,-4.3515,-4.3515,-4.3515,-4.3515,-4.3515,-4.3515,-4.3515,-4.3515,-4.3515,-4.3515,-4.3515,-4.3515,-4.3515,-4.3515,-4.3515,-4.3515,-4.3515,-4.3515,-4.3515,-4.3515,-4.3515,-4.3515,-4.3515,-4.3515,-4.3515,-4.3515,-4.3515,-4.3515,-4.3515,0.0,0.0,0.0,-4.3515,-4.3515,-4.3515,-4.3515,-4.3515,-4.3515,-4.3515,-4.3551,-4.3791,-4.4562,-4.4782,-4.5278,-4.6856,-4.7773,-4.8306,-4.8306,-4.8306,-4.8306,-4.8379,-4.8379,-4.8673,-4.9574,-4.9647,-4.9978,-5.0765,-5.1536,-5.2013,-5.205,-5.2784,-5.2893,-5.2183,-5.2813,-5.2613,-5.1241,-5.1164,-5.1138,-5.1138,-5.0417,-4.9722,-4.9046,-4.9049,-4.9018,-4.9086,-4.9763,-5.0507,-5.1319,-5.2063,-5.2807,-5.3518,-5.3518,-5.3518,-5.3518,-5.3518,-5.3518,-5.3518,-5.3518,-5.3518,-5.3518,0.0,0.0,0.0,0.0,0.0,0.0,0.0,0.0,0.0,0.0,0.0,0.0,0.0,-4.3515,-4.3515,-4.3515,-4.3515,0.0,0.0,0.0,0.0,0.0,0.0,0.0,-4.3515,-4.3515,-4.3515,-4.3515,-4.3515,-4.3515,-4.3515,-4.3515,-4.3515,-4.3515,-4.3515,-4.3515,-4.3515,-4.3515,-4.3515,-4.3515,-4.3515,-4.3515,-4.3515,-4.3515,-4.3515,-4.3515,-4.3515,-4.3515,-4.3515,-4.3515,-4.3515,-4.3515,-4.3515,-4.3515,-4.3515,-4.3515,-4.3515,-4.3515,-4.3515,-4.3515,-4.3515,-4.3515,-4.3515,-4.3515,-4.3515,-4.3515,-4.3588,-4.3864,-4.4342,-4.4874,-4.5461,-4.6636,-4.77,-4.8233,-4.8306,-4.8306,-4.8306,-4.8306,-4.8416,-4.871,-4.8783,-4.9114,-4.9958,-5.0308,-5.0896,-5.1903,-5.227,-5.2346,-5.21,-5.2358,-5.2065,-5.1138,-5.0635,-5.0202,-4.9751,-4.9492,-4.9226,-4.9018,-4.9018,-4.9018,-4.9018,-4.9255,-4.9796,-5.0541,-5.1285,-5.2334,-5.3518,-5.3518,-5.3518,-5.3518,-5.3518,-5.3518,-5.3518,-5.3518,-5.3518,-5.3518,0.0,0.0,0.0,0.0,0.0,0.0,0.0,0.0,0.0,-4.3515,0.0,0.0,0.0,0.0,-4.3515,-4.3515,-4.3515,-4.3515,-4.3515,-4.3515,0.0,0.0,0.0,0.0,-4.3515,-4.3515,-4.3515,-4.3515,-4.3515,-4.3515,-4.3515,-4.3515,-4.3515,-4.3515,-4.3515,-4.3515,-4.3515,-4.3515,-4.3515,-4.3515,-4.3515,-4.3515,-4.3515,-4.3515,-4.3515,-4.3515,-4.3515,-4.3515,-4.3515,-4.3515,-4.3515,-4.3515,-4.3515,-4.3515,-4.3515,-4.3515,-4.3515,-4.3515,-4.3515,-4.3515,-4.3515,-4.3515,-4.3515,-4.3515,-4.3515,-4.3515,-4.3515,-4.3515,-4.3938,-4.4378,-4.4654,-4.5572,-4.6636,-4.77,-4.7883,-4.7993,-4.8269,-4.8306,-4.8306,-4.8306,-4.8306,-4.8449,-4.8802,-4.9328,-4.9935,-5.0811,-5.1323,-5.1529,-5.1359,-5.1562,-5.1381,-5.077,-5.0033,-4.9432,-4.8984,-4.9018,-4.9018,-4.9018,-4.9018,-4.9018,-4.9018,-4.9018,-4.939,-5.0135,-5.0879,-5.1928,-5.3112,-5.3382,-5.3518,-5.3518,-5.3518,-5.3518,-5.3518,-5.3518,-5.3518,-5.3518,0.0,0.0,0.0,0.0,0.0,0.0,0.0,0.0,-4.3515,-4.3515,0.0,0.0,0.0,0.0,0.0,-4.3515,-4.3515,-4.3515,-4.3515,-4.3515,0.0,0.0,0.0,0.0,-4.3515,-4.3515,-4.3515,-4.3515,-4.3515,-4.3515,-4.3515,-4.3515,-4.3515,-4.3515,-4.3515,-4.3515,-4.3515,-4.3515,-4.3515,-4.3515,-4.3515,-4.3515,-4.3515,-4.3515,-4.3515,-4.3515,-4.3515,-4.3515,-4.3515,-4.3515,-4.3515,-4.3515,-4.3515,-4.3515,-4.3515,-4.3515,-4.3515,-4.3515,0.0,0.0,0.0,-4.3515,-4.3515,-4.3515,-4.3515,-4.3515,-4.3515,-4.3515,-4.3515,-4.3718,-4.4525,-4.4654,-4.5168,-4.6782,-4.7039,-4.7333,-4.8159,-4.8269,-4.8269,-4.8306,-4.8306,-4.8055,-4.7449,-4.8685,-4.9261,-4.8598,-4.9904,-5.0439,-4.9882,-5.0462,-5.0574,-4.997,-4.9346,-4.9018,-4.9018,-4.9018,-4.9018,-4.9018,-4.9018,-4.9018,-4.9018,-4.9018,-4.939,-5.0101,-5.0879,-5.1623,-5.2334,-5.3179,-5.3518,-5.3518,-5.3518,-5.3518,-5.3518,-5.3518,-5.3518,-5.3518,0.0,0.0,0.0,0.0,0.0,0.0,-4.3515,-4.3515,-4.3515,0.0,0.0,0.0,-4.3515,-4.3515,-4.3515,-4.3515,-4.3515,-4.3515,-4.3515,-4.3515,-4.3515,-4.3515,-4.3515,-4.3515,-4.3515,-4.3515,-4.3515,-4.3515,-4.3515,-4.3515,-4.3515,-4.3515,-4.3515,-4.3515,-4.3515,-4.3515,-4.3515,-4.3515,-4.3515,-4.3515,-4.3515,-4.3515,-4.3515,-4.3515,-4.3515,-4.3515,-4.3515,-4.3515,-4.3515,-4.3515,-4.3515,-4.3515,-4.3515,-4.3515,-4.3515,-4.3515,-4.3515,-4.3515,-4.3515,0.0,0.0,0.0,0.0,0.0,-4.3515,-4.3515,-4.3515,-4.3515,-4.3515,-4.3588,-4.3791,-4.3828,-4.4158,-4.5205,-4.5847,-4.6507,-4.7333,-4.7443,-4.7626,-4.8233,-4.8306,-4.8055,-4.7449,-4.7772,-4.7984,-4.7973,-4.834,-4.8508,-4.8399,-4.8585,-4.8908,-4.9252,-4.9107,-4.9018,-4.9018,-4.9018,-4.9018,-4.9018,-4.9018,-4.9018,-4.9018,-4.9018,-4.912,-4.939,-5.0676,-5.1319,-5.1623,-5.2942,-5.3518,-5.3518,-5.3518,-5.3518,-5.3518,-5.3518,-5.3518,-5.3518,0.0,0.0,-4.3515,-4.3515,0.0,-4.3515,-4.3515,-4.3515,-4.3515,0.0,0.0,0.0,-4.3515,-4.3515,-4.3515,-4.3515,-4.3515,-4.3515,-4.3515,-4.3515,-4.3515,-4.3515,-4.3515,-4.3515,-4.3515,-4.3515,-4.3515,-4.3515,-4.3515,-4.3515,-4.3515,-4.3515,-4.3515,-4.3515,-4.3515,-4.3515,-4.3515,-4.3515,-4.3515,-4.3515,-4.3515,-4.3356,-4.3196,-4.3391,-4.3356,-4.3196,-4.3445,-4.3515,-4.3515,-4.3515,-4.3515,-4.3515,-4.3515,-4.3515,-4.3515,-4.3515,-4.3515,-4.3515,-4.3515,-4.3515,-4.3515,-4.3515,0.0,0.0,-4.3214,-4.3178,-4.3178,-4.3178,-4.3178,-4.3232,-4.3463,-4.3515,-4.3662,-4.4121,-4.4599,-4.5296,-4.6434,-4.6892,-4.7259,-4.7736,-4.8122,-4.7939,-4.7066,-4.7255,-4.7237,-4.6804,-4.7036,-4.7206,-4.728,-4.767,-4.8075,-4.8545,-4.8849,-4.9018,-4.9018,-4.9018,-4.9018,-4.9018,-4.9018,-4.9018,-4.9018,-4.9018,-4.9018,-4.9086,-5.0236,-5.0913,-5.1286,-5.2503,-5.3213,-5.3518,-5.3518,-5.3518,-5.3518,-5.3518,-5.3518,-5.3518,0.0,0.0,-4.3515,-4.3515,-4.3515,-4.3515,-4.3515,-4.3515,-4.3515,0.0,-4.3515,-4.3515,-4.3515,-4.3515,-4.3515,-4.3515,-4.3515,-4.3515,-4.3515,-4.3515,-4.3515,-4.3515,-4.3515,-4.3515,-4.3515,-4.3515,-4.3515,-4.3515,-4.3515,-4.3515,-4.3515,-4.3515,-4.3515,-4.3515,-4.3515,-4.3515,-4.3515,-4.3515,-4.3515,-4.3515,-4.3515,-4.3214,-4.2827,-4.3303,-4.3214,-4.2827,-4.325,-4.3391,-4.3391,-4.3391,-4.3463,-4.3497,-4.3445,-4.3463,-4.3497,-4.3339,-4.3356,-4.3391,-4.3391,-4.3391,-4.3445,-4.3497,-4.3515,0.0,-4.2808,-4.2732,-4.2751,-4.2693,-4.2732,-4.2921,-4.3391,-4.3515,-4.3515,-4.3515,-4.3463,-4.3941,-4.548,-4.636,-4.6837,-4.6873,-4.7571,-4.7543,-4.6365,-4.6789,-4.6667,-4.5494,-4.589,-4.628,-4.6496,-4.7237,-4.7703,-4.7872,-4.8545,-4.8917,-4.9018,-4.9018,-4.9018,-4.9018,-4.9018,-4.9018,-4.9018,-4.9018,-4.9018,-4.9052,-4.9763,-5.0507,-5.1285,-5.1995,-5.2773,-5.3518,-5.3518,-5.3518,-5.3518,-5.3518,-5.3518,-5.3518,-4.3515,-4.3515,-4.3515,-4.3515,-4.3515,-4.3515,-4.3515,-4.3515,-4.3515,-4.3515,-4.3515,-4.3515,-4.3515,-4.3515,-4.3515,-4.3515,-4.3515,-4.3515,-4.3515,-4.3515,-4.3515,-4.3515,-4.3515,-4.3515,-4.3515,-4.3515,-4.3515,-4.3515,-4.3515,-4.3515,-4.3515,-4.3515,-4.3515,-4.3515,-4.3515,-4.3515,-4.3515,-4.3515,-4.3515,-4.3515,-4.3515,-4.3445,-4.3339,-4.348,-4.3445,-4.3303,-4.2958,-4.2882,-4.2882,-4.2882,-4.3142,-4.3409,-4.3013,-4.316,-4.3321,-4.2386,-4.2482,-4.2882,-4.2882,-4.2882,-4.2976,-4.3374,-4.3515,0.0,-4.2808,-4.305,-4.3214,-4.277,-4.305,-4.3356,-4.3497,-4.3515,-4.3515,-4.3515,-4.3142,-4.3172,-4.4133,-4.4802,-4.526,-4.5461,-4.6026,-4.6124,-4.5491,-4.5561,-4.5396,-4.4818,-4.4879,-4.522,-4.583,-4.606,-4.6655,-4.7838,-4.8041,-4.8409,-4.8984,-4.9018,-4.9018,-4.9018,-4.9018,-4.9018,-4.9018,-4.9018,-4.9018,-4.9052,-4.9763,-5.0507,-5.1285,-5.1995,-5.2773,-5.3518,-5.3518,-5.3518,-5.3518,-5.3518,-5.3518,-5.3518,-4.3515,-4.3515,-4.3515,-4.3515,-4.3515,-4.3515,-4.3515,-4.3515,-4.3515,-4.3515,-4.3515,-4.3515,-4.3515,-4.3515,-4.3515,-4.3515,-4.3515,-4.3515,-4.3515,-4.3515,-4.3515,-4.3515,-4.3515,-4.3515,-4.3515,-4.3515,-4.3515,-4.3515,-4.3515,-4.3515,-4.3515,-4.3515,-4.3515,-4.3515,-4.3515,-4.3515,-4.3515,-4.3515,-4.3515,-4.3515,-4.3515,-4.3321,-4.3142,-4.3374,-4.3142,-4.2657,-4.2693,-4.2518,-4.2302,-4.2596,-4.2901,-4.3069,-4.277,-4.2865,-4.2921,-4.2062,-4.2,-4.2262,-4.2262,-4.2262,-4.2322,-4.2599,-4.2657,0.0,0.0,-4.2246,-4.258,-4.2322,-4.2676,-4.3178,-4.3463,-4.3515,-4.3515,-4.3515,-4.3069,-4.274,-4.2859,-4.342,-4.3897,-4.4047,-4.4907,-4.5285,-4.4711,-4.4986,-4.5026,-4.4625,-4.4615,-4.4784,-4.5128,-4.55,-4.6041,-4.6786,-4.753,-4.8075,-4.8477,-4.8815,-4.9018,-4.9018,-4.9018,-4.9018,-4.9018,-4.9018,-4.9018,-4.9018,-4.939,-4.9965,-5.071,-5.1454,-5.2232,-5.2942,-5.3348,-5.3518,-5.3518,-5.3518,-5.3518,-5.3518,-4.3551,-4.3515,-4.3515,-4.3515,-4.3515,-4.3515,-4.3515,-4.3515,-4.3551,-4.3718,-4.3625,-4.3551,-4.3718,-4.3571,-4.3515,-4.3515,-4.3515,-4.3515,-4.3515,-4.3515,-4.3515,-4.3515,-4.3515,-4.3515,-4.3515,-4.3515,-4.3515,-4.3515,-4.3515,-4.3515,-4.3515,-4.3515,-4.3515,-4.3515,-4.3515,-4.3515,-4.3515,-4.3515,-4.3515,-4.3515,-4.3515,-4.3232,-4.2865,-4.3214,-4.2772,-4.2,-4.2262,-4.2041,-4.1725,-4.2322,-4.2537,-4.2537,-4.2537,-4.2537,-4.2382,-4.1682,-4.1552,-4.1639,-4.1639,-4.1725,-4.181,-4.181,-4.1895,-4.1832,0.0,0.0,0.0,-4.1979,-4.2442,-4.2995,-4.3445,-4.3428,-4.3356,-4.3497,-4.2865,-4.2241,-4.1853,-4.2168,-4.2533,-4.2753,-4.3769,-4.4319,-4.3886,-4.446,-4.4719,-4.4393,-4.4513,-4.4615,-4.4615,-4.5162,-4.5568,-4.5703,-4.6989,-4.7736,-4.7906,-4.8646,-4.9018,-4.9018,-4.9018,-4.9018,-4.9018,-4.9018,-4.9018,-4.9018,-4.9018,-4.9424,-5.0135,-5.0913,-5.1657,-5.2367,-5.3179,-5.3518,-5.3518,-5.3518,-5.3518,-5.3518,-4.3644,-4.3515,-4.3515,-4.3515,-4.3515,-4.3515,-4.3515,-4.3515,-4.3754,-4.4488,-4.3938,-4.3754,-4.4488,-4.3938,-4.3515,-4.3515,-4.3515,-4.3515,-4.3515,-4.3515,-4.3515,-4.3515,-4.3515,-4.3515,-4.3515,-4.3515,-4.3515,-4.3515,-4.3515,-4.3515,-4.3515,-4.3515,-4.3515,-4.3515,-4.3515,-4.3515,-4.3515,-4.3515,-4.3515,-4.3515,-4.3515,-4.348,-4.3356,-4.2957,-4.2713,-4.2478,-4.1543,-4.1116,-4.107,-4.1703,-4.1895,-4.1895,-4.1895,-4.1895,-4.1703,-4.0635,-4.0625,-4.0978,-4.0978,-4.1385,-4.181,-4.181,-4.2221,-4.2422,-4.1832,0.0,-4.2596,-4.2596,0.0,-4.3445,-4.3497,0.0,0.0,-4.3409,-4.2149,-4.1251,-4.1746,-4.1024,-4.081,-4.1845,-4.2087,-4.2406,-4.2992,-4.3395,-4.36,-4.3538,-4.4181,-4.4615,-4.4615,-4.4682,-4.5026,-4.5703,-4.6481,-4.7259,-4.7872,-4.8646,-4.9018,-4.9018,-4.9018,-4.9018,-4.9018,-4.9018,-4.9018,-4.9018,-4.9018,-4.9424,-5.0135,-5.0913,-5.1657,-5.2367,-5.3179,-5.3518,-5.3518,-5.3518,-5.3518,-5.3518,-4.3644,-4.3515,-4.3515,-4.3515,-4.3515,-4.3515,-4.3515,-4.3901,-4.4305,-4.4672,-4.4819,-4.5002,-4.5369,-4.5076,-4.4709,-4.4232,-4.4195,-4.4195,-4.4195,-4.3754,-4.3718,-4.4195,-4.3754,-4.3515,-4.3515,-4.3515,-4.3515,-4.3515,-4.3515,-4.3515,-4.3515,-4.3515,-4.3515,-4.3515,-4.3515,-4.3515,-4.3515,-4.3515,-4.3515,-4.3515,-4.3515,-4.3515,-4.3463,-4.2884,-4.2282,-4.1617,-4.1105,-4.072,-4.0577,-4.1508,-4.1573,-4.1273,-4.1273,-4.1273,-4.1127,-4.0353,-4.0279,-4.0441,-4.0441,-4.0601,-4.0814,-4.0814,-4.1001,-4.1139,-4.0885,-4.153,-4.22,-4.22,0.0,0.0,0.0,0.0,0.0,0.0,-4.1603,-4.0978,-4.1228,-4.0577,-4.0392,-4.1161,-4.1595,-4.2072,-4.2829,-4.2749,-4.2851,-4.3335,-4.3707,-4.4113,-4.4581,-4.4615,-4.475,-4.5026,-4.5771,-4.6515,-4.7259,-4.8003,-4.8578,-4.9018,-4.9018,-4.9018,-4.9018,-4.9018,-4.9018,-4.9018,-4.9018,-4.9187,-4.9526,-5.027,-5.1014,-5.1758,-5.2503,-5.3078,-5.3518,-5.3518,-5.3518,-5.3518,-4.4011,-4.3662,-4.3515,-4.3515,-4.3515,-4.3515,-4.3515,-4.4195,-4.4764,-4.5002,-4.5553,-4.5993,-4.6214,-4.603,-4.5663,-4.5076,-4.5039,-4.4966,-4.4709,-4.4342,-4.4232,-4.4378,-4.4011,-4.3718,-4.3515,-4.3515,-4.3515,-4.3515,-4.3515,-4.3515,-4.3515,-4.3515,-4.3515,-4.3515,-4.3515,-4.3515,-4.3515,-4.3515,-4.3515,-4.3515,-4.3515,-4.3391,-4.3232,-4.2827,-4.2041,-4.1115,-4.0955,-4.0672,-4.0441,-4.1286,-4.1173,-4.0685,-4.0874,-4.0803,-4.0601,-4.0204,-4.0113,-4.0113,-4.0113,-4.0204,-4.0303,-4.0163,-4.0204,-4.0294,-4.0294,-4.0943,-4.1617,-4.1768,-4.216,0.0,0.0,0.0,-4.1617,-4.1789,0.0,-4.0733,-4.0897,-4.0441,-4.0294,-4.085,-4.1273,-4.1719,-4.21,-4.1936,-4.2192,-4.3058,-4.3274,-4.3775,-4.4581,-4.4615,-4.4615,-4.4615,-4.5331,-4.6041,-4.6786,-4.753,-4.8274,-4.9018,-4.9018,-4.9018,-4.9018,-4.9018,-4.9018,-4.9018,-4.9018,-4.9018,-4.9052,-4.9796,-5.0541,-5.1252,-5.2029,-5.2807,-5.3518,-5.3518,-5.3518,-5.3518,-4.4948,-4.4011,-4.3515,-4.3515,-4.3515,-4.3515,-4.3515,-4.4195,-4.5002,-4.5773,-4.5883,-4.6214,-4.6966,-4.6361,-4.5883,-4.5847,-4.5847,-4.5516,-4.4728,-4.5406,-4.5149,-4.3625,-4.4268,-4.4305,-4.3515,-4.3515,-4.3515,-4.3515,-4.3515,-4.3515,-4.3515,-4.3515,-4.3515,-4.3515,-4.3515,-4.3515,-4.3515,-4.3515,-4.3515,-4.3515,-4.3515,-4.3196,-4.2713,-4.2693,-4.2322,-4.1703,-4.1093,-4.0897,-4.0897,-4.0943,-4.0577,-4.0229,-4.0733,-4.0528,-4.0138,-4.0113,-4.0113,-4.0113,-4.0113,-4.049,-4.0733,-4.0229,-4.048,-4.0897,-4.0897,-4.092,-4.107,-4.1703,-4.1832,-4.1832,-4.1832,-4.1318,-4.1115,-4.1725,-4.0861,0.0,0.0,-4.0441,-4.0294,-4.085,-4.0943,-4.0744,-4.0238,-4.0815,-4.1534,-4.2286,-4.2997,-4.3775,-4.4581,-4.4615,-4.4615,-4.4615,-4.5331,-4.6041,-4.6786,-4.753,-4.8274,-4.9018,-4.9018,-4.9018,-4.9018,-4.9018,-4.9018,-4.9018,-4.9018,-4.9018,-4.9052,-4.9796,-5.0541,-5.1252,-5.2029,-5.2807,-5.3518,-5.3518,-5.3518,-5.3518,-4.6415,-4.5223,-4.4121,-4.3571,-4.3515,-4.3698,-4.4195,-4.4966,-4.5773,-4.6599,-4.7168,-4.7609,-4.7846,-4.7645,-4.7278,-4.6746,-4.6672,-4.6562,-4.6305,-4.603,-4.5663,-4.5112,-4.4856,-4.4305,-4.3515,-4.3515,-4.3515,-4.3515,-4.3515,-4.3515,-4.3515,-4.3515,-4.3515,-4.3515,-4.3515,-4.3515,-4.3515,-4.3515,-4.3515,-4.3515,-4.3515,-4.3178,-4.2655,-4.2262,-4.1746,-4.1228,-4.1442,-4.1013,-4.0441,-4.078,-4.0528,-4.0104,-4.0294,-4.0254,-4.0113,-4.0113,-4.0113,-4.0113,-4.0113,-4.0229,-4.0319,-4.0163,-4.0254,-4.0368,-4.0368,-4.0672,-4.0955,-4.1138,-4.1183,-4.1183,-4.1183,-4.0767,-4.0441,-4.0625,-4.0353,-4.0154,0.0,-4.0204,-4.0154,-4.0343,-4.0662,-4.0827,-4.0672,-4.0984,-4.1508,-4.2219,-4.2997,-4.3775,-4.4581,-4.4615,-4.4615,-4.4615,-4.4852,-4.5331,-4.6075,-4.6786,-4.753,-4.8277,-4.8781,-4.9018,-4.9018,-4.9018,-4.9018,-4.9018,-4.9018,-4.9018,-4.9018,-4.9255,-4.9796,-5.0541,-5.1285,-5.2063,-5.2773,-5.3315,-5.3518,-5.3518,-4.7149,-4.6269,-4.5223,-4.4121,-4.3938,-4.4195,-4.5002,-4.581,-4.6489,-4.7039,-4.7773,-4.8306,-4.8306,-4.8306,-4.8086,-4.7553,-4.7516,-4.7406,-4.7113,-4.6874,-4.6361,-4.5516,-4.5259,-4.4635,-4.3515,-4.3515,-4.3515,-4.3515,-4.3515,-4.3515,-4.3515,-4.3515,-4.3515,-4.3515,-4.3515,-4.3515,-4.3515,-4.3515,-4.3515,-4.3515,-4.3515,-4.3178,-4.2655,-4.2282,-4.1746,-4.1228,-4.1442,-4.1013,-4.0417,-4.0552,-4.0392,-4.0113,-4.0113,-4.0113,-4.0113,-4.0113,-4.0113,-4.0113,-4.0113,-4.0113,-4.0113,-4.0113,-4.0113,-4.0113,-4.0113,-4.0368,-4.0625,-4.0625,-4.0625,-4.0625,-4.0625,-4.0319,-4.0113,-4.0113,-4.0113,-4.0113,0.0,-4.0113,-4.0113,-4.0113,-4.0417,-4.0625,-4.0625,-4.0712,-4.1204,-4.2219,-4.2726,-4.347,-4.4547,-4.4615,-4.4615,-4.4615,-4.4615,-4.4925,-4.5703,-4.6177,-4.6921,-4.7906,-4.8376,-4.8748,-4.9018,-4.9018,-4.9018,-4.9018,-4.9018,-4.9018,-4.9018,-4.9018,-4.9424,-5.0168,-5.0913,-5.1657,-5.2401,-5.3213,-5.3518,-5.3518,-4.7296,-4.7113,-4.6636,-4.5095,-4.4764,-4.5039,-4.5847,-4.6599,-4.7113,-4.7149,-4.781,-4.8306,-4.8306,-4.8306,-4.8306,-4.8306,-4.8306,-4.7976,-4.7223,-4.7883,-4.7278,-4.4911,-4.5516,-4.5149,-4.3571,-4.3515,-4.3515,-4.3515,-4.3515,-4.3515,0.0,0.0,0.0,-4.3515,-4.3515,-4.3515,-4.3515,-4.3515,-4.3515,-4.3515,-4.3515,-4.316,-4.2655,-4.2655,-4.2262,-4.166,-4.1127,-4.0897,-4.078,-4.0279,-4.0113,-4.0113,-4.0113,-4.0113,-4.0113,-4.0113,-4.0113,-4.0113,-4.0113,-4.0113,-4.0113,-4.0113,-4.0113,-4.0113,-4.0113,-4.0113,-4.0113,-4.0113,-4.0113,-4.0113,-4.0113,-4.0113,-4.0113,-4.0113,-4.0113,-4.0113,-4.0113,-4.0113,-4.0113,-4.0113,-4.0113,-4.0113,-4.0113,-4.018,-4.079,-4.2185,-4.2354,-4.3031,-4.4513,-4.4615,-4.4615,-4.4615,-4.4615,-4.4953,-4.5635,-4.5703,-4.6447,-4.7838,-4.7872,-4.8308,-4.9018,-4.9018,-4.9018,-4.9018,-4.9018,-4.9018,-4.9018,-4.9018,-4.9424,-5.0101,-5.0879,-5.1623,-5.2401,-5.3213,-5.3518,-5.3518,-4.8049,-4.7516,-4.6966,-4.6562,-4.5993,-4.5847,-4.6672,-4.6966,-4.7296,-4.7883,-4.8196,-4.8306,-4.8306,-4.8306,-4.8306,-4.8306,-4.8306,-4.8233,-4.8012,-4.8196,-4.7755,-4.6526,-4.6104,-4.5443,-4.4415,-4.3791,-4.3515,-4.3515,-4.3515,-4.3515,-4.3515,0.0,0.0,0.0,-4.3515,-4.3515,-4.3515,-4.3515,-4.3515,-4.3515,-4.3515,-4.2921,-4.2021,-4.2021,-4.1397,-4.0587,-4.0803,-4.0648,-4.0303,-4.0163,-4.0113,-4.0113,-4.0113,-4.0113,-4.0113,-4.0113,-4.0113,-4.0113,-4.0113,-4.0113,-4.0113,-4.0113,-4.0113,-4.0113,-4.0113,-4.0113,-4.0113,-4.0113,-4.0113,-4.0113,-4.0113,-4.0113,-4.0113,-4.0113,-4.0113,-4.0113,-4.0113,-4.0113,-4.0113,-4.0113,-4.0113,-4.0113,-4.0113,-4.1094,-4.188,-4.2252,-4.3362,-4.4175,-4.4581,-4.4615,-4.4615,-4.4615,-4.4615,-4.4716,-4.4857,-4.5432,-4.6177,-4.709,-4.7665,-4.8308,-4.9018,-4.9018,-4.9018,-4.9018,-4.9018,-4.9018,-4.9018,-4.9018,-4.912,-4.9357,-5.0101,-5.1183,-5.2401,-5.3213,-5.3518,-5.3518,-4.8306,-4.792,-4.7626,-4.7626,-4.7241,-4.7095,-4.7553,-4.7626,-4.7773,-4.8233,-4.8306,-4.8306,-4.8306,-4.8306,-4.8306,-4.8306,-4.8306,-4.8306,-4.8306,-4.8306,-4.792,-4.7149,-4.6672,-4.5883,-4.4728,-4.4268,-4.3864,-4.3515,-4.3515,-4.3515,-4.3515,0.0,0.0,0.0,-4.3515,-4.3515,-4.3515,-4.3515,-4.3515,-4.3515,-4.3515,-4.281,0.0,-4.181,-4.1082,-4.0129,-4.0441,-4.0343,-4.0113,-4.0113,-4.0113,-4.0113,-4.0113,-4.0113,-4.0113,-4.0113,-4.0113,-4.0113,-4.0113,-4.0113,-4.0113,-4.0113,-4.0113,-4.0113,-4.0113,-4.0113,-4.0113,-4.0113,-4.0113,-4.0113,-4.0113,-4.0113,-4.0113,-4.0113,-4.0113,-4.0113,-4.0113,-4.0113,-4.0113,-4.0113,-4.0113,-4.0113,-4.0113,-4.1136,-4.1948,-4.2286,-4.3403,-4.4215,-4.4581,-4.4615,-4.4615,-4.4615,-4.4615,-4.4615,-4.4615,-4.4993,-4.5602,-4.6312,-4.7056,-4.78,-4.8545,-4.8849,-4.9018,-4.9018,-4.9018,-4.9018,-4.9018,-4.9018,-4.9018,-4.912,-5.0168,-5.1285,-5.2401,-5.3213,-5.3518,-5.3518,-4.8306,-4.8306,-4.8306,-4.8306,-4.8306,-4.8306,-4.8306,-4.8306,-4.8306,-4.8306,-4.8306,-4.8306,-4.8306,-4.8306,-4.8306,-4.8306,-4.8306,-4.8306,-4.8306,-4.8306,-4.7993,-4.7296,-4.7149,-4.6452,-4.5021,-4.4801,-4.4378,-4.3644,-4.3551,-4.3515,-4.3515,0.0,0.0,-4.3515,-4.3515,-4.3515,-4.3515,-4.3515,-4.3515,-4.3515,-4.3515,-4.281,-4.181,-4.181,-4.1082,-4.0113,-4.0113,-4.0113,-4.0113,-4.0113,-4.0113,-4.0113,-4.0113,-4.0113,-4.0113,-4.0113,-4.0113,-4.0113,-4.0113,-4.0113,-4.0113,-4.0113,-4.0113,-4.0113,-4.0113,-4.0113,-4.0113,-4.0113,-4.0113,-4.0113,-4.0113,-4.0113,-4.0113,-4.0113,-4.0113,-4.0113,-4.0113,-4.0113,-4.0113,-4.0113,-4.0113,0.0,-4.0113,-4.0764,-4.1508,-4.2219,-4.2997,-4.3775,-4.4581,-4.4615,-4.4615,-4.4615,-4.4615,-4.4615,-4.4615,-4.4615,-4.4959,-4.5703,-4.6447,-4.7192,-4.7906,-4.868,-4.9018,-4.9018,-4.9018,-4.9018,-4.9018,-4.9018,-4.9018,-4.9154,-5.0642,-5.1589,-5.2266,-5.3179,-5.3518,-5.3518,-4.8306,-4.8306,-4.8306,-4.8306,-4.8306,-4.8306,-4.8306,-4.8306,-4.8306,-4.8306,-4.8306,-4.8306,-4.8306,-4.8306,-4.8306,-4.8306,-4.8306,-4.8306,-4.8306,-4.8306,-4.8233,-4.8122,-4.7443,-4.6966,-4.6672,-4.5388,-4.4635,-4.4488,-4.3828,-4.3515,-4.3515,-4.3515,-4.3515,-4.3515,-4.3515,-4.3515,-4.3515,-4.3515,-4.3515,-4.3515,-4.3515,-4.281,-4.181,-4.181,-4.1082,-4.0113,-4.0113,-4.0113,-4.0113,-4.0113,-4.0113,-4.0113,-4.0113,-4.0113,-4.0113,-4.0113,-4.0113,-4.0113,-4.0113,-4.0113,-4.0113,-4.0113,-4.0113,-4.0113,-4.0113,-4.0113,-4.0113,-4.0113,-4.0113,-4.0113,-4.0113,-4.0113,-4.0113,-4.0113,-4.0113,-4.0113,-4.0113,-4.0113,-4.0113,-4.0113,-4.0113,-4.0113,-4.0113,-4.0764,-4.1508,-4.2219,-4.2997,-4.3775,-4.4581,-4.4615,-4.4615,-4.4615,-4.4615,-4.4615,-4.4615,-4.4615,-4.4959,-4.5703,-4.6447,-4.7192,-4.7906,-4.868,-4.9018,-4.9018,-4.9018,-4.9018,-4.9018,-4.9018,-4.9018,-4.9154,-5.0642,-5.1285,-5.1589,-5.2976,-5.3518,-5.3518,-4.8306,-4.8306,-4.8306,-4.8306,-4.8306,-4.8306,-4.8306,-4.8306,-4.8306,-4.8306,-4.8306,-4.8306,-4.8306,-4.8306,-4.8306,-4.8306,-4.8306,-4.8306,-4.8306,-4.8306,-4.8306,-4.8306,-4.792,-4.7516,-4.7113,-4.5938,-4.5112,-4.4691,-4.3901,-4.3515,-4.3515,-4.3515,-4.3515,-4.3515,-4.3515,-4.3515,-4.3515,-4.3515,-4.3515,-4.348,-4.3196,-4.256,-4.1768,-4.1429,-4.0838,-4.0113,-4.0113,-4.0113,-4.0113,-4.0113,-4.0113,-4.0113,-4.0113,-4.0113,-4.0113,-4.0113,-4.0113,-4.0113,-4.0113,-4.0113,-4.0113,-4.0113,-4.0113,-4.0113,-4.0113,-4.0113,-4.0113,-4.0113,-4.0113,-4.0113,-4.0113,-4.0113,-4.0113,-4.0113,-4.0113,-4.0113,-4.0113,-4.0113,-4.0113,-4.0113,-4.0113,-4.0113,-4.0113,-4.0417,-4.1068,-4.2219,-4.2997,-4.3775,-4.4581,-4.4615,-4.4615,-4.4615,-4.4615,-4.4615,-4.4615,-4.4615,-4.4784,-4.5128,-4.6244,-4.6989,-4.7361,-4.8511,-4.9018,-4.9018,-4.9018,-4.9018,-4.9018,-4.9018,-4.9018,-4.912,-5.0202,-5.0879,-5.132,-5.2469,-5.3145,-5.3518,-4.8306,-4.8306,-4.8306,-4.8306,-4.8306,-4.8306,-4.8306,-4.8306,-4.8306,-4.8306,-4.8306,-4.8306,-4.8306,-4.8306,-4.8306,-4.8306,-4.8306,-4.8306,-4.8306,-4.8306,-4.8306,-4.8306,-4.8306,-4.8012,-4.7369,-4.6581,-4.5773,-4.4966,-4.4158,-4.3644,-4.3515,-4.3515,-4.3515,-4.3515,-4.3515,-4.3515,-4.3515,-4.3515,-4.3515,-4.348,-4.305,-4.2442,-4.1768,-4.1251,-4.0672,-4.0113,-4.0113,-4.0113,-4.0113,-4.0113,-4.0113,-4.0113,-4.0113,-4.0113,-4.0113,-4.0113,-4.0113,-4.0113,-4.0113,-4.0113,-4.0113,-4.0113,-4.0113,-4.0113,-4.0113,-4.0113,-4.0113,-4.0113,-4.0113,-4.0113,-4.0113,-4.0113,-4.0113,-4.0113,-4.0113,-4.0113,-4.0113,-4.0113,-4.0113,-4.0113,-4.0113,-4.0113,-4.0113,-4.0113,-4.0722,-4.2185,-4.2828,-4.3606,-4.4547,-4.4615,-4.4615,-4.4615,-4.4615,-4.4615,-4.4615,-4.4615,-4.4615,-4.4615,-4.6104,-4.6786,-4.6853,-4.8342,-4.9018,-4.9018,-4.9018,-4.9018,-4.9018,-4.9018,-4.9018,-4.9086,-4.9796,-5.0541,-5.1286,-5.2029,-5.2807,-5.3518,-4.8306,-4.8306,-4.8306,-4.8306,-4.8306,-4.8306,-4.8306,-4.8306,-4.8306,-4.8306,-4.8306,-4.8306,-4.8306,-4.8306,-4.8306,-4.8306,-4.8306,-4.8306,-4.8306,-4.8306,-4.8306,-4.8306,-4.8306,-4.8269,-4.8196,-4.7406,-4.6599,-4.5773,-4.5002,-4.4195,-4.3515,-4.3515,-4.3515,-4.3515,-4.3515,-4.3515,-4.3515,-4.3515,-4.3515,-4.3497,-4.3463,-4.2772,-4.181,-4.1746,-4.1036,-4.0113,-4.0113,-4.0113,-4.0113,-4.0113,-4.0113,-4.0113,-4.0113,-4.0113,-4.0113,-4.0113,-4.0113,-4.0113,-4.0113,-4.0113,-4.0113,-4.0113,-4.0113,-4.0113,-4.0113,-4.0113,-4.0113,-4.0113,-4.0113,-4.0113,-4.0113,-4.0113,-4.0113,-4.0113,-4.0113,-4.0113,-4.0113,-4.0113,-4.0113,-4.0113,-4.0113,-4.0113,-4.0113,-4.0113,-4.0722,-4.2185,-4.2354,-4.3031,-4.4513,-4.4615,-4.4615,-4.4615,-4.4615,-4.4615,-4.4615,-4.4615,-4.4615,-4.4615,-4.6104,-4.6786,-4.6853,-4.8342,-4.9018,-4.9018,-4.9018,-4.9018,-4.9018,-4.9018,-4.9018,-4.9086,-4.9796,-5.0541,-5.1286,-5.2029,-5.2807,-5.3518,-4.8306,-4.8306,-4.8306,-4.8306,-4.8306,-4.8306,-4.8306,-4.8306,-4.8306,-4.8306,-4.8306,-4.8306,-4.8306,-4.8306,-4.8306,-4.8306,-4.8306,-4.8306,-4.8306,-4.8306,-4.8306,-4.8306,-4.8306,-4.8306,-4.8306,-4.7516,-4.6929,-4.6599,-4.5315,-4.4562,-4.4195,-4.3718,-4.3515,-4.3515,-4.3515,-4.3515,-4.3515,-4.3515,-4.3515,-4.348,-4.316,-4.2751,-4.2262,-4.1552,-4.099,-4.0528,-4.0229,-4.0113,-4.0113,-4.0113,-4.0113,-4.0113,-4.0113,-4.0113,-4.018,-4.0629,-4.0764,-4.0865,-4.1297,-4.1433,-4.1433,-4.1433,-4.1433,-4.1305,-4.0865,-4.0764,-4.0629,-4.018,-4.0113,-4.0113,-4.0113,-4.0113,-4.0113,-4.0113,-4.0113,-4.0113,-4.0113,-4.0113,-4.0113,-4.0113,-4.0113,-4.0113,-4.0113,-4.0113,-4.0553,-4.1542,-4.2049,-4.2963,-4.4513,-4.4615,-4.4615,-4.4615,-4.4615,-4.4615,-4.4615,-4.4615,-4.4615,-4.4615,-4.6104,-4.6786,-4.6853,-4.8342,-4.9018,-4.9018,-4.9018,-4.9018,-4.9018,-4.9018,-4.9018,-4.9052,-4.9323,-5.0168,-5.1251,-5.1555,-5.2435,-5.3518,-4.8306,-4.8306,-4.8306,-4.8306,-4.8306,-4.8306,-4.8306,-4.8306,-4.8306,-4.8306,-4.8306,-4.8306,-4.8306,-4.8306,-4.8306,-4.8306,-4.8306,-4.8306,-4.8306,-4.8306,-4.8306,-4.8306,-4.8306,-4.8306,-4.8306,-4.7736,-4.7333,-4.7113,-4.5938,-4.5168,-4.4654,-4.3864,-4.3515,-4.3515,-4.3515,-4.3515,-4.3515,-4.3515,-4.3515,-4.348,-4.3105,-4.2827,-4.2616,-4.1768,-4.1206,-4.085,-4.0456,-4.0229,-4.0146,-4.035,-4.0392,-4.0392,-4.0392,-4.0392,-4.0587,-4.1305,-4.1508,-4.1644,-4.2151,-4.2286,-4.2286,-4.2286,-4.2286,-4.2151,-4.1644,-4.1508,-4.1305,-4.0561,-4.0248,-4.0113,-4.0113,-4.0113,-4.0113,-4.0113,-4.0113,-4.0113,-4.0113,-4.0113,-4.0113,-4.0113,-4.0113,-4.0113,-4.0113,-4.0113,-4.0519,-4.1441,-4.2016,-4.2861,-4.4181,-4.4479,-4.4615,-4.4615,-4.4615,-4.4615,-4.4615,-4.4615,-4.4615,-4.4615,-4.6104,-4.6786,-4.6853,-4.8342,-4.9018,-4.9018,-4.9018,-4.9018,-4.9018,-4.9018,-4.9018,-4.9018,-4.9018,-4.9898,-5.1185,-5.1185,-5.2198,-5.3518,-4.8306,-4.8306,-4.8306,-4.8306,-4.8306,-4.8306,-4.8306,-4.8306,-4.8306,-4.8306,-4.8306,-4.8306,-4.8306,-4.8306,-4.8306,-4.8306,-4.8306,-4.8306,-4.8306,-4.8306,-4.8306,-4.8306,-4.8306,-4.8306,-4.8306,-4.8306,-4.7883,-4.7113,-4.7076,-4.6269,-4.4654,-4.3864,-4.3515,-4.3515,-4.3515,-4.3515,-4.3515,-4.3515,-4.3515,-4.3515,-4.3497,-4.3178,-4.2693,-4.2674,-4.1937,-4.092,-4.0897,-4.0552,-4.0214,-4.0933,-4.1204,-4.1204,-4.1204,-4.1204,-4.1339,-4.2049,-4.2286,-4.2286,-4.2286,-4.2286,-4.2286,-4.2286,-4.2286,-4.2286,-4.2286,-4.2286,-4.2083,-4.1339,-4.0595,-4.0113,-4.0113,-4.0113,-4.0113,-4.0113,-4.0113,-4.0113,-4.0113,-4.0113,-4.0113,-4.0113,-4.0113,-4.0113,-4.0113,-4.0113,-4.0722,-4.2185,-4.2286,-4.2625,-4.3375,-4.4147,-4.4615,-4.4615,-4.4615,-4.4615,-4.4615,-4.4615,-4.4615,-4.4615,-4.6104,-4.6786,-4.6853,-4.8342,-4.9018,-4.9018,-4.9018,-4.9018,-4.9018,-4.9018,-4.9018,-4.9018,-4.9018,-4.9898,-5.1185,-5.1185,-5.2198,-5.3518,-4.8306,-4.8306,-4.8306,-4.8306,-4.8306,-4.8306,-4.8306,-4.8306,-4.8306,-4.8306,-4.8306,-4.8306,-4.8306,-4.8306,-4.8306,-4.8306,-4.8306,-4.8306,-4.8306,-4.8306,-4.8306,-4.8306,-4.8306,-4.8306,-4.8306,-4.8306,-4.8196,-4.7939,-4.7369,-4.6269,-4.4691,-4.4452,-4.4011,-4.3515,-4.3515,-4.3515,-4.3515,-4.3515,-4.3515,-4.3515,-4.3515,-4.3374,-4.3214,-4.2827,-4.2221,-4.1521,-4.1685,-4.1351,-4.0967,-4.1711,-4.1948,-4.2049,-4.2557,-4.2354,-4.2083,-4.2828,-4.3064,-4.3166,-4.3707,-4.387,-4.387,-4.387,-4.387,-4.3707,-4.3166,-4.2658,-4.2083,-4.1339,-4.1001,-4.0696,-4.018,-4.0113,-4.0113,-4.0113,-4.0113,-4.0113,-4.0113,-4.0113,-4.0113,-4.0113,-4.0113,-4.0113,-4.0113,-4.0113,-4.0519,-4.1474,-4.2016,-4.2861,-4.4147,-4.4479,-4.4615,-4.4615,-4.4615,-4.4615,-4.4615,-4.4615,-4.4615,-4.4615,-4.6104,-4.7327,-4.8308,-4.8781,-4.9018,-4.9018,-4.9018,-4.9018,-4.9018,-4.9018,-4.9018,-4.9018,-4.9018,-4.9593,-5.0507,-5.1014,-5.1826,-5.2773,-4.8783,-4.8526,-4.8306,-4.8306,-4.8306,-4.8306,-4.8306,-4.8306,-4.8306,-4.8306,-4.8306,-4.8306,-4.8306,-4.8306,-4.8306,-4.8306,-4.8306,-4.8306,-4.8306,-4.8306,-4.8306,-4.8306,-4.8306,-4.8306,-4.8306,-4.8306,-4.8306,-4.8306,-4.748,-4.6599,-4.5572,-4.5296,-4.4892,-4.4378,-4.4378,-4.4378,-4.4378,-4.4378,-4.4378,-4.4378,-4.4378,-4.4378,-4.4361,-4.4016,-4.34,-4.2665,-4.2812,-4.2329,-4.1745,-4.2455,-4.2726,-4.2861,-4.3606,-4.3538,-4.3234,-4.3707,-4.3842,-4.3944,-4.4479,-4.4615,-4.4615,-4.4615,-4.4615,-4.4479,-4.3978,-4.3267,-4.2591,-4.2117,-4.161,-4.1068,-4.0595,-4.0282,-4.0113,-4.0113,-4.0113,-4.0113,-4.0113,-4.0113,-4.0113,-4.0113,-4.0113,-4.0113,-4.0113,-4.0113,-4.0519,-4.1542,-4.2049,-4.2963,-4.4513,-4.4615,-4.4615,-4.4615,-4.4615,-4.4615,-4.4615,-4.4615,-4.4615,-4.4615,-4.6104,-4.7564,-4.9018,-4.9018,-4.9018,-4.9018,-4.9018,-4.9018,-4.9018,-4.9018,-4.9018,-4.9018,-4.9018,-4.9458,-5.0168,-5.0947,-5.1691,-5.2435,-4.9684,-4.9003,-4.8379,-4.8379,-4.8343,-4.8306,-4.8306,-4.8306,-4.8306,-4.8306,-4.8306,-4.8306,-4.8306,-4.8306,-4.8306,-4.8306,-4.8306,-4.8306,-4.8306,-4.8306,-4.8306,-4.8306,-4.8306,-4.8306,-4.8306,-4.8306,-4.8306,-4.8306,-4.7553,-4.7149,-4.7076,-4.6324,-4.5957,-4.5883,-4.5883,-4.5883,-4.5883,-4.5883,-4.5883,-4.5883,-4.5883,-4.5865,-4.5828,-4.5828,-4.5084,-4.4044,-4.4092,-4.335,-4.2489,-4.3234,-4.3477,-4.3612,-4.435,-4.4615,-4.4615,-4.4615,-4.4615,-4.4615,-4.4615,-4.4615,-4.4615,-4.4615,-4.4615,-4.4615,-4.4615,-4.4012,-4.3443,-4.3409,-4.2286,-4.1271,-4.1204,-4.0595,-4.0113,-4.0113,-4.0113,-4.0113,-4.0113,-4.0113,-4.0113,-4.0113,-4.0113,-4.0113,-4.0113,-4.0113,-4.0722,-4.2185,-4.2286,-4.2963,-4.4513,-4.4615,-4.4615,-4.4615,-4.4615,-4.4615,-4.4615,-4.4615,-4.4649,-4.4784,-4.6143,-4.7564,-4.9018,-4.9018,-4.9018,-4.9018,-4.9018,-4.9018,-4.9018,-4.9018,-4.9018,-4.9018,-4.9018,-4.9424,-5.0101,-5.0913,-5.1657,-5.2367,-5.0508,-4.9848,-4.9297,-4.9297,-4.8746,-4.8306,-4.8306,-4.8306,-4.8306,-4.8306,-4.8306,-4.8306,-4.8306,-4.8306,-4.8306,-4.8306,-4.8306,-4.8306,-4.8306,-4.8306,-4.8306,-4.8306,-4.8306,-4.8306,-4.8306,-4.8306,-4.8306,-4.8306,-4.8122,-4.77,-4.7113,-4.6892,-4.6489,-4.5883,-4.5883,-4.5883,-4.5883,-4.5883,-4.5883,-4.5883,-4.5883,-4.5624,-4.522,-4.522,-4.4442,-4.3506,-4.4073,-4.3752,-4.3267,-4.4045,-4.4316,-4.4378,-4.4547,-4.4615,-4.4615,-4.4615,-4.4615,-4.4615,-4.4615,-4.4615,-4.4615,-4.4615,-4.4615,-4.4615,-4.4615,-4.4479,-4.4147,-4.3538,-4.2692,-4.188,-4.1305,-4.0595,-4.0113,-4.0113,-4.0113,-4.0113,-4.0113,-4.0113,-4.0113,-4.0113,-4.0113,-4.0113,-4.0113,-4.0113,-4.0722,-4.2185,-4.2286,-4.2963,-4.4513,-4.4615,-4.4615,-4.4615,-4.4615,-4.4615,-4.4615,-4.4615,-4.519,-4.6278,-4.6616,-4.7564,-4.9018,-4.9018,-4.9018,-4.9018,-4.9018,-4.9018,-4.9018,-4.9018,-4.9018,-4.9018,-4.9018,-4.912,-4.9424,-5.0744,-5.1319,-5.1657,-5.1353,-5.0692,-5.0141,-5.0141,-4.9774,-4.9444,-4.9444,-4.9444,-4.9444,-4.9444,-4.9444,-4.9444,-4.9444,-4.9444,-4.9297,-4.893,-4.8526,-4.8306,-4.8306,-4.8306,-4.8306,-4.8306,-4.8306,-4.8306,-4.8306,-4.8306,-4.8306,-4.8306,-4.8306,-4.8067,-4.7626,-4.7626,-4.7406,-4.6985,-4.6985,-4.6985,-4.6985,-4.6985,-4.6985,-4.6966,-4.6701,-4.6388,-4.6044,-4.5767,-4.5058,-4.4291,-4.4715,-4.4445,-4.4012,-4.4479,-4.4615,-4.4615,-4.4615,-4.4615,-4.4615,-4.4615,-4.4615,-4.4615,-4.4615,-4.4615,-4.4615,-4.4615,-4.4615,-4.4615,-4.4615,-4.4615,-4.4479,-4.4045,-4.3335,-4.2591,-4.1847,-4.1102,-4.0493,-4.0146,-4.0113,-4.0113,-4.0113,-4.0113,-4.0113,-4.0113,-4.0113,-4.0113,-4.0113,-4.0113,-4.0722,-4.2185,-4.2286,-4.2963,-4.4513,-4.4615,-4.4615,-4.4615,-4.4615,-4.4615,-4.4615,-4.4615,-4.5359,-4.6786,-4.6786,-4.7564,-4.9018,-4.9018,-4.9018,-4.9018,-4.9018,-4.9018,-4.9018,-4.9018,-4.9018,-4.9018,-4.9018,-4.9018,-4.9187,-5.0676,-5.1185,-5.142,-5.216,-5.1536,-5.0986,-5.0986,-5.0875,-5.0802,-5.0802,-5.0802,-5.0802,-5.0802,-5.0802,-5.0802,-5.0802,-5.0802,-5.0508,-4.9831,-4.9003,-4.8453,-4.8306,-4.8306,-4.8306,-4.8306,-4.8306,-4.8306,-4.8306,-4.8306,-4.8306,-4.8306,-4.8306,-4.8306,-4.8306,-4.8306,-4.8306,-4.8306,-4.8306,-4.8306,-4.8306,-4.8306,-4.8306,-4.8248,-4.7653,-4.7342,-4.719,-4.6542,-4.589,-4.5372,-4.5372,-4.5035,-4.4615,-4.4615,-4.4615,-4.4615,-4.4615,-4.4615,-4.4615,-4.4615,-4.4615,-4.4615,-4.4615,-4.4615,-4.4615,-4.4615,-4.4615,-4.4615,-4.4615,-4.4615,-4.4615,-4.4615,-4.3944,-4.3172,-4.2422,-4.1711,-4.0967,-4.0214,-4.0113,-4.0113,-4.0113,-4.0113,-4.0113,-4.0113,-4.0113,-4.0113,-4.0113,-4.0113,-4.0722,-4.2185,-4.2286,-4.2963,-4.4513,-4.4615,-4.4615,-4.4615,-4.4615,-4.4615,-4.4615,-4.4615,-4.5359,-4.6786,-4.6786,-4.7564,-4.9018,-4.9018,-4.9018,-4.9018,-4.9018,-4.9018,-4.9018,-4.9018,-4.9018,-4.9018,-4.9018,-4.9018,-4.9187,-5.0676,-5.1185,-5.142,-5.3004,-5.238,-5.1793,-5.1793,-5.1242,-5.0802,-5.0802,-5.0802,-5.0802,-5.0802,-5.0802,-5.0802,-5.0802,-5.0802,-5.0765,-5.0618,-4.9848,-4.9077,-4.8343,-4.8306,-4.8306,-4.8306,-4.8306,-4.8306,-4.8306,-4.8306,-4.8306,-4.8306,-4.8306,-4.8306,-4.8306,-4.8306,-4.8306,-4.8306,-4.8306,-4.8306,-4.8306,-4.8306,-4.8306,-4.8248,-4.7653,-4.7044,-4.6483,-4.5865,-4.5267,-4.4748,-4.4748,-4.4665,-4.4615,-4.4615,-4.4615,-4.4615,-4.4615,-4.4615,-4.4615,-4.4615,-4.4615,-4.4615,-4.4615,-4.4615,-4.4615,-4.4615,-4.4615,-4.4615,-4.4615,-4.4615,-4.4615,-4.4615,-4.3944,-4.3172,-4.2422,-4.1711,-4.0967,-4.0214,-4.0113,-4.0113,-4.0113,-4.0113,-4.0113,-4.0113,-4.0113,-4.0113,-4.0113,-4.0113,-4.0722,-4.2185,-4.2286,-4.2963,-4.4513,-4.4615,-4.4615,-4.4615,-4.4615,-4.4615,-4.4615,-4.4615,-4.5359,-4.6786,-4.6786,-4.7564,-4.9018,-4.9018,-4.9018,-4.9018,-4.9018,-4.9018,-4.9018,-4.9018,-4.9018,-4.9018,-4.9018,-4.9018,-4.9187,-5.0676,-5.1185,-5.142,-5.3203,-5.2894,-5.2637,-5.2637,-5.2344,-5.2087,-5.2087,-5.2087,-5.2087,-5.2087,-5.2087,-5.2087,-5.2087,-5.2087,-5.194,-5.1463,-5.1116,-5.0345,-4.9077,-4.8563,-4.8306,-4.8306,-4.8306,-4.8306,-4.8306,-4.8306,-4.8306,-4.8306,-4.8306,-4.8306,-4.8306,-4.8306,-4.8306,-4.8306,-4.8306,-4.8306,-4.8306,-4.8306,-4.8306,-4.8229,-4.7241,-4.6682,-4.6305,-4.5372,-4.4824,-4.4615,-4.4615,-4.4615,-4.4615,-4.4615,-4.4615,-4.4615,-4.4615,-4.4615,-4.4615,-4.4615,-4.4615,-4.4615,-4.4615,-4.4615,-4.4615,-4.4615,-4.4615,-4.4615,-4.4615,-4.4615,-4.4615,-4.4615,-4.4282,-4.3809,-4.3031,-4.2286,-4.1542,-4.0798,-4.0383,-4.0113,-4.0113,-4.0113,-4.0113,-4.0113,-4.0113,-4.0113,-4.0113,-4.0113,-4.0722,-4.2185,-4.2286,-4.2963,-4.4513,-4.4615,-4.4615,-4.4615,-4.4615,-4.4615,-4.4615,-4.4615,-4.5359,-4.6786,-4.6786,-4.7564,-4.9018,-4.9018,-4.9018,-4.9018,-4.9018,-4.9018,-4.9018,-4.9018,-4.9018,-4.9018,-4.9018,-4.9018,-4.912,-5.0202,-5.0879,-5.1386,-5.3203,-5.3203,-5.3203,-5.3203,-5.3203,-5.3203,-5.3203,-5.3203,-5.3203,-5.3203,-5.3203,-5.3203,-5.3203,-5.3203,-5.2968,-5.2344,-5.2087,-5.1483,-5.0235,-4.937,-4.871,-4.8343,-4.8306,-4.8306,-4.8306,-4.8306,-4.8306,-4.8306,-4.8306,-4.8306,-4.8306,-4.8306,-4.8306,-4.8306,-4.8306,-4.8306,-4.8306,-4.8306,-4.8229,-4.7995,-4.6864,-4.6329,-4.6088,-4.5015,-4.4615,-4.4615,-4.4615,-4.4615,-4.4615,-4.4615,-4.4615,-4.4615,-4.4615,-4.4615,-4.4615,-4.4615,-4.4615,-4.4615,-4.4615,-4.4615,-4.4615,-4.4615,-4.4615,-4.4615,-4.4615,-4.4615,-4.4615,-4.4615,-4.4615,-4.435,-4.3572,-4.2963,-4.2252,-4.1339,-4.073,-4.0316,-4.0113,-4.0113,-4.0113,-4.0113,-4.0113,-4.0113,-4.0113,-4.0113,-4.0722,-4.2185,-4.2286,-4.2963,-4.4513,-4.4615,-4.4615,-4.4615,-4.4615,-4.4615,-4.4615,-4.4615,-4.5359,-4.6786,-4.6786,-4.7564,-4.9018,-4.9018,-4.9018,-4.9018,-4.9018,-4.9018,-4.9018,-4.9018,-4.9018,-4.9018,-4.9018,-4.9018,-4.9086,-4.983,-5.0574,-5.1319,-5.3203,-5.3203,-5.3203,-5.3203,-5.3203,-5.3203,-5.3203,-5.3203,-5.3203,-5.3203,-5.3203,-5.3203,-5.3203,-5.3203,-5.3167,-5.3093,-5.2417,-5.194,-5.183,-5.1059,-4.9921,-4.8379,-4.8306,-4.8306,-4.8306,-4.8306,-4.8306,-4.8306,-4.8306,-4.8306,-4.8306,-4.8306,-4.8306,-4.8306,-4.8306,-4.8306,-4.8306,-4.8306,-4.7995,-4.7406,-4.6705,-4.6063,-4.5494,-4.4824,-4.4615,-4.4615,-4.4615,-4.4615,-4.4615,-4.4615,-4.4615,-4.4615,-4.4615,-4.4615,-4.4615,-4.4615,-4.4615,-4.4615,-4.4615,-4.4615,-4.4615,-4.4615,-4.4615,-4.4615,-4.4615,-4.4615,-4.4615,-4.4615,-4.4615,-4.435,-4.3572,-4.3341,-4.2861,-4.1441,-4.117,-4.0865,-4.0214,-4.0113,-4.0113,-4.0113,-4.0113,-4.0113,-4.0113,-4.0113,-4.0722,-4.2185,-4.2286,-4.2963,-4.4513,-4.4615,-4.4615,-4.4615,-4.4615,-4.4615,-4.4615,-4.4615,-4.5359,-4.6786,-4.6786,-4.7564,-4.9018,-4.9018,-4.9018,-4.9018,-4.9018,-4.9018,-4.9018,-4.9018,-4.9018,-4.9018,-4.9018,-4.9018,-4.9086,-4.983,-5.0574,-5.1319,-5.3203,-5.3203,-5.3203,-5.3203,-5.3203,-5.3203,-5.3203,-5.3203,-5.3203,-5.3203,-5.3203,-5.3203,-5.3203,-5.3203,-5.3203,-5.3203,-5.2931,-5.2527,-5.2013,-5.172,-5.1022,-4.9921,-4.9848,-4.9848,-4.9848,-4.9848,-4.9848,-4.9848,-4.9848,-4.9848,-4.9848,-4.9334,-4.9114,-4.9077,-4.8526,-4.8306,-4.8306,-4.8306,-4.7975,-4.7342,-4.6682,-4.6039,-4.5451,-4.4824,-4.4615,-4.4615,-4.4615,-4.4615,-4.4615,-4.4615,-4.4615,-4.4615,-4.4615,-4.4615,-4.4615,-4.4615,-4.4615,-4.4615,-4.4615,-4.4615,-4.4615,-4.4615,-4.4615,-4.4615,-4.4615,-4.4615,-4.4615,-4.4615,-4.4615,-4.4513,-4.4181,-4.3741,-4.3206,-4.2658,-4.2185,-4.161,-4.0865,-4.0764,-4.0595,-4.0146,-4.0113,-4.0113,-4.0113,-4.0113,-4.0722,-4.2185,-4.2286,-4.2963,-4.4513,-4.4615,-4.4615,-4.4615,-4.4615,-4.4615,-4.4615,-4.4615,-4.5359,-4.6786,-4.6786,-4.7564,-4.9018,-4.9018,-4.9018,-4.9018,-4.9018,-4.9018,-4.9018,-4.9018,-4.9018,-4.9018,-4.9018,-4.9018,-4.9052,-4.9323,-5.0168,-5.1251,-5.3203,-5.3203,-5.3203,-5.3203,-5.3203,-5.3203,-5.3203,-5.3203,-5.3203,-5.3203,-5.3203,-5.3203,-5.3203,-5.3203,-5.3203,-5.3203,-5.3203,-5.2968,-5.2417,-5.238,-5.1903,-5.0839,-5.0802,-5.0802,-5.0802,-5.0802,-5.0802,-5.0802,-5.0802,-5.0802,-5.0802,-5.0215,-4.9831,-4.9574,-4.8967,-4.8563,-4.8306,-4.8306,-4.7838,-4.7044,-4.6612,-4.5915,-4.5169,-4.4776,-4.4615,-4.4615,-4.4615,-4.475,-4.4925,-4.4925,-4.5122,-4.5292,-4.5292,-4.5292,-4.5292,-4.5292,-4.5292,-4.5258,-4.5021,-4.4925,-4.4886,-4.4682,-4.4615,-4.4615,-4.4615,-4.4615,-4.4615,-4.4615,-4.4615,-4.4615,-4.4615,-4.4147,-4.3707,-4.3443,-4.2997,-4.2388,-4.1644,-4.1542,-4.1339,-4.0857,-4.0587,-4.0451,-4.0451,-4.0451,-4.0933,-4.2185,-4.2523,-4.32,-4.4547,-4.4615,-4.4615,-4.4615,-4.4615,-4.4615,-4.4615,-4.4615,-4.5224,-4.6447,-4.6684,-4.7462,-4.868,-4.8883,-4.9018,-4.9018,-4.9018,-4.9018,-4.9018,-4.9018,-4.9018,-4.9018,-4.9018,-4.9018,-4.9018,-4.9018,-4.9796,-5.0913,-5.3203,-5.3203,-5.3203,-5.3203,-5.3203,-5.3203,-5.3203,-5.3203,-5.3203,-5.3203,-5.3203,-5.3203,-5.3203,-5.3203,-5.3203,-5.3203,-5.3203,-5.3203,-5.3203,-5.3203,-5.2491,-5.0875,-5.0839,-5.0839,-5.0839,-5.0839,-5.0839,-5.0839,-5.0839,-5.0839,-5.0839,-5.0802,-5.0362,-4.961,-4.961,-4.9133,-4.8306,-4.8306,-4.7554,-4.6389,-4.6389,-4.5673,-4.4615,-4.4615,-4.4615,-4.4615,-4.4615,-4.5094,-4.5703,-4.5703,-4.6177,-4.6786,-4.6786,-4.6786,-4.6786,-4.6786,-4.6786,-4.6616,-4.5906,-4.5703,-4.5534,-4.4818,-4.4615,-4.4615,-4.4615,-4.4615,-4.4615,-4.4615,-4.4615,-4.4615,-4.4615,-4.4615,-4.4316,-4.3511,-4.3409,-4.3166,-4.2388,-4.2286,-4.2286,-4.2286,-4.1644,-4.1204,-4.1204,-4.1204,-4.1508,-4.2252,-4.2997,-4.3775,-4.4581,-4.4615,-4.4615,-4.4615,-4.4615,-4.4615,-4.4615,-4.4615,-4.4959,-4.5703,-4.6447,-4.7192,-4.7906,-4.868,-4.9018,-4.9018,-4.9018,-4.9018,-4.9018,-4.9018,-4.9018,-4.9018,-4.9018,-4.9018,-4.9018,-4.9018,-4.9458,-5.0202,-5.3203,-5.3203,-5.3203,-5.3203,-5.3203,-5.3203,-5.3203,-5.3203,-5.3203,-5.3203,-5.3203,-5.3203,-5.3203,-5.3203,-5.3203,-5.3203,-5.3203,-5.3203,-5.3203,-5.3203,-5.2983,-5.2527,-5.2491,-5.2491,-5.2491,-5.2491,-5.2491,-5.2491,-5.2491,-5.2491,-5.247,-5.1903,-5.1499,-5.1263,-5.0692,-4.9994,-4.9206,-4.9206,-4.8119,-4.6389,-4.6389,-4.5673,-4.4682,-4.5162,-4.5365,-4.5432,-4.594,-4.6278,-4.6481,-4.6481,-4.6616,-4.6786,-4.6786,-4.6786,-4.6786,-4.6786,-4.6786,-4.6752,-4.6515,-4.6481,-4.6177,-4.4919,-4.4615,-4.4615,-4.4615,-4.4615,-4.4615,-4.4615,-4.4615,-4.4615,-4.4615,-4.4615,-4.4513,-4.4282,-4.4215,-4.3978,-4.32,-4.3064,-4.2895,-4.2354,-4.2117,-4.1982,-4.1982,-4.1982,-4.2286,-4.3031,-4.3809,-4.4378,-4.4581,-4.4615,-4.4615,-4.4615,-4.4615,-4.4615,-4.4615,-4.4615,-4.4959,-4.5703,-4.6447,-4.7192,-4.7906,-4.868,-4.9018,-4.9018,-4.9018,-4.9018,-4.9018,-4.9018,-4.9018,-4.9018,-4.9018,-4.9018,-4.9018,-4.9018,-4.9458,-5.0202,-5.3203,-5.3203,-5.3203,-5.3203,-5.3203,-5.3203,-5.3203,-5.3203,-5.3203,-5.3203,-5.3203,-5.3203,-5.3203,-5.3203,-5.3203,-5.3203,-5.3203,-5.3203,-5.3203,-5.3203,-5.3203,-5.3203,-5.3203,-5.3203,-5.3203,-5.3203,-5.3203,-5.3203,-5.3203,-5.3203,-5.3167,-5.2711,-5.2307,-5.1977,-5.1499,-5.0839,-5.0068,-5.0068,-4.9046,-4.7369,-4.7369,-4.6604,-4.55,-4.5974,-4.6143,-4.6177,-4.6616,-4.6989,-4.7259,-4.7259,-4.7428,-4.7665,-4.7665,-4.7665,-4.7665,-4.7665,-4.7665,-4.7597,-4.7327,-4.7259,-4.6955,-4.5799,-4.5258,-4.5026,-4.5026,-4.4818,-4.4615,-4.4615,-4.4615,-4.4615,-4.4615,-4.4615,-4.4615,-4.4615,-4.4615,-4.4418,-4.3944,-4.3876,-4.3707,-4.3234,-4.2929,-4.2726,-4.2726,-4.2726,-4.3064,-4.3809,-4.4344,-4.4615,-4.4615,-4.4615,-4.4615,-4.4615,-4.4615,-4.4615,-4.4615,-4.4615,-4.4818,-4.5263,-4.6007,-4.6752,-4.7496,-4.824,-4.8714,-4.9018,-4.9018,-4.9018,-4.9018,-4.9018,-4.9018,-4.9018,-4.9018,-4.9018,-4.9018,-4.9018,-4.9289,-4.9796,-5.3203,-5.3203,-5.3203,-5.3203,-5.3203,-5.3203,-5.3203,-5.3203,-5.3203,-5.3203,-5.3203,-5.3203,-5.3203,-5.3203,-5.3203,-5.3203,-5.3203,-5.3203,-5.3203,-5.3203,-5.3203,-5.3203,-5.3203,-5.3203,-5.3203,-5.3203,-5.3203,-5.3203,-5.3203,-5.3203,-5.3203,-5.3203,-5.2821,-5.2087,-5.2087,-5.1646,-5.0912,-5.0912,-5.0075,-4.881,-4.881,-4.7996,-4.6786,-4.6853,-4.6887,-4.6921,-4.6955,-4.7428,-4.7973,-4.7973,-4.8443,-4.9018,-4.9018,-4.9018,-4.9018,-4.9018,-4.9018,-4.8849,-4.8206,-4.7973,-4.7868,-4.7158,-4.6447,-4.5872,-4.5737,-4.5162,-4.4682,-4.4615,-4.4615,-4.4615,-4.4615,-4.4615,-4.4615,-4.4615,-4.4615,-4.4615,-4.4615,-4.4615,-4.4615,-4.4615,-4.3944,-4.3538,-4.3538,-4.3538,-4.3809,-4.4547,-4.4615,-4.4615,-4.4615,-4.4615,-4.4615,-4.4615,-4.4615,-4.4615,-4.4615,-4.4615,-4.4615,-4.4615,-4.5365,-4.6075,-4.6819,-4.7564,-4.8308,-4.9018,-4.9018,-4.9018,-4.9018,-4.9018,-4.9018,-4.9018,-4.9018,-4.9018,-4.9018,-4.9018,-4.9018,-4.9221,-5.3203,-5.3203,-5.3203,-5.3203,-5.3203,-5.3203,-5.3203,-5.3203,-5.3203,-5.3203,-5.3203,-5.3203,-5.3203,-5.3203,-5.3203,-5.3203,-5.3203,-5.3203,-5.3203,-5.3203,-5.3203,-5.3203,-5.3203,-5.3203,-5.3203,-5.3203,-5.3203,-5.3203,-5.3203,-5.3203,-5.3203,-5.3203,-5.3115,-5.2931,-5.2931,-5.2491,-5.172,-5.172,-5.0605,-4.881,-4.881,-4.7996,-4.6853,-4.7462,-4.7665,-4.7767,-4.8342,-4.8646,-4.8781,-4.8781,-4.8883,-4.9018,-4.9018,-4.9018,-4.9018,-4.9018,-4.9018,-4.8984,-4.8815,-4.8781,-4.8714,-4.8545,-4.797,-4.7094,-4.5974,-4.5568,-4.5297,-4.4716,-4.4615,-4.4615,-4.4615,-4.4615,-4.4615,-4.4615,-4.4615,-4.4615,-4.4615,-4.4615,-4.4615,-4.4615,-4.4445,-4.4316,-4.4316,-4.4316,-4.4384,-4.4581,-4.4615,-4.4615,-4.4615,-4.4615,-4.4615,-4.4615,-4.4615,-4.4615,-4.4615,-4.4615,-4.4615,-4.4615,-4.5365,-4.6075,-4.6819,-4.7564,-4.8308,-4.9018,-4.9018,-4.9018,-4.9018,-4.9018,-4.9018,-4.9018,-4.9018,-4.9018,-4.9018,-4.9018,-4.9018,-4.9221,-5.3203,-5.3203,-5.3203,-5.3203,-5.3203,-5.3203,-5.3203,-5.3203,-5.3203,-5.3203,-5.3203,-5.3203,-5.3203,-5.3203,-5.3203,-5.3203,-5.3203,-5.3203,-5.3203,-5.3203,-5.3203,-5.3203,-5.3203,-5.3203,-5.3203,-5.3203,-5.3203,-5.3203,-5.3203,-5.3203,-5.3203,-5.3203,-5.3203,-5.3203,-5.3203,-5.2968,-5.2564,-5.2564,-5.1704,-5.0354,-5.0033,-4.9256,-4.8333,-4.8425,-4.8443,-4.8477,-4.8849,-4.9018,-4.9018,-4.9018,-4.9018,-4.9018,-4.9018,-4.9018,-4.9018,-4.9018,-4.9018,-4.9018,-4.9018,-4.9018,-4.9018,-4.9018,-4.8714,-4.8139,-4.7022,-4.6481,-4.6007,-4.5263,-4.5128,-4.5026,-4.4682,-4.4615,-4.4615,-4.4615,-4.4615,-4.4615,-4.4615,-4.4615,-4.4615,-4.4615,-4.4615,-4.4615,-4.4615,-4.4615,-4.4615,-4.4615,-4.4615,-4.4615,-4.4615,-4.4615,-4.4615,-4.4615,-4.4615,-4.4615,-4.4615,-4.4615,-4.4615,-4.4615,-4.4993,-4.5737,-4.6819,-4.7192,-4.797,-4.9018,-4.9018,-4.9018,-4.9018,-4.9018,-4.9018,-4.9018,-4.9018,-4.9018,-4.9018,-4.9018,-4.9221,-4.9695,-5.3203,-5.3203,-5.3203,-5.3203,-5.3203,-5.3203,-5.3203,-5.3203,-5.3203,-5.3203,-5.3203,-5.3203,-5.3203,-5.3203,-5.3203,-5.3203,-5.3203,-5.3203,-5.3203,-5.3203,-5.3203,-5.3203,-5.3203,-5.3203,-5.3203,-5.3203,-5.3203,-5.3203,-5.3203,-5.3203,-5.3203,-5.3203,-5.3203,-5.3203,-5.3203,-5.3203,-5.3203,-5.3203,-5.2769,-5.2065,-5.1494,-5.085,-5.0118,-4.9432,-4.9199,-4.9168,-4.9015,-4.9018,-4.9018,-4.9018,-4.9018,-4.9018,-4.9018,-4.9018,-4.9018,-4.9018,-4.9018,-4.9018,-4.9018,-4.9018,-4.9018,-4.9018,-4.9018,-4.8849,-4.824,-4.753,-4.6786,-4.6041,-4.5906,-4.5669,-4.4919,-4.4818,-4.475,-4.4615,-4.4615,-4.4615,-4.4615,-4.4615,-4.4615,-4.4615,-4.4615,-4.4615,-4.4615,-4.4615,-4.4615,-4.4615,-4.4615,-4.4615,-4.4615,-4.4615,-4.4615,-4.4615,-4.4615,-4.4615,-4.4615,-4.4615,-4.4615,-4.4615,-4.4615,-4.5326,-4.6616,-4.6718,-4.753,-4.8815,-4.8951,-4.9018,-4.9018,-4.9018,-4.9018,-4.9018,-4.9018,-4.9018,-4.9018,-4.9018,-4.9458,-5.0202,-5.3203,-5.3203,-5.3203,-5.3203,-5.3203,-5.3203,-5.3203,-5.3203,-5.3203,-5.3203,-5.3203,-5.3203,-5.3203,-5.3203,-5.3203,-5.3203,-5.3203,-5.3203,-5.3203,-5.3203,-5.3203,-5.3203,-5.3203,-5.3203,-5.3203,-5.3203,-5.3203,-5.3203,-5.3203,-5.3203,-5.3203,-5.3203,-5.3203,-5.3203,-5.3203,-5.3203,-5.3203,-5.3203,-5.2769,-5.2089,-5.2018,-5.1544,-5.0876,-5.0146,-4.9861,-4.9809,-4.9195,-4.9018,-4.9018,-4.9018,-4.9018,-4.9018,-4.9018,-4.9018,-4.9018,-4.9018,-4.9018,-4.9018,-4.9018,-4.9018,-4.9018,-4.9018,-4.9018,-4.8984,-4.8883,-4.8274,-4.7564,-4.6786,-4.665,-4.6413,-4.5703,-4.5568,-4.5331,-4.4716,-4.4615,-4.4615,-4.4615,-4.4615,-4.4615,-4.4615,-4.4615,-4.4615,-4.4615,-4.4615,-4.4615,-4.4615,-4.4615,-4.4615,-4.4615,-4.4615,-4.4615,-4.4615,-4.4615,-4.4615,-4.4615,-4.4615,-4.4615,-4.4615,-4.4615,-4.5055,-4.5872,-4.6515,-4.7259,-4.8075,-4.8714,-4.9018,-4.9018,-4.9018,-4.9018,-4.9018,-4.9018,-4.9018,-4.9018,-4.9018,-4.9458,-5.0202,-5.3203,-5.3203,-5.3203,-5.3203,-5.3203,-5.3203,-5.3203,-5.3203,-5.3203,-5.3203,-5.3203,-5.3203,-5.3203,-5.3203,-5.3203,-5.3203,-5.3203,-5.3203,-5.3203,-5.3203,-5.3203,-5.3203,-5.3203,-5.3203,-5.3203,-5.3203,-5.3203,-5.3203,-5.3203,-5.3203,-5.3203,-5.3203,-5.3203,-5.3203,-5.3203,-5.3203,-5.3203,-5.3203,-5.3002,-5.2702,-5.2289,-5.191,-5.1544,-5.0417,-5.0004,-4.9919,-4.9226,-4.9018,-4.9018,-4.9018,-4.9018,-4.9018,-4.9018,-4.9018,-4.9018,-4.9018,-4.9018,-4.9018,-4.9018,-4.9018,-4.9018,-4.9018,-4.9018,-4.9018,-4.9018,-4.8748,-4.8308,-4.7564,-4.7428,-4.7192,-4.6447,-4.5974,-4.5602,-4.5263,-4.4886,-4.4615,-4.4615,-4.4615,-4.4615,-4.4615,-4.4615,-4.4615,-4.4615,-4.4615,-4.4615,-4.4615,-4.4615,-4.4615,-4.4615,-4.4615,-4.4615,-4.4615,-4.4615,-4.4615,-4.4615,-4.4615,-4.4615,-4.4615,-4.4615,-4.4993,-4.5737,-4.6447,-4.7192,-4.7939,-4.868,-4.9018,-4.9018,-4.9018,-4.9018,-4.9018,-4.9018,-4.9018,-4.9018,-4.9018,-4.9221,-4.9661]},{"header":{"parameterUnit":"m.s-1","parameterCategory":1,"la1":30.6,"la2":28.766,"lo1":-90.7593,"lo2":-88.6598,"dy":0.0162,"dx":0.0183,"nx":116,"ny":114,"refTime":"2024-02-06T18:00:00:Z","depth":0,"parameterNumber":3,"parameterNumberName":"V-component_of_WINDS"},"data":[0.0,0.0,0.0,0.0,0.0,0.0,0.0,0.0,0.0,0.0,0.0,0.0,0.0,0.0,0.0,0.0,0.0,0.0,0.0,0.0,0.0,0.0,0.0,0.0,0.0,0.0,0.0,0.0,0.0,0.0,0.0,0.0,0.0,0.0,0.0,0.0,0.0,0.0,0.0,0.0,0.0,0.0,0.0,0.0,0.0,0.0,0.0,0.0,0.0,0.0,0.0,0.0,0.0,0.0,0.0,0.0,0.0,0.0,0.0,0.0,0.0,0.0,0.0,0.0,0.0,0.0,0.0,0.0,0.0,0.0,0.0,0.0,0.0,0.0,0.0,0.0,0.0,0.0,0.0,0.0,0.0,0.0,0.0,0.0,0.0,0.0,0.0,0.0,0.0,0.0,0.0,0.0,0.0,0.0,0.0,0.0,0.0,0.0,0.0,0.0,0.0,0.0,0.0,0.0,0.0,0.0,0.0,0.0,0.0,0.0,0.0,0.0,0.0,0.0,0.0,0.0,0.0,0.0,0.0,0.0,0.0,0.0,0.0,0.0,0.0,0.0,0.0,0.0,0.0,0.0,0.0,0.0,0.0,0.0,0.0,0.0,0.0,0.0,0.0,0.0,0.0,0.0,0.0,0.0,0.0,0.0,0.0,0.0,0.0,0.0,0.0,0.0,0.0,0.0,0.0,0.0,0.0,0.0,0.0,0.0,0.0,0.0,0.0,0.0,0.0,0.0,0.0,0.0,0.0,0.0,0.0,0.0,0.0,0.0,0.0,0.0,0.0,0.0,0.0,0.0,0.0,0.0,0.0,0.0,0.0,0.0,0.0,0.0,0.0,0.0,0.0,0.0,0.0,0.0,0.0,0.0,0.0,0.0,0.0,0.0,0.0,0.0,0.0,0.0,0.0,0.0,0.0,0.0,0.0,0.0,0.0,0.0,0.0,0.0,0.0,0.0,0.0,0.0,0.0,0.0,0.0,0.0,0.0,0.0,0.0,0.0,0.0,0.0,0.0,0.0,0.0,0.0,0.0,0.0,0.0,0.0,0.0,0.0,0.0,0.0,0.0,0.0,0.0,0.0,0.0,0.0,0.0,0.0,0.0,0.0,0.0,0.0,0.0,0.0,0.0,0.0,0.0,0.0,0.0,0.0,0.0,0.0,0.0,0.0,0.0,0.0,0.0,0.0,0.0,0.0,0.0,0.0,0.0,0.0,0.0,0.0,0.0,0.0,0.0,0.0,0.0,0.0,0.0,0.0,0.0,0.0,0.0,0.0,0.0,0.0,0.0,0.0,0.0,0.0,0.0,0.0,0.0,0.0,0.0,0.0,0.0,0.0,0.0,0.0,0.0,0.0,0.0,0.0,0.0,0.0,0.0,0.0,0.0,0.0,0.0,0.0,0.0,0.0,0.0,0.0,0.0,0.0,0.0,0.0,0.0,0.0,0.0,0.0,0.0,0.0,0.0,0.0,0.0,0.0,0.0,0.0,0.0,0.0,0.0,0.0,0.0,0.0,0.0,0.0,0.0,0.0,0.0,0.0,0.0,0.0,0.0,0.0,0.0,0.0,0.0,0.0,0.0,0.0,0.0,0.0,0.0,0.0,0.0,0.0,0.0,0.0,0.0,0.0,0.0,0.0,0.0,0.0,0.0,0.0,0.0,0.0,0.0,0.0,0.0,0.0,0.0,0.0,0.0,0.0,0.0,0.0,0.0,0.0,0.0,0.0,0.0,0.0,0.0,0.0,0.0,0.0,0.0,0.0,0.0,0.0,0.0,0.0,0.0,0.0,0.0,0.0,0.0,0.0,0.0,0.0,0.0,0.0,0.0,0.0,0.0,0.0,0.0,0.0,0.0,0.0,0.0,0.0,0.0,0.0,0.0,0.0,0.0,0.0,0.0,0.0,0.0,0.0,0.0,0.0,0.0,0.0,0.0,0.0,0.0,0.0,0.0,0.0,0.0,0.0,0.0,0.0,0.0,0.0,0.0,0.0,0.0,0.0,0.0,0.0,0.0,0.0,0.0,0.0,0.0,0.0,0.0,0.0,0.0,0.0,0.0,0.0,0.0,0.0,0.0,0.0,0.0,0.0,0.0,0.0,0.0,0.0,0.0,0.0,0.0,0.0,0.0,0.0,0.0,0.0,0.0,0.0,0.0,0.0,0.0,0.0,0.0,0.0,0.0,0.0,0.0,0.0,0.0,0.0,0.0,0.0,0.0,0.0,0.0,0.0,0.0,0.0,0.0,0.0,0.0,0.0,0.0,0.0,0.0,0.0,0.0,0.0,0.0,0.0,0.0,0.0,0.0,0.0,0.0,0.0,0.0,0.0,0.0,0.0,0.0,0.0,0.0,0.0,0.0,0.0,0.0,0.0,0.0,0.0,0.0,0.0,0.0,0.0,0.0,0.0,0.0,0.0,0.0,0.0,0.0,0.0,0.0,0.0,0.0,0.0,0.0,0.0,0.0,0.0,0.0,0.0,0.0,0.0,0.0,0.0,0.0,0.0,0.0,0.0,0.0,0.0,0.0,0.0,0.0,0.0,0.0,0.0,0.0,0.0,0.0,0.0,0.0,0.0,0.0,0.0,0.0,0.0,0.0,0.0,0.0,0.0,0.0,0.0,0.0,0.0,0.0,0.0,0.0,0.0,0.0,0.0,0.0,0.0,0.0,0.0,0.0,0.0,0.0,0.0,0.0,0.0,0.0,0.0,0.0,0.0,0.0,0.0,0.0,0.0,0.0,0.0,0.0,0.0,0.0,0.0,0.0,0.0,0.0,0.0,0.0,0.0,0.0,0.0,0.0,0.0,0.0,0.0,0.0,0.0,0.0,0.0,0.0,0.0,0.0,0.0,0.0,0.0,0.0,0.0,0.0,0.0,0.0,0.0,0.0,0.0,0.0,0.0,0.0,0.0,0.0,0.0,0.0,0.0,0.0,0.0,0.0,0.0,0.0,0.0,0.0,0.0,0.0,0.0,0.0,0.0,0.0,0.0,0.0,0.0,0.0,0.0,0.0,0.0,0.0,0.0,0.0,0.0,0.0,0.0,0.0,0.0,0.0,0.0,0.0,0.0,0.0,0.0,0.0,0.0,0.0,0.0,0.0,0.0,0.0,0.0,0.0,0.0,0.0,0.0,0.0,0.0,0.0,0.0,0.0,0.0,0.0,0.0,0.0,0.0,0.0,0.0,0.0,0.0,0.0,0.0,0.0,0.0,0.0,0.0,0.0,0.0,0.0,0.0,0.0,0.0,0.0,0.0,0.0,0.0,0.0,0.0,0.0,0.0,0.0,0.0,0.0,0.0,0.0,0.0,0.0,0.0,0.0,0.0,0.0,0.0,0.0,0.0,0.0,0.0,0.0,0.0,0.0,0.0,0.0,0.0,0.0,0.0,0.0,0.0,0.0,0.0,0.0,0.0,0.0,0.0,0.0,0.0,0.0,0.0,0.0,0.0,0.0,0.0,0.0,0.0,0.0,0.0,0.0,0.0,0.0,0.0,0.0,0.0,0.0,0.0,0.0,0.0,0.0,0.0,0.0,0.0,0.0,0.0,0.0,0.0,0.0,0.0,0.0,0.0,0.0,0.0,0.0,0.0,0.0,0.0,0.0,0.0,0.0,0.0,0.0,0.0,0.0,0.0,0.0,0.0,0.0,0.0,0.0,0.0,0.0,0.0,0.0,0.0,0.0,0.0,0.0,0.0,0.0,0.0,0.0,0.0,0.0,0.0,0.0,0.0,0.0,0.0,0.0,0.0,0.0,0.0,0.0,0.0,0.0,0.0,0.0,0.0,0.0,0.0,0.0,0.0,0.0,0.0,0.0,0.0,0.0,0.0,0.0,0.0,0.0,0.0,0.0,0.0,0.0,0.0,0.0,0.0,0.0,0.0,0.0,0.0,0.0,0.0,0.0,0.0,0.0,0.0,0.0,0.0,0.0,0.0,0.0,0.0,0.0,0.0,0.0,0.0,0.0,0.0,0.0,0.0,0.0,0.0,0.0,0.0,0.0,0.0,0.0,0.0,0.0,0.0,0.0,0.0,0.0,0.0,0.0,0.0,0.0,0.0,0.0,0.0,0.0,0.0,0.0,0.0,0.0,0.0,0.0,0.0,0.0,0.0,0.0,0.0,0.0,0.0,0.0,0.0,0.0,0.0,0.0,0.0,0.0,0.0,0.0,0.0,0.0,0.0,0.0,0.0,0.0,0.0,0.0,0.0,0.0,0.0,0.0,0.0,0.0,0.0,0.0,0.0,0.0,0.0,0.0,0.0,0.0,0.0,0.0,0.0,0.0,0.0,0.0,0.0,0.0,0.0,0.0,0.0,0.0,0.0,0.0,0.0,0.0,0.0,0.0,0.0,0.0,0.0,0.0,0.0,0.0,0.0,0.0,0.0,0.0,0.0,0.0,0.0,0.0,0.0,0.0,0.0,0.0,0.0,0.0,0.0,0.0,0.0,0.0,0.0,0.0,0.0,0.0,0.0,0.0,0.0,0.0,0.0,0.0,0.0,0.0,0.0,0.0,0.0,0.0,0.0,0.0,0.0,0.0,0.0,0.0,0.0,0.0,0.0,0.0,0.0,0.0,0.0,0.0,0.0,0.0,0.0,0.0,0.0,0.0,0.0,0.0,0.0,0.0,0.0,0.0,0.0,0.0,0.0,0.0,0.0,0.0,0.0,0.0,0.0,0.0,0.0,0.0,0.0,0.0,0.0,0.0,0.0,0.0,0.0,0.0,0.0,0.0,0.0,0.0,0.0,0.0,0.0,0.0,0.0,0.0,0.0,0.0,0.0,0.0,0.0,0.0,0.0,0.0,0.0,0.0,0.0,0.0,0.0,0.0,0.0,0.0,0.0,0.0,0.0,0.0,0.0,0.0,0.0,0.0,0.0,0.0,0.0,0.0,0.0,0.0,0.0,0.0,0.0,0.0,0.0,0.0,0.0,0.0,0.0,0.0,0.0,0.0,0.0,0.0,0.0,0.0,0.0,0.0,0.0,0.0,0.0,0.0,0.0,0.0,0.0,0.0,0.0,0.0,0.0,0.0,0.0,0.0,0.0,0.0,0.0,0.0,0.0,0.0,0.0,0.0,0.0,0.0,0.0,0.0,0.0,0.0,0.0,0.0,0.0,0.0,0.0,0.0,0.0,0.0,0.0,0.0,0.0,0.0,0.0,0.0,0.0,0.0,0.0,0.0,0.0,0.0,0.0,0.0,0.0,0.0,0.0,0.0,0.0,0.0,0.0,0.0,0.0,0.0,0.0,0.0,0.0,0.0,0.0,0.0,0.0,0.0,0.0,0.0,0.0,0.0,0.0,0.0,0.0,0.0,0.0,0.0,0.0,0.0,0.0,0.0,0.0,0.0,0.0,0.0,0.0,0.0,0.0,0.0,0.0,0.0,0.0,0.0,0.0,0.0,0.0,0.0,0.0,0.0,0.0,0.0,0.0,0.0,0.0,0.0,0.0,0.0,0.0,0.0,0.0,0.0,0.0,0.0,0.0,0.0,0.0,0.0,0.0,0.0,0.0,0.0,0.0,0.0,0.0,0.0,0.0,0.0,0.0,0.0,0.0,0.0,0.0,0.0,0.0,0.0,0.0,0.0,0.0,0.0,0.0,0.0,0.0,0.0,0.0,0.0,0.0,0.0,0.0,0.0,0.0,0.0,0.0,0.0,0.0,0.0,0.0,0.0,0.0,0.0,0.0,0.0,0.0,0.0,0.0,0.0,0.0,0.0,0.0,0.0,0.0,0.0,0.0,0.0,0.0,0.0,0.0,0.0,0.0,0.0,0.0,0.0,0.0,0.0,0.0,0.0,0.0,0.0,0.0,0.0,0.0,0.0,0.0,0.0,0.0,0.0,0.0,0.0,0.0,0.0,0.0,0.0,0.0,0.0,0.0,0.0,0.0,0.0,0.0,0.0,0.0,0.0,0.0,0.0,0.0,0.0,0.0,0.0,0.0,0.0,0.0,0.0,0.0,0.0,0.0,0.0,0.0,0.0,0.0,0.0,0.0,0.0,0.0,0.0,0.0,0.0,0.0,0.0,0.0,0.0,0.0,0.0,0.0,0.0,0.0,0.0,0.0,0.0,0.0,0.0,0.0,0.0,0.0,1.5568,1.4641,0.0,0.0,0.0,0.0,0.0,0.0,0.0,0.0,0.0,0.0,0.0,0.0,0.0,0.0,0.0,0.0,0.0,0.0,0.0,0.0,0.0,0.0,0.0,0.0,0.0,0.0,0.0,0.0,0.0,0.0,0.0,0.0,0.0,0.0,1.0925,1.2231,1.3247,1.392,1.3932,1.4268,1.4902,1.4902,1.5188,1.5784,0.0,0.0,0.0,0.0,0.0,0.0,0.0,0.0,0.0,0.0,0.0,0.0,0.0,0.0,0.0,0.0,0.0,0.0,0.0,0.0,0.0,0.0,0.0,0.0,0.0,0.0,0.0,0.0,0.0,0.0,0.0,0.0,0.0,0.0,0.0,0.0,0.0,0.0,0.0,0.0,0.0,0.0,0.0,0.0,0.0,0.0,0.0,0.0,0.0,0.0,0.0,0.0,0.0,0.0,0.0,0.0,0.0,0.0,0.0,0.0,0.0,0.0,0.0,0.0,0.0,0.0,0.0,0.0,0.0,0.0,1.6808,1.6339,0.0,0.0,0.0,0.0,0.0,0.0,0.0,0.0,0.0,0.0,0.0,0.0,0.0,0.0,0.0,0.0,0.0,0.0,0.0,0.0,0.0,0.0,0.0,0.7988,0.7988,0.7988,0.7988,0.7988,0.0,0.0,0.0,0.0,0.0,1.0239,1.156,1.1804,1.2425,1.3536,1.2668,1.2813,1.392,1.4124,1.4806,1.5784,1.5784,0.0,0.0,0.0,0.0,0.0,0.0,0.0,0.0,0.0,0.0,0.0,0.0,0.0,0.0,0.0,0.0,0.0,0.0,0.0,0.0,0.0,0.0,0.0,0.0,0.0,0.0,0.0,0.0,0.0,0.0,0.0,0.0,0.0,0.0,0.0,0.0,0.0,0.0,0.0,0.0,0.0,0.0,0.0,0.0,0.0,0.0,0.0,0.0,0.0,0.0,0.0,0.0,0.0,0.0,0.0,0.0,0.0,0.0,0.0,0.0,0.0,0.0,0.0,1.7582,1.7609,1.7675,1.7983,1.829,1.8584,1.8878,1.8998,1.8968,1.8963,0.0,0.0,0.0,0.0,0.0,0.0,0.0,0.0,0.0,0.0,0.0,0.0,0.0,0.0,0.0,0.0,0.0,0.0,0.0,0.0,0.0,0.7988,0.7988,0.7988,0.7988,0.7988,0.7988,0.0,0.8088,0.8237,0.8287,0.8874,1.0239,1.1317,1.1999,1.2134,1.3151,1.3728,1.392,1.5045,1.5629,1.5784,1.5784,1.5784,1.5784,0.0,0.0,0.0,0.0,0.0,0.0,0.0,0.0,0.0,0.0,0.0,0.0,0.0,0.0,0.0,0.0,0.0,0.0,0.0,0.0,0.0,0.0,0.0,0.0,0.0,0.0,0.0,0.0,0.0,0.0,0.0,0.0,0.0,0.0,0.0,0.0,0.0,0.0,0.0,0.0,0.0,1.5784,1.5784,0.0,0.0,0.0,0.0,0.0,0.0,0.0,0.0,0.0,0.0,0.0,0.0,0.0,1.7542,1.7582,1.7582,1.7582,1.7582,1.7582,1.7729,1.7942,1.829,1.8597,1.8878,1.9185,0.0,1.9248,1.7852,0.0,0.0,0.0,0.0,0.0,0.0,0.0,0.0,0.0,0.0,0.0,0.0,0.0,0.0,0.0,0.0,0.0,0.0,0.0,0.0,0.0,0.7988,0.7988,0.7988,0.7988,0.7988,0.7988,0.7988,0.7988,0.7988,0.8726,0.9072,0.8874,1.0877,1.1901,1.1901,1.2474,1.3151,1.392,1.4459,1.5092,1.5784,1.5784,1.5784,1.5784,1.5784,0.0,0.0,0.0,0.0,0.0,0.0,0.0,0.0,0.0,0.0,0.0,0.0,0.0,0.0,0.0,0.0,0.0,0.0,0.0,0.0,0.0,0.0,0.0,0.0,0.0,0.0,0.0,0.0,0.0,0.0,0.0,0.0,0.0,0.0,0.0,0.0,0.0,0.0,0.0,1.5784,1.5784,1.5784,1.5784,1.5784,0.0,0.0,0.0,0.0,0.0,0.0,0.0,0.0,0.0,1.7192,1.7487,1.7582,1.7582,1.7582,1.7582,1.7582,1.7756,1.7916,1.8009,1.8517,1.8811,1.8945,1.9239,1.943,1.9359,1.8648,1.8344,1.8344,0.0,0.0,0.0,0.0,1.9239,1.8907,0.0,0.0,0.0,0.0,0.0,0.0,0.0,0.0,0.0,0.0,0.0,0.0,0.7988,0.7988,0.7988,0.7988,0.7988,0.7988,0.7988,0.7988,0.7988,0.7988,0.8973,0.9164,0.8528,1.0435,1.156,1.1901,1.1901,1.2571,1.392,1.422,1.4902,1.5784,1.5784,1.5784,1.5784,1.5784,1.5784,1.5784,0.0,0.0,0.0,0.0,0.0,0.0,0.0,0.0,0.0,0.0,0.0,0.0,0.0,0.0,0.0,0.0,0.0,0.0,0.0,0.0,0.0,0.0,0.0,0.0,0.0,0.0,0.0,0.0,0.0,0.0,0.0,0.0,0.0,0.0,0.0,0.0,0.0,1.5784,1.5784,1.5784,1.5784,1.5784,0.0,0.0,0.0,0.0,0.0,0.0,1.6807,1.7072,1.7233,1.7313,1.7527,1.7582,1.7582,1.7582,1.7582,1.7582,1.7903,1.8035,1.8183,1.8635,1.8958,1.9052,1.9265,1.943,1.943,1.943,1.943,1.943,1.943,1.8687,1.787,1.9292,1.9292,1.8803,0.0,0.0,0.0,0.0,0.0,0.0,0.0,0.0,0.0,0.0,0.0,0.7988,0.7988,0.7988,0.7988,0.7988,0.7988,0.7988,0.7988,0.7988,0.7988,0.7988,0.8088,0.8676,0.9854,1.0051,1.0681,1.1901,1.1901,1.2571,1.392,1.514,1.5737,1.5784,1.5784,1.5784,1.5784,1.5784,1.5784,1.5784,1.5784,0.0,0.0,0.0,0.0,0.0,0.0,0.0,0.0,0.0,0.0,0.0,0.0,0.0,0.0,0.0,0.0,0.0,0.0,0.0,0.0,0.0,0.0,0.0,0.0,0.0,0.0,0.0,0.0,0.0,0.0,0.0,0.0,0.0,0.0,0.0,0.0,0.0,0.0,1.5784,1.5784,0.0,0.0,0.0,0.0,1.6321,1.6526,1.6807,1.7166,1.7192,1.7326,1.7555,1.7569,1.7582,1.7582,1.7582,1.7582,1.7582,1.7903,1.8196,1.8477,1.8784,1.9078,1.9403,1.9417,1.943,1.943,1.943,1.943,1.943,1.943,1.9533,1.9654,1.98,2.01,2.0593,0.0,0.0,0.0,0.0,0.0,0.0,0.0,0.0,0.7988,0.7988,0.7988,0.7988,0.7988,0.7988,0.7988,0.7988,0.7988,0.7988,0.7988,0.7988,0.7988,0.7988,0.8825,0.9509,1.0002,1.0002,1.0632,1.1901,1.2764,1.3966,1.547,1.5919,1.6112,1.6112,1.6112,1.6005,1.5784,1.5784,1.5784,1.5784,1.5784,1.5784,0.0,0.0,0.0,0.0,0.0,0.0,0.0,0.0,0.0,0.0,0.0,0.0,0.0,0.0,0.0,0.0,0.0,0.0,0.0,0.0,0.0,0.0,0.0,0.0,0.0,0.0,0.0,0.0,0.0,0.0,0.0,0.0,0.0,0.0,0.0,0.0,0.0,1.5784,1.5784,0.0,1.6099,1.6206,1.6482,1.6857,1.6978,1.7166,1.746,1.7474,1.7475,1.7582,1.7769,1.7876,1.7876,1.8076,1.817,1.817,1.8464,1.8664,1.8784,1.9078,1.9265,1.943,1.943,1.943,1.943,1.943,1.943,1.9444,1.9573,1.9706,1.9853,2.0227,2.0494,2.0695,0.0,0.0,0.0,0.0,0.0,0.0,0.0,0.0,0.7988,0.7988,0.7988,0.7988,0.7988,0.7988,0.7988,0.7988,0.7988,0.7988,0.7988,0.7988,0.7988,0.7988,0.8874,0.9312,0.9312,0.9756,1.0668,1.2061,1.2932,1.4387,1.642,1.5914,1.5963,1.642,1.642,1.6259,1.5979,1.5979,1.5925,1.5784,1.5784,1.5784,1.5784,0.0,0.0,0.0,0.0,0.0,0.0,0.0,0.0,0.0,0.0,0.0,0.0,0.0,0.0,0.0,0.0,0.0,0.0,0.0,0.0,0.0,0.0,0.0,0.0,0.0,0.0,0.0,0.0,0.0,0.0,0.0,0.0,0.0,0.0,1.5784,1.5784,1.5784,1.5912,1.6059,1.6308,1.6496,1.6777,1.7166,1.7286,1.7422,1.7716,1.7742,1.7782,1.7889,1.809,1.8196,1.8196,1.8397,1.849,1.849,1.8784,1.8918,1.8931,1.9225,1.943,1.943,1.943,1.943,1.943,1.943,1.9426,1.9533,1.972,1.9867,2.0,2.0494,2.0735,2.0855,0.0,0.0,0.0,0.0,0.0,0.0,0.0,0.7988,0.7988,0.7988,0.7988,0.7988,0.7988,0.7988,0.7988,0.7988,0.7988,0.7988,0.7988,0.7988,0.7988,0.7988,0.7988,0.7988,0.7988,0.9369,1.0839,1.2334,1.2334,1.3802,1.6613,1.5228,1.5329,1.6727,1.6727,1.6553,1.6286,1.6273,1.6112,1.5798,1.5784,1.5784,1.5784,0.0,0.0,0.0,0.0,0.0,0.0,0.0,0.0,0.0,0.0,0.0,0.0,0.0,0.0,0.0,0.0,0.0,0.0,0.0,0.0,0.0,0.0,0.0,0.0,0.0,0.0,0.0,0.0,0.0,0.0,0.0,0.0,0.0,1.5784,1.5784,1.5798,1.5798,1.6112,1.6335,1.6348,1.6871,1.7219,1.7233,1.7501,1.7742,1.7995,1.8009,1.8142,1.8477,1.8504,1.8504,1.8504,1.8517,1.8517,1.8517,1.8811,1.8945,1.8945,1.9239,1.943,1.943,1.943,1.943,1.943,1.943,1.9533,1.98,1.9813,1.9987,2.0281,2.0575,2.0869,2.1109,0.0,0.0,0.0,0.0,0.0,0.0,0.7988,0.7988,0.7988,0.7988,0.7988,0.7988,0.7988,0.7988,0.7988,0.7988,0.7988,0.7988,0.7988,0.7988,0.7988,0.7988,0.7988,0.7988,0.7988,1.0477,1.1416,1.0819,1.3947,1.5443,1.5509,1.6138,1.6663,1.7072,1.7072,1.6911,1.6567,1.6366,1.6268,1.6126,1.5912,1.5784,1.5784,0.0,0.0,0.0,0.0,0.0,0.0,0.0,0.0,0.0,0.0,0.0,0.0,0.0,0.0,0.0,0.0,0.0,0.0,0.0,0.0,0.0,0.0,0.0,0.0,0.0,0.0,0.0,0.0,0.0,0.0,0.0,1.5784,1.5784,1.5784,1.6019,1.6152,1.6152,1.6406,1.6673,1.6938,1.73,1.7555,1.7782,1.8076,1.8277,1.837,1.837,1.841,1.849,1.8691,1.8811,1.8811,1.9025,1.9132,1.9132,1.9212,1.9239,1.9252,1.939,1.943,1.943,1.943,1.943,1.943,1.943,1.9533,1.9826,2.0027,2.0294,2.0588,2.0882,2.1042,2.1109,0.0,0.0,0.0,0.0,0.0,0.0,0.7988,0.7988,0.7988,0.7988,0.7988,0.7988,0.7988,0.7988,0.7988,0.7988,0.7988,0.7988,0.7988,0.7988,0.7988,0.7988,0.8528,0.8613,0.8133,1.0865,1.1709,1.0501,1.2987,1.4527,1.52,1.5462,1.6208,1.738,1.738,1.7219,1.6874,1.6764,1.6616,1.6433,1.6259,1.6046,1.5784,1.5784,1.5784,1.5784,1.5784,1.5784,1.5784,1.5784,0.0,0.0,0.0,0.0,0.0,0.0,0.0,0.0,0.0,0.0,0.0,0.0,0.0,0.0,0.0,0.0,0.0,0.0,0.0,0.0,0.0,0.0,0.0,0.0,1.5939,1.6019,1.6019,1.6166,1.6326,1.6433,1.682,1.7141,1.7367,1.7716,1.8036,1.8223,1.8397,1.8544,1.8664,1.8677,1.8731,1.8851,1.9025,1.9105,1.9105,1.9279,1.943,1.943,1.943,1.943,1.943,1.9492,1.9546,1.9559,1.9679,1.9733,1.9733,1.9733,1.9907,2.0174,0.0,0.0,0.0,0.0,2.1109,2.1109,0.0,0.0,0.0,0.0,0.0,0.0,0.7988,0.7988,0.7988,0.7988,0.7988,0.7988,0.7988,0.7988,0.7988,0.7988,0.7988,0.7988,0.7988,0.7988,0.7988,0.7988,0.9137,0.9322,0.832,1.0762,1.1616,1.0662,1.0901,1.2433,1.5144,1.4073,1.4995,1.7582,1.7582,1.7487,1.7246,1.7219,1.7045,1.6754,1.6727,1.638,1.5885,1.5885,1.5811,1.5784,1.5784,1.5784,1.5784,1.5784,0.0,0.0,0.0,0.0,0.0,0.0,0.0,0.0,0.0,0.0,0.0,0.0,0.0,0.0,0.0,0.0,0.0,0.0,0.0,0.0,0.0,0.0,0.0,0.0,1.6126,1.6339,1.6455,1.6469,1.6513,1.678,1.7328,1.7689,1.7689,1.8196,1.8544,1.8544,1.8571,1.8704,1.8958,1.8971,0.0,0.0,0.0,1.943,1.943,1.9457,1.947,1.947,1.9511,1.9466,1.9466,1.9733,1.9853,1.9867,2.012,2.0167,2.0167,2.0167,2.0401,2.0655,2.0414,2.0494,2.0762,2.1015,2.1109,2.1109,0.0,0.0,0.0,0.0,0.0,0.0,0.7988,0.7988,0.7988,0.7988,0.7988,0.7988,0.7988,0.7988,0.7988,0.7988,0.7988,0.7988,0.7988,0.7988,0.7988,0.7988,0.8405,0.854,0.832,1.0152,1.049,0.9133,1.1567,1.3116,1.375,1.4609,1.5902,1.7582,1.7582,1.7555,1.7488,1.73,1.7166,1.7099,1.6807,1.65,1.6192,1.6192,1.6046,1.5784,1.5784,1.5784,1.5784,1.5784,1.5784,1.5784,1.5784,1.5784,0.0,0.0,0.0,0.0,0.0,0.0,0.0,0.0,0.0,0.0,0.0,0.0,0.0,0.0,0.0,0.0,0.0,0.0,0.0,1.6192,1.6433,1.678,1.7261,1.7328,1.7355,1.7408,1.7943,1.8317,1.8317,1.8637,1.8838,1.8838,1.9065,1.9225,1.9279,1.9279,1.9305,1.943,1.943,1.943,1.943,1.9599,1.972,1.972,1.996,0.0,2.0067,2.012,2.0147,2.0147,2.0214,2.0167,2.0167,2.0167,2.0401,2.0695,2.0869,2.0975,2.1029,2.1082,2.1109,2.1109,0.0,0.0,0.0,0.0,0.0,0.0,0.7988,0.7988,0.7988,0.7988,0.7988,0.7988,0.7988,0.7988,0.7988,0.7988,0.7988,0.7988,0.7988,0.7988,0.8022,0.8153,0.8874,0.8991,0.8486,1.0004,1.013,0.8825,1.0358,1.1483,1.2191,1.294,1.4395,1.6499,1.6499,1.6935,1.7569,1.7474,1.742,1.7407,1.7208,1.6887,1.6473,1.6326,1.6179,1.6032,1.5885,1.5784,1.5784,1.5784,1.5784,1.5784,1.5784,1.5343,1.4949,0.0,0.0,0.0,0.0,0.0,0.0,0.0,0.0,0.0,0.0,0.0,0.0,0.0,0.0,1.5872,1.6019,0.0,1.6326,1.6473,1.686,1.7248,1.7542,1.7969,1.8196,1.805,1.8437,1.8704,1.8704,1.8971,1.9145,1.9145,1.9279,1.943,1.943,1.943,1.9439,1.9586,1.9586,1.9653,1.98,1.9947,2.0013,2.0013,2.016,2.0167,2.0241,2.0388,2.0454,2.0468,2.0615,2.0668,2.0668,2.0668,2.0762,2.0909,2.1056,2.1109,2.1109,2.1109,2.1109,2.1109,0.0,0.0,0.0,0.0,0.0,0.0,0.0,0.7988,0.7988,0.7988,0.7988,0.7988,0.7988,0.7988,0.7988,0.7988,0.7988,0.7988,0.7988,0.7988,0.8106,0.8313,0.9297,0.9501,0.8703,0.9808,0.9892,0.8885,0.8885,0.9644,1.1109,1.1109,1.2507,1.4984,1.5251,1.6062,1.7199,1.7477,1.7582,1.7582,1.7515,1.7208,1.6754,1.6406,1.6233,1.6152,1.5912,1.5784,1.5784,1.5486,1.5439,1.5391,1.5105,1.4316,1.3776,1.5045,1.4711,0.0,0.0,0.0,0.0,0.0,0.0,0.0,0.0,1.5784,1.5784,1.5784,1.5872,1.5992,1.6233,1.6415,1.654,1.6834,1.7328,1.7716,1.7822,1.8464,1.8865,1.8677,1.8865,1.9011,1.9011,1.9225,1.943,1.943,1.943,1.9399,1.9452,1.9511,1.9586,1.988,1.988,2.0,2.0227,2.0233,2.0321,2.0321,2.0374,2.034,2.0353,2.0655,2.0762,2.0775,2.1002,2.1109,2.1109,2.1109,2.1109,2.1109,2.1109,2.1109,2.1109,2.1109,2.1109,2.1109,0.0,0.0,0.0,0.0,0.0,0.0,0.0,0.0,0.7988,0.7988,0.7988,0.7988,0.7988,0.7988,0.7988,0.7988,0.7988,0.7988,0.7988,0.7988,0.8106,0.8313,0.8546,0.8691,0.871,0.8948,0.903,0.8885,0.8885,0.9644,1.1109,1.1109,1.1973,1.3588,1.4824,1.5476,1.5743,1.7041,1.7582,1.7555,1.7353,1.7206,1.7085,1.6536,1.6112,1.5872,1.5798,1.5784,1.5642,1.4507,1.4112,1.3884,1.2716,1.2242,1.2387,1.3728,1.4016,1.4172,1.5439,1.5784,1.5784,1.5784,1.5784,1.5784,0.0,1.5784,1.5784,1.5784,1.6046,1.6281,1.6308,1.675,1.7192,1.7435,1.7769,1.8115,1.8704,1.8865,1.9011,1.9239,1.935,1.9319,1.9319,1.9403,1.943,1.943,1.943,1.9479,1.9733,1.976,1.988,2.0174,2.0187,2.0201,2.0167,2.0494,2.0628,2.0628,2.0882,2.1015,2.1015,2.1042,2.1069,2.1069,2.1096,2.1109,2.1109,2.1109,2.1109,2.1109,2.1109,2.1109,2.1109,2.1109,2.1109,2.1109,0.0,0.0,0.0,0.0,0.0,0.0,0.0,0.0,0.0,0.7988,0.7988,0.7988,0.7988,0.7988,0.7988,0.7988,0.7988,0.7988,0.7988,0.7988,0.8106,0.8313,0.8381,0.8472,0.8703,0.8771,0.8852,0.8885,0.8885,0.921,0.9809,0.9809,1.1055,1.3318,1.3911,1.5091,1.6698,1.7186,1.738,1.7353,1.7007,1.6377,1.5582,1.6108,1.5154,1.374,1.5248,1.5784,0.0,1.4316,1.392,1.368,1.2328,1.1901,1.2134,1.3488,1.392,1.4172,1.5439,1.5784,1.5784,1.5784,1.5784,1.5784,1.5784,1.5784,1.5872,1.6046,1.6192,1.6429,1.6764,1.7032,1.7353,1.7769,1.8103,1.845,1.8865,1.9078,1.9225,1.9359,1.943,1.943,1.943,1.943,1.943,1.943,1.9519,1.9679,1.9786,1.996,2.0187,2.0481,2.0494,2.0575,2.0735,2.0869,2.0922,2.0922,2.1056,2.1109,2.1109,2.1109,2.1109,2.1109,2.1109,2.1109,2.1109,2.1109,2.1109,2.1109,2.1109,2.1109,2.1109,2.1109,2.1109,2.1109,0.0,0.0,0.0,0.0,0.0,0.0,0.0,0.0,0.0,0.0,0.7988,0.7988,0.7988,0.7988,0.7988,0.7988,0.7988,0.7988,0.7988,0.7988,0.8106,0.8313,0.832,0.8391,0.8642,0.8648,0.8864,0.9294,0.9294,0.9512,0.9884,0.9884,1.1011,1.3082,1.3455,1.4778,1.6743,1.696,1.7072,1.7058,1.67,1.5903,1.49,1.5424,1.4534,1.321,1.5105,1.5581,1.514,1.422,1.392,1.368,1.2328,1.1901,1.2134,1.3488,1.392,1.4172,1.5439,1.5534,1.5343,1.5724,1.5784,1.5784,1.5784,1.5885,1.6019,1.6233,1.6455,1.6697,1.7125,1.7259,1.7462,1.8076,1.8343,1.8624,1.8998,1.9225,1.943,1.943,1.943,1.943,1.943,1.943,1.943,1.943,1.9639,1.984,1.992,2.0201,2.0494,2.0788,2.0802,2.0895,2.1109,2.1109,2.1109,2.1109,2.1109,2.1109,2.1109,2.1109,2.1109,2.1109,2.1109,2.1109,2.1109,2.1109,2.1109,2.1109,2.1109,2.1109,2.1109,2.1109,2.1109,2.1109,0.0,0.0,0.0,0.0,0.0,0.0,0.0,0.0,0.0,0.0,0.0,0.0,0.0,0.7988,0.7988,0.7988,0.7988,0.7988,0.7988,0.7988,0.8106,0.8313,0.832,0.8336,0.8486,0.8486,0.9108,1.0352,1.0352,1.1027,1.2267,1.2267,1.2319,1.2473,1.3857,1.4519,1.4671,1.6098,1.6727,1.67,1.6406,1.6286,1.6087,1.4569,1.4663,1.5689,1.5784,1.4997,1.3968,1.392,1.392,1.368,1.2328,1.1901,1.2134,1.3488,1.392,1.4172,1.5439,1.4902,1.4268,1.5486,1.5784,1.5784,1.5784,1.6046,1.6308,1.6321,1.6777,1.7179,1.7192,1.7434,1.7769,1.8384,1.8477,1.8691,1.9279,1.9417,1.943,1.943,1.943,1.943,1.943,1.943,1.943,1.943,1.9639,1.992,2.014,2.0508,2.0802,2.1082,2.1096,2.1096,2.1109,2.1109,2.1109,2.1109,2.1109,2.1109,2.1109,2.1109,2.1109,2.1109,2.1109,2.1109,2.1109,2.1109,2.1109,2.1109,2.1109,2.1109,2.1109,2.1109,2.1109,2.1109,0.0,0.0,0.0,0.0,0.0,0.0,0.0,0.0,0.0,0.0,0.0,0.0,0.0,0.0,0.0,0.0,0.7988,0.7988,0.7988,0.7988,0.8015,0.8113,0.8119,0.8187,0.8336,0.8395,0.8643,0.9153,0.998,1.0188,0.9823,1.1578,1.2453,1.2597,1.3987,1.5115,1.5972,1.6302,1.642,1.6393,1.6099,1.5438,1.4642,1.41,1.3102,1.2037,0.0,1.4028,1.5045,1.4172,1.392,1.368,1.2328,1.2522,1.3295,1.3776,1.4507,1.5045,1.4651,1.4854,1.5248,1.5689,1.5784,1.5784,1.5784,1.5322,1.5171,1.6315,1.5362,1.4926,1.7082,1.6765,1.6687,1.8218,1.849,1.8691,1.9336,1.943,1.943,1.943,1.943,1.943,1.943,1.943,1.9452,1.9639,1.992,2.0214,2.0508,2.0802,2.1002,2.1109,2.1109,2.1109,2.1109,2.1109,2.1109,2.1109,2.1109,2.1109,2.1109,2.1109,2.1109,2.1109,2.1109,2.1109,2.1109,2.1109,2.1109,2.1109,2.1109,2.1109,2.1109,2.1109,2.1109,2.1109,0.0,0.0,0.0,0.0,0.0,0.0,0.0,0.0,0.0,0.0,0.0,0.0,0.0,0.0,0.0,0.0,0.0,0.7988,0.7988,0.7988,0.7988,0.7988,0.7988,0.8085,0.8187,0.8187,0.8482,0.9035,0.9847,1.0043,0.9745,1.1911,1.2968,1.3107,1.4427,1.553,1.638,1.6192,1.6112,1.6099,1.5912,1.5296,1.4459,1.3536,1.2425,0.0,1.1268,1.2571,1.4364,1.4028,1.392,1.3824,1.3403,1.3584,1.3968,1.4459,1.4519,1.4424,1.4555,1.4854,1.5248,1.5689,1.5784,1.5676,1.5235,1.4619,1.4368,1.5045,1.4379,1.4298,1.6376,1.6436,1.6526,1.7474,1.7631,1.7823,1.8442,1.8519,1.8765,1.9314,1.943,1.943,1.943,1.9466,1.9599,1.9786,2.0067,2.0361,2.0655,2.0949,2.1109,2.1109,2.1109,2.1109,2.1109,2.1109,2.1109,2.1109,2.1109,2.1109,2.1109,2.1109,2.1109,2.1109,2.1109,2.1109,2.1109,2.1109,2.1109,2.1109,2.1109,2.1109,2.1109,2.1109,2.1109,2.1109,0.0,0.0,0.0,0.0,0.0,0.0,0.0,0.0,0.0,0.0,0.0,0.0,0.0,0.0,0.0,0.0,0.0,0.0,0.7988,0.7988,0.7988,0.7988,0.7988,0.7988,0.7988,0.7988,0.8627,0.9903,0.9953,1.0583,1.1755,1.3199,1.3872,1.3872,1.5188,1.5784,1.5784,1.5784,1.5784,1.5784,1.5784,1.5784,1.5534,1.2969,1.2764,1.344,1.0916,1.073,1.1901,1.3343,1.3824,1.4124,1.5391,1.4949,1.4124,1.5343,1.3932,1.2533,1.5057,1.4854,1.4268,1.5439,1.5689,1.5391,1.4076,1.4023,1.3865,1.2723,1.3868,1.5099,1.5151,1.6428,1.7169,1.6259,1.6186,1.6431,1.6996,1.7138,1.7689,1.9243,1.943,1.943,1.9444,1.9639,1.9813,1.984,2.0094,2.0388,2.0681,2.0962,2.1109,2.1109,2.1109,2.1109,2.1109,2.1109,2.1109,2.1109,2.1109,2.1109,2.1109,2.1109,2.1109,2.1109,2.1109,2.1109,2.1109,2.1109,2.1109,2.1109,2.1109,2.1109,2.1109,2.1109,2.1109,2.1109,0.0,0.0,0.0,0.0,0.0,0.0,0.0,0.0,0.0,0.0,0.0,0.0,0.0,0.0,0.0,0.0,0.0,0.0,0.7988,0.7988,0.7988,0.7988,0.7988,0.7988,0.7988,0.7988,0.8187,0.8528,0.9509,0.9657,0.9065,1.2366,1.3392,1.2522,1.4806,1.5784,1.5784,1.5784,1.5784,1.5784,1.5784,1.5784,1.5629,1.4028,1.2958,1.2183,1.0583,0.9558,0.9361,1.1648,1.3054,1.4124,1.5391,1.4949,1.3968,1.4268,1.3932,1.3536,1.422,1.4854,1.514,1.4555,1.4364,1.4028,1.2716,1.2604,1.2961,1.3667,1.3601,1.3729,1.4827,1.5563,1.5958,1.5967,1.7036,1.7983,1.8402,1.8635,1.8939,1.9359,1.943,1.9452,1.9666,1.976,1.9987,2.0428,2.0521,2.0695,2.0989,2.1069,2.1109,2.1109,2.1109,2.1109,2.1109,2.1109,2.1109,2.1109,2.1109,2.1109,2.1109,2.1109,2.1109,2.1109,2.1109,2.1109,2.1109,2.1109,2.1109,2.1109,2.1109,2.1109,2.1109,2.1109,2.1109,2.1109,0.0,0.0,0.0,0.0,0.0,0.0,0.0,0.0,0.0,0.0,0.0,0.0,0.0,0.0,0.0,0.0,0.0,0.0,0.0,0.8528,0.8874,0.8874,0.8874,0.8874,0.8874,0.8287,0.7988,0.7988,0.8775,0.8726,0.8088,1.1453,1.2619,1.1999,1.4615,1.5784,1.5784,1.5784,1.5784,0.0,0.0,1.5784,1.5689,1.4411,1.3054,1.1755,1.0435,0.9509,0.9164,1.1219,1.3151,1.4758,1.4902,1.4076,1.3006,1.3006,1.3006,1.3151,1.3728,1.4854,1.5642,1.4902,1.4316,1.368,1.2958,1.2433,1.227,1.3057,1.2983,1.2987,1.3765,1.4744,1.529,1.4889,1.6311,1.7553,1.7831,1.8166,1.859,1.9301,1.943,1.9479,1.9773,1.992,2.0187,2.0641,2.0681,2.0802,2.1096,2.1109,2.1109,2.1109,2.1109,2.1109,2.1109,2.1109,2.1109,2.1109,2.1109,2.1109,2.1109,2.1109,2.1109,2.1109,2.1109,2.1109,2.1109,2.1109,2.1109,2.1109,2.1109,2.1109,2.1109,2.1109,2.1109,2.1109,0.0,0.0,0.0,0.0,0.0,0.0,0.0,0.0,0.0,0.0,0.0,0.0,0.0,0.0,0.0,0.0,0.0,0.0,0.0,0.0,1.0002,1.0002,1.0141,1.019,1.0002,0.8874,0.8187,0.7988,0.7988,0.7988,0.8038,1.0485,1.1658,1.1755,1.4376,1.5534,1.5581,1.5737,1.5784,1.5784,1.5784,1.5784,1.5676,0.0,1.3343,1.1989,1.0534,1.0002,1.019,1.1463,1.3547,1.5343,1.4268,1.2958,1.1901,1.1901,1.1901,1.2183,1.3536,1.4854,1.5784,1.5581,1.4555,1.3632,1.3632,1.2716,1.196,1.2175,1.2565,1.2812,1.2628,1.3983,1.473,1.3637,1.4922,1.6233,1.672,1.704,1.7769,1.9243,1.943,1.9492,1.9826,2.008,2.0374,2.0708,2.0735,2.0842,2.1096,2.1109,2.1109,2.1109,2.1109,2.1109,2.1109,2.1109,2.1109,2.1109,2.1109,2.1109,2.1109,2.1109,2.1109,2.1109,2.1109,2.1109,2.1109,2.1109,2.1109,2.1109,2.1109,2.1109,2.1109,2.1109,2.1109,2.1109,0.0,0.0,0.0,0.0,0.0,0.0,0.0,0.0,0.0,0.0,0.7988,0.7988,0.0,0.0,0.0,0.0,0.0,0.0,0.0,0.0,0.0,1.0002,1.1023,1.1072,0.9993,0.9756,0.9114,0.7988,0.7988,0.7988,0.8038,0.9608,1.0337,1.0435,1.3054,1.422,1.4316,1.5343,1.5784,1.5784,1.5784,1.5784,1.5784,1.5534,0.0,0.0,1.0877,1.0002,1.019,1.1463,1.2958,1.4172,1.3968,1.2958,1.1901,1.1901,1.1901,1.2183,1.3536,1.4854,1.5534,1.4507,1.3247,1.2242,1.2242,1.2096,1.2283,1.3603,1.4036,1.389,1.2944,1.3252,1.3599,1.3369,1.4822,1.6472,1.7948,1.8403,1.8792,1.9332,1.943,1.9573,2.0107,2.014,2.0454,2.0989,2.1029,2.1056,2.1109,2.1109,2.1109,2.1109,2.1109,2.1109,2.1109,2.1109,2.1109,2.1109,2.1109,2.1109,2.1109,2.1109,2.1109,2.1109,2.1109,2.1109,2.1109,2.1109,2.1109,2.1109,2.1109,2.1109,2.1109,2.1109,2.1109,2.1109,0.0,0.0,0.0,0.0,0.0,0.0,0.0,0.7988,0.7988,0.7988,0.7988,0.7988,0.7988,0.7988,0.0,0.0,0.0,0.0,0.0,0.0,0.0,0.0,1.2231,1.2668,1.2037,1.1356,1.0337,0.9023,0.0,0.8676,0.8038,0.9361,1.0337,1.1072,1.3054,1.4268,1.4949,1.5534,1.5784,1.5784,1.5784,1.5784,1.5784,0.0,0.0,0.0,0.9895,0.9854,1.1072,1.1707,1.3258,1.4758,1.4112,1.2958,1.1755,1.1121,1.1365,1.2047,1.2668,1.4316,1.5629,1.5045,1.3392,1.2242,1.3596,1.2872,1.2548,1.4863,1.4321,1.3286,1.289,1.2471,1.2191,1.2191,1.4266,1.6234,1.7234,1.8268,1.9038,1.939,1.943,1.9599,2.0174,2.0167,2.0481,2.1069,2.1109,2.1109,2.1109,2.1109,2.1109,2.1109,2.1109,2.1109,2.1109,2.1109,2.1109,2.1109,2.1109,2.1109,2.1109,2.1109,2.1109,2.1109,2.1109,2.1109,2.1109,2.1109,2.1109,2.1109,2.1109,2.1109,2.1109,2.1109,2.1109,2.1109,0.0,0.0,0.0,0.0,0.0,0.0,0.0,0.7988,0.7988,0.7988,0.7988,0.7988,0.7988,0.7988,0.7988,0.0,0.0,0.0,0.0,0.0,0.0,0.0,0.0,0.0,1.392,0.0,0.0,1.0002,1.0002,0.0,0.0,0.0,0.0,0.0,1.2861,1.4172,1.5391,1.5676,1.5784,0.0,0.0,1.5784,1.5784,0.0,0.0,0.0,0.0,0.9993,1.1512,1.1804,1.3451,1.5296,1.4555,1.3199,1.1658,1.0386,1.0925,1.1901,1.1901,1.3788,1.5784,1.5784,1.3836,1.2581,1.5201,1.3835,1.2818,1.5797,1.4554,1.2946,1.2908,1.1918,1.1109,1.1109,1.3471,1.5548,1.6195,1.7754,1.8971,1.9319,1.943,1.9573,2.0094,2.0201,2.0454,2.0975,2.1069,2.1109,2.1109,2.1109,2.1109,2.1109,2.1109,2.1109,2.1109,2.1109,2.1109,2.1109,2.1109,2.1109,2.1109,2.1109,2.1109,2.1109,2.1109,2.1109,2.1109,2.1109,2.1109,2.1109,2.1109,2.1109,2.1109,2.1109,2.1109,2.1109,0.0,0.0,0.0,0.0,0.0,0.0,0.0,0.7988,0.7988,0.7988,0.7988,0.7988,0.7988,0.7988,0.7988,0.0,0.0,0.0,0.0,0.0,0.0,0.0,0.0,0.0,0.0,0.0,0.0,1.0002,1.0002,0.0,0.0,0.0,0.0,0.0,0.0,1.2813,1.4172,1.5296,0.0,0.0,0.0,0.0,0.0,0.0,0.0,0.0,0.0,1.0974,1.0337,1.1512,1.2861,1.4268,1.5296,1.3932,1.1658,1.0386,1.0925,1.1901,1.1901,1.3788,1.5784,1.5784,1.3836,1.2581,1.5201,1.4023,1.3164,1.6045,1.5654,1.4444,1.3462,1.2064,1.1109,1.1109,1.2472,1.4211,1.606,1.7588,1.8744,1.9305,1.943,1.9492,1.9813,2.008,2.0361,2.0695,2.0962,2.1109,2.1109,2.1109,2.1109,2.1109,2.1109,2.1109,2.1109,2.1109,2.1109,2.1109,2.1109,2.1109,2.1109,2.1109,2.1109,2.1109,2.1109,2.1109,2.1109,2.1109,2.1109,2.1109,2.1109,2.1109,2.1109,2.1109,2.1109,2.1109,0.0,0.0,0.0,0.0,0.0,0.0,0.7988,0.7988,0.7988,0.7988,0.7988,0.7988,0.7988,0.7988,0.7988,0.7988,0.0,0.0,0.0,0.0,0.0,0.0,0.0,0.0,0.0,0.0,1.374,1.1121,1.194,0.0,0.0,0.0,0.0,0.0,0.0,1.3836,1.5092,1.5581,0.0,0.0,0.0,0.0,0.0,0.0,0.0,0.0,0.0,0.0,1.2425,1.2909,1.398,1.514,1.5629,1.4028,1.1804,1.1317,1.1512,1.1901,1.1901,1.3788,1.5784,1.5784,1.4459,1.3596,1.5391,1.4619,1.4132,1.6234,1.5794,1.4635,1.3493,1.2082,1.1109,1.1109,1.2344,1.3974,1.5794,1.7461,1.8637,1.9052,1.9265,1.9479,1.9773,2.0067,2.0428,2.0909,2.1042,2.1109,2.1109,2.1109,2.1109,2.1109,2.1109,2.1109,2.1109,2.1109,2.1109,2.1109,2.1109,2.1109,2.1109,2.1109,2.1109,2.1109,2.1109,2.1109,2.1109,2.1109,2.1109,2.1109,2.1109,2.1109,2.1109,2.1109,2.1109,2.1109,0.0,0.0,0.0,0.0,0.0,0.7988,0.7988,0.7988,0.7988,0.7988,0.7988,0.7988,0.7988,0.7988,0.7988,0.7988,0.8386,0.0,0.0,0.0,0.0,0.0,0.0,0.0,0.0,0.0,1.4711,1.2474,1.344,1.2764,0.0,0.0,1.2619,1.392,0.0,0.0,0.0,0.0,0.0,0.0,0.0,0.0,0.0,0.0,0.0,0.0,0.0,0.0,0.0,0.0,0.0,1.5784,1.5784,1.4268,1.2474,1.2474,1.2193,1.1999,1.2377,1.4124,1.5784,1.5784,1.4854,1.422,1.5486,1.5082,1.4873,1.641,1.6215,1.5264,1.3611,1.2778,1.2073,1.121,1.267,1.4375,1.5709,1.7385,1.8597,1.8891,1.9185,1.9452,1.9653,1.9933,2.0347,2.0935,2.0989,2.1015,2.1109,2.1109,2.1109,2.1109,2.1109,2.1109,2.1109,2.1109,2.1109,2.1109,2.1109,2.1109,2.1109,2.1109,2.1109,2.1109,2.1109,2.1109,2.1109,2.1109,2.1109,2.1109,2.1109,2.1109,2.1109,2.1109,2.1109,2.1109,0.0,0.0,0.0,0.0,0.0,0.0,0.7988,0.7988,0.7988,0.7988,0.7988,0.7988,0.7988,0.7988,0.7988,0.7988,0.9213,0.0,0.0,0.0,0.0,0.0,0.0,0.0,0.0,0.0,1.514,1.3872,1.3872,1.3199,1.1901,1.1901,1.2619,1.392,0.0,0.0,0.0,0.0,0.0,0.0,0.0,0.0,0.0,0.0,0.0,0.0,0.0,0.0,0.0,0.0,0.0,0.0,0.0,1.4902,1.3872,1.3872,1.2958,1.2183,1.3536,1.4806,1.5784,1.5784,1.4854,1.422,1.5486,1.5281,1.5154,1.645,1.7168,1.6711,1.3804,1.4449,1.4449,1.1538,1.3534,1.5505,1.583,1.7385,1.8597,1.8891,1.9185,1.943,1.943,1.9639,2.0054,2.0641,2.0681,2.0802,2.1096,2.1109,2.1109,2.1109,2.1109,2.1109,2.1109,2.1109,2.1109,2.1109,2.1109,2.1109,2.1109,2.1109,2.1109,2.1109,2.1109,2.1109,2.1109,2.1109,2.1109,2.1109,2.1109,2.1109,2.1109,2.1109,2.1109,2.1109,0.0,0.0,0.0,0.0,0.0,0.0,0.0,0.7988,0.7988,0.7988,0.7988,0.7988,0.7988,0.7988,0.7988,0.7988,0.8379,0.0,0.0,0.0,0.0,0.0,0.0,0.0,0.0,0.0,1.5188,1.392,1.4758,1.4555,1.3295,1.4172,1.4806,1.5188,1.5188,1.5439,0.0,0.0,0.0,0.0,0.0,0.0,1.5784,0.0,0.0,0.0,0.0,0.0,0.0,0.0,0.0,0.0,0.0,0.0,0.0,1.4949,1.4268,1.3343,1.3776,1.4854,1.5784,1.5784,1.5486,1.5347,1.5989,1.6124,1.6301,1.6917,1.7367,1.6988,1.5091,1.5091,1.5091,1.418,1.4824,1.5767,1.6891,1.7884,1.8517,1.8624,1.9065,1.9452,1.9639,1.9746,1.996,2.0347,2.0561,2.0722,2.0815,2.1002,2.1109,2.1109,2.1109,2.1109,2.1109,2.1109,2.1109,2.1109,2.1109,2.1109,2.1109,2.1109,2.1109,2.1109,2.1109,2.1109,2.1109,2.1109,2.1109,2.1109,2.1109,2.1109,2.1109,2.1109,2.1109,2.1109,0.0,0.0,0.0,0.0,0.0,0.0,0.0,0.7988,0.7988,0.7988,0.7988,0.7988,0.7988,0.7988,0.8187,0.8726,0.8775,0.0,0.0,0.0,0.0,0.0,0.0,0.0,1.5784,1.5784,1.5391,1.4603,1.5391,1.5391,1.4603,1.5439,1.5784,1.5784,1.5784,1.5784,0.0,0.0,0.0,0.0,0.0,0.0,1.5784,0.0,0.0,0.0,0.0,0.0,0.0,0.0,0.0,0.0,0.0,0.0,0.0,0.0,1.5248,1.4603,1.4603,1.5188,1.5784,1.5784,1.5784,1.5912,1.6206,1.65,1.6794,1.7139,1.7434,1.7147,1.5689,1.5849,1.6062,1.5476,1.5849,1.6552,1.7477,1.8103,1.8571,1.8798,1.9145,1.9497,1.9626,1.9639,1.976,2.0054,2.0241,2.0441,2.0668,2.0855,2.1002,2.1109,2.1109,2.1109,2.1109,2.1109,2.1109,2.1109,2.1109,2.1109,2.1109,2.1109,2.1109,2.1109,2.1109,2.1109,0.0,2.1109,2.1109,2.1109,2.1109,2.1109,2.1109,2.1109,2.1109,2.1109,0.0,0.0,0.0,0.0,0.0,0.0,0.0,0.7988,0.7988,0.7988,0.7988,0.7988,0.7988,0.8088,0.8627,0.9903,0.0,0.0,0.0,0.0,0.0,0.0,0.0,0.0,1.5784,1.5784,1.5784,1.5784,1.5784,1.5784,1.5784,1.5784,1.5784,1.5784,1.5784,1.5784,1.5784,1.5784,1.5784,1.5784,1.5784,1.5784,0.0,0.0,0.0,0.0,0.0,0.0,0.0,0.0,0.0,0.0,0.0,0.0,0.0,0.0,0.0,0.0,0.0,1.5784,1.5784,1.5784,1.5784,1.5912,1.6233,1.6513,0.0,1.7166,1.7447,1.7199,1.5796,1.6658,1.7147,1.5796,1.6711,1.7582,1.7582,1.8103,1.8704,1.935,1.943,1.943,1.943,1.943,1.9479,1.9746,1.9786,2.004,2.0588,2.0655,2.0802,2.1069,2.1096,2.1109,2.1109,2.1109,2.1109,2.1109,2.1109,2.1109,2.1109,2.1109,2.1109,2.1109,2.1109,2.1109,2.1109,2.1109,2.1109,2.1109,2.1109,2.1109,2.1109,2.1109,2.1109,2.1109,0.0,0.0,0.0,0.0,0.0,0.0,0.0,0.0,0.0,0.0,0.7988,0.7988,0.7988,0.8924,0.9657,0.0,0.0,0.0,0.0,0.0,0.0,0.0,0.0,0.0,1.5784,1.5784,1.5784,1.5784,1.5784,1.5784,1.5784,1.5784,1.5784,1.5784,1.5784,1.5784,1.5784,1.5784,1.5784,1.5784,1.5784,1.5784,0.0,0.0,0.0,0.0,1.5784,1.5784,0.0,0.0,0.0,0.0,0.0,0.0,0.0,0.0,1.5784,1.5784,1.5784,0.0,1.5784,1.5784,1.5784,1.5917,0.0,1.666,1.6847,1.7368,1.7542,1.7477,1.7147,1.7358,1.7477,1.7147,1.7358,1.7582,1.7582,1.8103,1.8704,1.935,1.943,1.943,1.943,1.943,1.9457,1.9466,1.9679,1.9867,2.0,2.0428,2.0708,2.0775,2.0989,2.1109,2.1109,2.1109,2.1109,2.1109,2.1109,2.1109,2.1109,2.1109,2.1109,2.1109,2.1109,2.1109,2.1109,2.1109,2.1109,2.1109,2.1109,2.1109,2.1109,2.1109,2.1109,2.1109,0.0,0.0,0.0,0.0,0.0,0.0,0.0,0.0,0.0,0.0,0.0,0.0,0.0,0.0,0.0,0.0,0.0,0.0,0.0,0.0,0.0,0.0,0.0,1.5784,1.5784,1.5784,1.5784,1.5784,1.5784,1.5784,1.5784,1.5784,1.5784,1.5784,1.5784,1.5784,1.5784,1.5784,1.5784,1.5784,1.5784,0.0,0.0,0.0,0.0,0.0,1.5784,1.5784,0.0,1.5784,1.5784,1.5784,0.0,0.0,0.0,0.0,1.5784,1.5784,1.5784,1.5784,1.5784,1.5784,1.5784,1.5979,1.6567,1.67,1.6874,1.7462,1.7582,1.7582,1.7582,1.7582,1.7582,1.7582,1.7582,1.7675,1.7956,1.8397,1.8851,1.9319,1.943,1.943,1.943,1.943,1.943,1.943,1.9506,1.9653,1.9786,2.0227,2.0535,2.0668,2.0962,2.1109,2.1109,2.1109,2.1109,2.1109,2.1109,2.1109,2.1109,2.1109,2.1109,2.1109,2.1109,2.1109,2.1109,2.1109,2.1109,2.1109,2.1109,2.1109,2.1109,2.1109,2.1109,2.1109,0.0,0.0,0.0,0.0,0.0,0.0,0.0,0.0,0.0,0.0,0.0,0.0,0.0,0.0,0.0,0.0,0.0,0.0,0.0,0.0,0.0,0.0,0.0,1.5784,1.5784,1.5784,1.5784,1.5784,1.5784,1.5784,1.5784,1.5784,1.5784,1.5784,1.5784,1.5784,1.5784,1.5784,1.5784,1.5784,1.5784,0.0,0.0,0.0,0.0,0.0,0.0,0.0,0.0,1.5784,1.5784,1.5784,1.5784,0.0,0.0,0.0,0.0,0.0,1.5784,1.5784,1.5784,1.5784,1.5784,1.5965,1.6513,1.6673,1.686,1.7408,1.7555,1.7582,1.7582,1.7582,1.7582,1.7582,1.7622,1.7849,1.841,1.8744,1.9038,1.939,1.943,1.943,1.943,1.943,1.943,1.943,1.943,1.9479,1.972,2.0013,2.0307,2.0601,2.0895,2.1069,2.1109,2.1109,2.1109,2.1109,2.1109,2.1109,2.1109,2.1109,2.1109,2.1109,2.1109,2.1109,2.1109,2.1109,2.1109,2.1109,2.1109,2.1109,2.1109,2.1109,2.1109,2.1122,0.0,0.0,0.0,0.0,0.0,0.0,0.0,0.0,0.0,0.0,0.0,0.0,0.0,0.0,0.0,0.0,0.0,0.0,0.0,0.0,0.0,1.5784,1.5784,1.5784,1.5784,1.5784,1.5784,1.5784,1.5784,1.5784,1.5784,1.5784,1.5784,1.5784,1.5784,1.5784,1.5784,1.5784,1.5784,1.5784,1.5784,0.0,0.0,0.0,0.0,0.0,0.0,0.0,0.0,1.5784,1.5784,1.5784,1.5784,0.0,0.0,0.0,0.0,0.0,1.5784,1.5784,1.5784,1.5784,1.5784,1.5912,1.6259,1.6526,1.6807,1.7192,1.746,1.7582,1.7582,1.7582,1.7582,1.7582,1.7809,1.8103,1.8437,1.8744,1.9038,1.939,1.943,1.943,1.943,1.943,1.943,1.943,1.943,1.9444,1.9439,1.9706,2.0,2.0294,2.0588,2.0855,2.1109,2.1109,2.1109,2.1109,2.1109,2.1109,2.1109,2.1109,2.1109,2.1109,2.1109,2.1109,2.1109,2.1109,2.1109,2.1109,2.1109,2.1109,2.1109,2.1109,2.1109,2.1176,0.0,0.0,0.0,0.0,0.0,0.0,0.0,0.0,0.0,0.0,0.0,0.0,0.0,0.0,0.0,0.0,0.0,0.0,0.0,0.0,1.5784,1.5784,1.5784,1.5784,1.5784,1.5784,1.5784,1.5784,1.5784,1.5784,1.5784,1.5784,1.5784,1.5784,1.5784,1.5784,1.5784,1.5784,1.5784,1.5784,0.0,0.0,0.0,0.0,0.0,0.0,0.0,0.0,0.0,0.0,1.5784,1.5784,1.5784,0.0,0.0,0.0,0.0,0.0,1.5784,1.5784,1.5784,1.5784,1.5784,1.5912,1.6206,1.638,1.6593,1.7112,1.73,1.7447,1.7555,1.7582,1.7582,1.7582,1.7983,1.833,1.8477,1.8878,1.9212,1.9359,1.943,1.943,1.943,1.943,1.943,1.943,1.943,1.943,1.943,1.9639,1.9867,2.0,2.0441,2.0735,2.0869,2.1029,2.1109,2.1109,2.1109,2.1109,2.1109,2.1109,2.1109,2.1109,2.1109,2.1109,2.1109,2.1109,2.1109,2.1109,2.1109,2.1109,2.1109,2.1109,2.1216,2.1416,0.0,0.0,0.0,0.0,0.0,0.0,0.0,0.0,0.0,0.0,0.0,0.0,0.0,0.0,0.0,0.0,0.0,0.0,0.0,0.0,1.5784,1.5784,1.5784,1.5784,1.5784,1.5784,1.5784,1.5784,1.5784,1.5784,1.5784,1.5784,1.5784,1.5784,1.5784,1.5784,1.5784,1.5784,1.5784,1.5784,0.0,0.0,0.0,0.0,0.0,0.0,0.0,0.0,0.0,0.0,0.0,0.0,0.0,0.0,0.0,1.5784,1.5784,1.5784,1.5784,1.5784,1.5784,1.5784,1.5784,1.5885,1.6112,1.6219,1.6455,1.6898,1.7112,1.7273,1.7487,1.7542,1.7609,1.7675,1.8143,1.8517,1.8584,1.9038,1.943,1.943,1.943,1.943,1.943,1.943,1.943,1.943,1.943,1.943,1.943,1.9573,1.9733,1.98,2.0241,2.0535,2.0681,2.0895,2.1042,2.1109,2.1109,2.1109,2.1109,2.1109,2.1109,2.1109,2.1109,2.1109,2.1109,2.1109,2.1109,2.1109,2.1109,2.1109,2.1109,2.1109,2.1296,2.1655,0.0,0.0,0.0,0.0,0.0,0.0,0.0,0.0,0.0,0.0,0.0,0.0,0.0,0.0,0.0,0.0,0.0,0.0,0.0,0.0,1.5784,1.5784,1.5784,1.5784,1.5784,1.5784,1.5784,1.5784,1.5784,1.5784,1.5784,1.5784,1.5784,1.5784,1.5784,1.5784,1.5784,1.5784,1.5784,1.5784,1.5784,0.0,0.0,0.0,0.0,0.0,0.0,0.0,0.0,0.0,0.0,0.0,0.0,0.0,1.5784,1.5784,1.5784,1.5784,1.5784,1.5784,1.5784,1.5784,1.5784,1.5784,1.5811,1.6072,1.6335,1.6375,1.6817,1.7206,1.7233,1.7447,1.7675,1.7916,1.8277,1.8584,1.8851,1.9172,1.943,1.943,1.943,1.943,1.943,1.943,1.943,1.943,1.943,1.943,1.943,1.9444,1.9519,1.9786,1.984,2.012,2.0668,2.0695,2.0842,2.1109,2.1109,2.1109,2.1109,2.1109,2.1109,2.1109,2.1109,2.1109,2.1109,2.1109,2.1109,2.1109,2.1109,2.1109,2.1109,2.1109,2.1296,2.1655,0.0,0.0,0.0,0.0,0.0,0.0,0.0,0.0,0.0,0.0,0.0,0.0,0.0,0.0,0.0,0.0,0.0,0.0,0.0,1.5784,1.5784,1.5784,1.5784,1.5784,1.5784,1.5784,1.5784,1.5784,1.5784,1.5784,1.5784,1.5784,1.5784,1.5784,1.5784,1.5784,1.5784,1.5784,1.5784,1.5784,1.5784,1.5784,0.0,0.0,0.0,0.0,0.0,0.0,0.0,0.0,1.5784,1.5784,1.5784,1.5784,1.5784,1.5784,1.5784,1.5784,1.5784,1.5784,1.5784,1.5784,1.5784,1.5784,1.5784,1.5912,1.6046,1.6233,1.6593,1.6981,1.7407,1.7502,1.7675,1.7983,1.829,1.8597,1.8878,1.9185,1.943,1.943,1.943,1.943,1.943,1.943,1.943,1.943,1.943,1.943,1.943,1.943,1.947,1.9533,1.9706,1.9907,2.0134,2.0494,2.0735,2.0842,2.1029,2.1109,2.1109,2.1109,2.1109,2.1109,2.1109,2.1109,2.1109,2.1109,2.1109,2.1109,2.1109,2.1109,2.1109,2.1109,2.1296,2.1655,0.0,0.0,0.0,0.0,0.0,0.0,0.0,0.0,0.0,0.0,0.0,0.0,0.0,0.0,0.0,0.0,0.0,0.0,1.5784,1.5784,1.5784,1.5784,1.5784,1.5784,1.5784,1.5784,1.5784,1.5784,1.5784,1.5784,1.5784,1.5784,1.5784,1.5784,1.5784,1.5784,1.5784,1.5784,1.5784,1.5784,1.5784,1.5784,0.0,0.0,0.0,0.0,0.0,0.0,0.0,0.0,1.5784,1.5784,1.5784,1.5784,1.5784,1.5784,1.5784,1.5784,1.5784,1.5784,1.5784,1.5784,1.5784,1.5784,1.5784,1.5784,1.5912,1.6206,1.658,1.6994,1.7488,1.7582,1.7702,1.8103,1.8343,1.8624,1.9011,1.9239,1.943,1.943,1.943,1.943,1.943,1.943,1.943,1.943,1.943,1.943,1.943,1.943,1.943,1.943,1.9559,1.9706,1.98,2.0201,2.0494,2.0681,2.0882,2.1015,2.1109,2.1109,2.1109,2.1109,2.1109,2.1109,2.1109,2.1109,2.1109,2.1109,2.1109,2.1109,2.1109,2.1109,2.1611,2.2226,0.0,0.0,0.0,0.0,0.0,0.0,0.0,0.0,0.0,0.0,0.0,0.0,0.0,0.0,0.0,0.0,0.0,0.0,1.5737,1.5784,1.5784,1.5784,1.5784,1.5784,1.5784,1.5784,1.5784,1.5784,1.5784,1.5784,1.5784,1.5784,1.5784,1.5784,1.5784,1.5784,1.5784,1.5784,1.5784,1.5784,1.5784,1.5784,1.5784,0.0,0.0,0.0,0.0,0.0,0.0,0.0,1.5784,1.5784,1.5784,1.5784,1.5784,1.5784,1.5784,1.5784,1.5784,1.5784,1.5784,1.5784,1.5784,1.5784,1.5784,1.5784,1.5912,1.6219,1.679,1.7286,1.7528,1.7582,1.7782,1.8397,1.849,1.8691,1.9336,1.943,1.943,1.943,1.943,1.943,1.943,1.943,1.943,1.943,1.943,1.943,1.943,1.943,1.943,1.943,1.943,1.9506,1.9786,1.98,2.0094,2.0668,2.073,2.0891,2.1109,2.1109,2.1109,2.1109,2.1109,2.1109,2.1109,2.1109,2.1109,2.1109,2.1109,2.1109,2.1109,2.1109,2.2153,2.3476,0.0,0.0,0.0,0.0,0.0,0.0,0.0,0.0,0.0,0.0,0.0,0.0,0.0,0.0,0.0,0.0,0.0,0.0,1.5784,1.5784,1.5784,1.5784,1.5784,1.5784,1.5784,1.5784,1.5784,1.5784,1.5784,1.5784,1.5784,1.5784,1.5784,1.5784,1.5784,1.5784,1.5784,1.5784,1.5784,1.5784,1.5784,1.5784,1.5784,0.0,0.0,0.0,0.0,0.0,0.0,0.0,0.0,0.0,1.5784,1.5784,1.5784,1.5784,1.5784,1.5784,1.5784,1.5784,1.5784,1.5784,1.5784,1.5784,1.5784,1.5992,1.6286,1.6844,1.7085,1.7286,1.7528,1.7582,1.7782,1.8397,1.849,1.8691,1.9336,1.943,1.943,1.943,1.943,1.943,1.943,1.943,1.943,1.943,1.943,1.943,1.943,1.943,1.943,1.943,1.943,1.947,1.9492,1.9693,1.9987,2.0361,2.1713,2.192,2.1109,2.1109,2.1109,2.1172,2.2341,2.2215,2.1172,2.2341,2.2841,2.2841,2.2841,2.2841,2.2841,2.2841,2.3139,2.3571,0.0,0.0,0.0,0.0,0.0,0.0,0.0,0.0,0.0,0.0,1.5486,1.5629,0.0,0.0,0.0,0.0,0.0,0.0,0.0,1.5784,1.5784,1.5784,1.5784,1.5784,1.5784,1.5784,1.5784,1.5784,1.5784,1.5784,1.5784,1.5784,1.5784,1.5784,1.5784,1.5784,1.5784,1.5784,1.5784,1.5784,1.5784,1.5784,1.5784,0.0,0.0,0.0,0.0,0.0,0.0,0.0,0.0,0.0,1.5784,1.5784,1.5784,1.5784,1.5784,1.5784,1.5784,1.5784,1.5784,1.5784,1.5784,1.5838,1.6077,1.6313,1.658,1.7099,1.7286,1.742,1.7555,1.7582,1.7782,1.8397,1.849,1.8691,1.9336,1.943,1.943,1.943,1.943,1.943,1.943,1.943,1.943,1.943,1.943,1.943,1.943,1.943,1.943,1.943,1.943,1.943,1.943,1.9546,1.9773,2.0067,2.1826,2.2386,2.1922,2.2034,2.1727,2.1172,2.2904,2.3387,2.3124,2.4163,2.4532,2.4532,2.4532,2.4532,2.4532,2.4532,2.4962,2.5439,0.0,0.0,1.5784,1.5784,0.0,0.0,0.0,0.0,0.0,0.0,1.4854,1.5188,0.0,0.0,0.0,0.0,0.0,0.0,0.0,0.0,1.5784,1.5784,1.5784,1.5784,1.5784,1.5784,1.5784,1.5784,1.5784,1.5784,1.5784,1.5784,1.5784,1.5784,1.5784,1.5784,1.5784,1.5784,1.5784,1.5784,1.5784,1.5784,1.5784,1.5784,0.0,0.0,0.0,0.0,0.0,0.0,0.0,0.0,1.5784,1.5784,1.5784,1.5784,1.5784,1.5784,1.5784,1.5784,1.5784,1.5784,1.5784,1.5979,1.6567,1.67,1.6794,1.7179,1.7447,1.7582,1.7582,1.7582,1.7769,1.8357,1.8477,1.8691,1.9252,1.9403,1.943,1.943,1.943,1.943,1.943,1.943,1.943,1.943,1.943,1.943,1.943,1.943,1.943,1.943,1.943,1.943,1.943,1.943,1.9506,1.98,2.1438,2.2526,2.3051,2.338,2.2812,2.1664,2.3139,2.4717,2.6227,2.6227,2.6227,2.6227,2.6227,2.6227,2.6227,2.6227,2.7134,2.8224,0.0,0.0,1.5784,1.5784,0.0,0.0,0.0,0.0,0.0,0.0,0.0,0.0,0.0,0.0,0.0,0.0,0.0,0.0,0.0,0.0,1.5784,1.5784,1.5784,1.5784,1.5784,1.5784,1.5784,1.5784,1.5784,1.5784,1.5784,1.5784,1.5784,1.5784,1.5784,1.5784,1.5784,1.5784,1.5784,1.5784,1.5784,1.5784,1.5784,1.5784,1.5784,0.0,0.0,0.0,0.0,0.0,0.0,0.0,1.5784,1.5784,1.5784,1.5784,1.5784,1.5784,1.5784,1.5784,1.5784,1.5784,1.5784,1.5979,1.6567,1.67,1.686,1.7382,1.7542,1.7582,1.7582,1.7582,1.7702,1.8022,1.8343,1.8611,1.8971,1.9225,1.943,1.943,1.943,1.943,1.943,1.943,1.943,1.943,1.943,1.943,1.943,1.943,1.943,1.943,1.943,1.943,1.943,1.943,1.9506,1.9859,2.2659,2.3515,2.2647,2.2914,2.3734,2.4947,2.5314,2.6409,2.7871,2.7871,2.7871,2.7871,2.7871,2.7871,2.7871,2.7871,2.811,2.8367,0.0,0.0,0.0,0.0,0.0,0.0,0.0,0.0,0.0,0.0,0.0,0.0,0.0,0.0,0.0,0.0,0.0,0.0,0.0,0.0,1.5784,1.5784,1.5784,1.5784,1.5784,1.5784,1.5784,1.5784,1.5784,1.5784,1.5784,1.5784,1.5784,1.5784,1.5784,1.5784,1.5784,1.5784,1.5784,1.5784,1.5784,1.5784,1.5784,1.5784,1.5784,1.5784,1.5784,0.0,0.0,0.0,0.0,0.0,0.0,0.0,1.5784,1.5784,1.5784,1.5784,1.5784,1.5784,1.5784,1.5784,1.5784,1.5904,1.6393,1.6607,1.6834,1.734,1.7488,1.7582,1.7582,1.7582,1.7689,1.7942,1.8183,1.8424,1.8865,1.9052,1.9212,1.9403,1.943,1.943,1.943,1.943,1.943,1.943,1.943,1.943,1.943,1.943,1.943,1.943,1.943,1.943,1.943,1.943,1.9833,2.0713,2.3026,2.4342,2.4694,2.4221,2.5157,2.7134,2.7134,2.8051,2.9589,2.9589,2.9589,2.9589,2.9589,2.9589,2.9589,2.9589,2.9589,2.9589,0.0,0.0,0.0,0.0,0.0,0.0,0.0,0.0,0.0,0.0,0.0,0.0,0.0,0.0,0.0,0.0,0.0,0.0,0.0,0.0,0.0,1.5784,1.5784,1.5784,1.5784,1.5784,1.5784,1.5784,1.5784,1.5784,1.5784,1.5784,1.5784,1.5784,1.5784,1.5784,1.5784,1.5784,1.5784,1.5784,1.5784,1.5784,1.5784,1.5784,1.5784,1.5784,1.5784,1.5784,1.5784,1.5784,0.0,0.0,0.0,0.0,1.5784,1.5784,1.5784,1.5784,1.5784,1.5784,1.5784,1.5784,1.5784,1.5912,1.6206,1.646,1.6727,1.7125,1.7434,1.7582,1.7582,1.7582,1.7662,1.7876,1.7955,1.8155,1.8648,1.8811,1.8958,1.9252,1.9292,1.9319,1.9359,1.943,1.943,1.943,1.943,1.943,1.943,1.943,1.943,1.943,1.9649,1.9649,1.943,1.9924,2.0644,2.1643,2.3375,2.5349,2.7391,2.6481,2.6898,2.8426,2.8724,2.9648,3.0898,3.0898,3.0898,3.0898,3.0898,3.0898,3.0898,3.0898,3.0898,3.0898,0.0,0.0,0.0,0.0,0.0,0.0,0.0,0.0,0.0,0.0,1.3199,1.4076,0.0,0.0,0.0,0.0,0.0,0.0,0.0,0.0,0.0,1.5784,1.5784,1.5784,1.5784,1.5784,1.5784,1.5784,1.5784,1.5784,1.5784,1.5784,1.5784,1.5784,1.5784,1.5784,1.5784,1.5784,1.5784,1.5784,1.5784,1.5784,1.5784,1.5784,1.5784,1.5784,1.5784,1.5784,1.5784,1.5784,1.5784,0.0,0.0,0.0,1.5784,1.5784,1.5784,1.5784,1.5784,1.5784,1.5784,1.5784,1.5784,1.5912,1.6206,1.6348,1.6486,1.7085,1.7434,1.7582,1.7582,1.7582,1.7595,1.7635,1.7876,1.8022,1.8102,1.8384,1.8651,1.8945,1.8985,1.9078,1.9345,1.943,1.943,1.943,1.943,1.943,1.943,1.943,1.943,1.943,2.0644,2.0702,1.9417,2.1941,2.2645,2.1643,2.4433,2.6793,2.8674,2.8932,2.8782,2.8486,2.9962,3.0704,3.0898,3.0898,3.0898,3.0898,3.0898,3.0898,3.0898,3.0898,3.0898,3.0898,0.0,0.0,0.0,0.0,0.0,0.0,0.0,0.0,0.0,0.0,0.0,1.4949,0.0,0.0,0.0,0.0,0.0,0.0,0.0,0.0,0.0,1.5784,1.5784,1.5784,1.5784,1.5784,1.5784,1.5784,1.5784,1.5784,1.5784,1.5784,1.5784,1.5784,1.5784,1.5784,1.5784,1.5784,1.5784,1.5784,1.5784,1.5784,1.5784,1.5784,1.5784,1.5784,1.5784,1.5784,1.5784,1.5784,1.5784,1.5784,1.5784,0.0,0.0,0.0,1.5784,1.5784,1.5784,1.5784,1.5784,1.5784,1.5784,1.5858,1.5992,1.6152,1.6402,1.6656,1.7072,1.7447,1.7555,1.7582,1.7582,1.7582,1.7702,1.7849,1.8009,1.8156,1.8357,1.8651,1.8677,1.8798,1.9092,1.9118,1.9185,1.9417,1.943,1.943,1.943,1.943,1.943,1.943,2.0802,2.1316,2.0644,2.2774,2.3933,2.4139,2.6318,2.7883,2.8926,2.9121,2.9255,2.9466,3.0471,3.0898,3.0898,3.0898,3.0898,3.0898,3.0898,3.0898,3.0898,3.0898,3.0898,3.0898,0.0,0.0,0.0,0.0,0.0,0.0,0.0,0.0,0.0,0.0,0.0,0.0,0.0,0.0,0.0,0.0,0.0,0.0,0.0,0.0,0.0,0.0,0.0,1.5784,1.5784,1.5784,1.5784,1.5784,1.5784,1.5784,1.5784,1.5784,1.5784,1.5784,1.5784,1.5784,1.5784,1.5784,1.5784,1.5784,1.5784,1.5784,1.5784,1.5784,1.5784,1.5784,1.5784,1.5784,1.5784,1.5784,1.5784,1.5784,1.5784,1.5784,0.0,0.0,0.0,1.5784,1.5784,1.5784,1.5784,1.5784,1.5784,1.5784,1.5784,1.6005,1.6179,1.6259,1.667,1.7085,1.7408,1.7528,1.7582,1.7582,1.7582,1.7662,1.7876,1.7916,1.8036,1.8343,1.8384,1.849,1.8784,1.8878,1.9011,1.9239,1.9319,1.9533,1.9924,1.9591,1.9764,2.0486,2.1586,2.2153,2.2153,2.3654,2.5151,2.6662,2.778,2.8457,2.8769,2.8867,2.9336,3.0059,3.0508,3.0781,3.0898,3.0898,3.0898,3.0898,3.0898,3.0898,3.0898,3.0898,3.0898,3.0898,0.0,0.0,0.0,0.0,0.0,0.0,0.0,0.0,0.0,0.0,0.0,0.0,1.5784,1.5784,1.5784,1.5784,1.5784,0.0,0.0,0.0,0.0,0.0,0.0,0.0,1.5784,1.5784,1.5784,1.5784,1.5784,1.5784,1.5784,1.5784,1.5784,1.5784,1.5784,1.5784,1.5784,1.5784,1.5784,1.5784,1.5784,1.5784,1.5784,1.5784,1.5784,1.5784,1.5784,1.5784,1.5784,1.5784,1.5784,1.5784,1.5784,1.5784,1.5784,0.0,0.0,0.0,1.5784,1.5784,1.5784,1.5784,1.5784,1.5784,1.5784,1.5798,1.5939,1.6219,1.6299,1.6536,1.7112,1.7447,1.7582,1.7582,1.7582,1.7582,1.7609,1.7609,1.7716,1.7982,1.8009,1.8129,1.8477,1.8758,1.8931,1.8945,1.9212,2.004,2.1415,2.0141,2.0658,2.3487,2.3654,2.371,2.371,2.5206,2.6717,2.8174,2.8247,2.8301,2.834,2.873,2.916,2.9629,3.0059,3.0488,3.0898,3.0898,3.0898,3.0898,3.0898,3.0898,3.0898,3.0898,3.0898,3.0898,0.0,0.0,0.0,0.0,0.0,0.0,0.0,0.0,0.0,0.0,0.0,0.0,0.0,1.5784,1.5784,1.5784,1.5784,0.0,0.0,0.0,0.0,0.0,0.0,0.0,1.5784,1.5784,1.5784,1.5784,1.5784,1.5784,1.5784,1.5784,1.5784,1.5784,1.5784,1.5784,1.5784,1.5784,1.5784,1.5784,1.5784,1.5784,1.5784,1.5784,1.5784,1.5784,1.5784,1.5784,1.5784,1.5784,1.5784,1.5784,1.5784,1.5784,1.5784,1.5784,1.5784,1.5784,1.5784,1.5784,1.5784,1.5784,1.5784,1.5784,1.5784,1.5784,1.5811,1.5965,1.6139,1.6388,1.6603,1.7032,1.742,1.7555,1.7582,1.7582,1.7582,1.7582,1.7622,1.7729,1.7756,1.7876,1.8183,1.8249,1.8462,1.8891,1.9025,1.9832,2.1514,2.1088,2.1699,2.371,2.4765,2.5717,2.6662,2.7222,2.778,2.8301,2.8301,2.8301,2.8301,2.8437,2.875,2.918,2.9609,3.0215,3.0898,3.0898,3.0898,3.0898,3.0898,3.0898,3.0898,3.0898,3.0898,3.0898,0.0,0.0,0.0,0.0,0.0,0.0,0.0,0.0,0.0,1.5784,0.0,0.0,0.0,0.0,1.5784,1.5784,1.5784,1.5784,1.5784,1.5784,0.0,0.0,0.0,0.0,1.5784,1.5784,1.5784,1.5784,1.5784,1.5784,1.5784,1.5784,1.5784,1.5784,1.5784,1.5784,1.5784,1.5784,1.5784,1.5784,1.5784,1.5784,1.5784,1.5784,1.5784,1.5784,1.5784,1.5784,1.5784,1.5784,1.5784,1.5784,1.5784,1.5784,1.5784,1.5784,1.5784,1.5784,1.5784,1.5784,1.5784,1.5784,1.5784,1.5784,1.5784,1.5784,1.5784,1.5784,1.5992,1.6152,1.6308,1.6643,1.7032,1.742,1.7487,1.7527,1.7569,1.7582,1.7582,1.7582,1.7582,1.7874,1.849,1.8198,1.836,1.9251,1.8998,1.978,2.2066,2.1688,2.2408,2.4488,2.6045,2.733,2.8281,2.8301,2.8301,2.8301,2.8301,2.8301,2.8301,2.8301,2.8516,2.8945,2.9375,2.998,3.0664,3.082,3.0898,3.0898,3.0898,3.0898,3.0898,3.0898,3.0898,3.0898,0.0,0.0,0.0,0.0,0.0,0.0,0.0,0.0,1.5784,1.5784,0.0,0.0,0.0,0.0,0.0,1.5784,1.5784,1.5784,1.5784,1.5784,0.0,0.0,0.0,0.0,1.5784,1.5784,1.5784,1.5784,1.5784,1.5784,1.5784,1.5784,1.5784,1.5784,1.5784,1.5784,1.5784,1.5784,1.5784,1.5784,1.5784,1.5784,1.5784,1.5784,1.5784,1.5784,1.5784,1.5784,1.5784,1.5784,1.5784,1.5784,1.5784,1.5784,1.5784,1.5784,1.5784,1.5784,0.0,0.0,0.0,1.5784,1.5784,1.5784,1.5784,1.5784,1.5784,1.5784,1.5784,1.5912,1.6206,1.6308,1.6496,1.7085,1.7179,1.7286,1.7528,1.7569,1.7569,1.7582,1.7582,1.8146,1.9472,1.8688,1.8602,2.0068,1.9219,1.9996,2.326,2.2072,2.2782,2.6082,2.7565,2.8301,2.8301,2.8301,2.8301,2.8301,2.8301,2.8301,2.8301,2.8301,2.8516,2.8926,2.9375,2.9805,3.0215,3.0703,3.0898,3.0898,3.0898,3.0898,3.0898,3.0898,3.0898,3.0898,0.0,0.0,0.0,0.0,0.0,0.0,1.5784,1.5784,1.5784,0.0,0.0,0.0,1.5784,1.5784,1.5784,1.5784,1.5784,1.5784,1.5784,1.5784,1.5784,1.5784,1.5784,1.5784,1.5784,1.5784,1.5784,1.5784,1.5784,1.5784,1.5784,1.5784,1.5784,1.5784,1.5784,1.5784,1.5784,1.5784,1.5784,1.5784,1.5784,1.5784,1.5784,1.5784,1.5784,1.5784,1.5784,1.5784,1.5784,1.5784,1.5784,1.5784,1.5784,1.5784,1.5784,1.5784,1.5784,1.5784,1.5784,0.0,0.0,0.0,0.0,0.0,1.5784,1.5784,1.5784,1.5784,1.5784,1.5811,1.5939,1.5952,1.6072,1.6509,1.6687,1.6927,1.7286,1.7326,1.7393,1.7555,1.7582,1.8146,1.9472,1.9301,1.9814,2.1422,2.127,2.2042,2.4263,2.5359,2.6417,2.7653,2.8067,2.8301,2.8301,2.8301,2.8301,2.8301,2.8301,2.8301,2.8301,2.8301,2.8359,2.8516,2.9258,2.9629,2.9805,3.0566,3.0898,3.0898,3.0898,3.0898,3.0898,3.0898,3.0898,3.0898,0.0,0.0,1.5784,1.5784,0.0,1.5784,1.5784,1.5784,1.5784,0.0,0.0,0.0,1.5784,1.5784,1.5784,1.5784,1.5784,1.5784,1.5784,1.5784,1.5784,1.5784,1.5784,1.5784,1.5784,1.5784,1.5784,1.5784,1.5784,1.5784,1.5784,1.5784,1.5784,1.5784,1.5784,1.5784,1.5784,1.5784,1.5784,1.5784,1.5784,1.6103,1.6527,1.6008,1.6103,1.6527,1.5974,1.5784,1.5784,1.5784,1.5784,1.5784,1.5784,1.5784,1.5784,1.5784,1.5784,1.5784,1.5784,1.5784,1.5784,1.5784,0.0,0.0,1.648,1.6574,1.6574,1.6574,1.6574,1.6433,1.5927,1.5784,1.5838,1.6059,1.6233,1.6486,1.6901,1.7125,1.7259,1.7434,1.7515,1.8342,2.0282,1.9937,2.0478,2.2639,2.2246,2.2706,2.4481,2.656,2.7826,2.8027,2.8203,2.8301,2.8301,2.8301,2.8301,2.8301,2.8301,2.8301,2.8301,2.8301,2.8301,2.834,2.9004,2.9394,2.9685,3.0312,3.0723,3.0898,3.0898,3.0898,3.0898,3.0898,3.0898,3.0898,0.0,0.0,1.5784,1.5784,1.5784,1.5784,1.5784,1.5784,1.5784,0.0,1.5784,1.5784,1.5784,1.5784,1.5784,1.5784,1.5784,1.5784,1.5784,1.5784,1.5784,1.5784,1.5784,1.5784,1.5784,1.5784,1.5784,1.5784,1.5784,1.5784,1.5784,1.5784,1.5784,1.5784,1.5784,1.5784,1.5784,1.5784,1.5784,1.5784,1.5784,1.648,1.7358,1.6244,1.648,1.7358,1.6386,1.6008,1.6008,1.6008,1.5927,1.5832,1.5974,1.5927,1.5832,1.615,1.6103,1.6008,1.6008,1.6008,1.5974,1.5832,1.5784,0.0,1.7404,1.7591,1.7544,1.7684,1.7591,1.7124,1.6008,1.5784,1.5784,1.5784,1.5927,1.6211,1.6779,1.6988,1.7163,1.7292,1.7432,1.8608,2.1374,2.0527,2.0899,2.3683,2.2818,2.2823,2.4463,2.6454,2.7611,2.7708,2.8027,2.8242,2.8301,2.8301,2.8301,2.8301,2.8301,2.8301,2.8301,2.8301,2.8301,2.832,2.873,2.916,2.9609,3.0019,3.0469,3.0898,3.0898,3.0898,3.0898,3.0898,3.0898,3.0898,1.5784,1.5784,1.5784,1.5784,1.5784,1.5784,1.5784,1.5784,1.5784,1.5784,1.5784,1.5784,1.5784,1.5784,1.5784,1.5784,1.5784,1.5784,1.5784,1.5784,1.5784,1.5784,1.5784,1.5784,1.5784,1.5784,1.5784,1.5784,1.5784,1.5784,1.5784,1.5784,1.5784,1.5784,1.5784,1.5784,1.5784,1.5784,1.5784,1.5784,1.5784,1.5974,1.615,1.5879,1.5974,1.6244,1.703,1.7326,1.7326,1.7326,1.6669,1.5961,1.6998,1.6622,1.6197,1.8211,1.8087,1.7326,1.7326,1.7326,1.7091,1.6055,1.5784,0.0,1.7404,1.6904,1.648,1.7498,1.6904,1.6103,1.5832,1.5784,1.5784,1.5784,1.6669,1.7443,1.7775,1.703,1.6922,1.8137,1.7438,1.8053,2.1032,2.1064,2.2141,2.5099,2.5069,2.526,2.5929,2.6392,2.7004,2.7689,2.7806,2.7949,2.8281,2.8301,2.8301,2.8301,2.8301,2.8301,2.8301,2.8301,2.8301,2.832,2.873,2.916,2.9609,3.0019,3.0469,3.0898,3.0898,3.0898,3.0898,3.0898,3.0898,3.0898,1.5784,1.5784,1.5784,1.5784,1.5784,1.5784,1.5784,1.5784,1.5784,1.5784,1.5784,1.5784,1.5784,1.5784,1.5784,1.5784,1.5784,1.5784,1.5784,1.5784,1.5784,1.5784,1.5784,1.5784,1.5784,1.5784,1.5784,1.5784,1.5784,1.5784,1.5784,1.5784,1.5784,1.5784,1.5784,1.5784,1.5784,1.5784,1.5784,1.5784,1.5784,1.6197,1.6669,1.6055,1.656,1.7669,1.7684,1.8102,1.8503,1.7917,1.7279,1.6857,1.7498,1.7264,1.7124,1.8948,1.9085,1.8596,1.8596,1.8596,1.8457,1.7809,1.7669,0.0,0.0,1.8534,1.7855,1.8457,1.7623,1.6574,1.5927,1.5784,1.5784,1.5784,1.6857,1.7977,1.8691,1.8375,1.8351,1.9095,1.8258,1.8469,2.0671,2.1097,2.2449,2.5441,2.5693,2.5791,2.6055,2.6269,2.6582,2.7012,2.7441,2.7826,2.7988,2.8184,2.8301,2.8301,2.8301,2.8301,2.8301,2.8301,2.8301,2.8301,2.8516,2.8848,2.9277,2.9707,3.0156,3.0566,3.0801,3.0898,3.0898,3.0898,3.0898,3.0898,1.5798,1.5784,1.5784,1.5784,1.5784,1.5784,1.5784,1.5784,1.5798,1.5912,1.5824,1.5798,1.5912,1.5858,1.5784,1.5784,1.5784,1.5784,1.5784,1.5784,1.5784,1.5784,1.5784,1.5784,1.5784,1.5784,1.5784,1.5784,1.5784,1.5784,1.5784,1.5784,1.5784,1.5784,1.5784,1.5784,1.5784,1.5784,1.5784,1.5784,1.5784,1.6433,1.7264,1.648,1.739,1.9085,1.8596,1.8993,1.9679,1.8457,1.8056,1.8056,1.8056,1.8056,1.8319,1.977,2.0042,1.9861,1.9861,1.9679,1.9497,1.9497,1.9314,1.9451,0.0,0.0,0.0,1.9131,1.818,1.7044,1.5974,1.6021,1.6103,1.5832,1.7264,1.8642,1.9405,2.0113,2.0344,1.9879,1.9145,1.9155,2.0406,2.1385,2.297,2.5373,2.5635,2.5693,2.5693,2.6074,2.6309,2.6387,2.7129,2.763,2.7728,2.8086,2.8301,2.8301,2.8301,2.8301,2.8301,2.8301,2.8301,2.8301,2.8301,2.8535,2.8945,2.9394,2.9824,3.0234,3.0703,3.0898,3.0898,3.0898,3.0898,3.0898,1.5885,1.5784,1.5784,1.5784,1.5784,1.5784,1.5784,1.5784,1.5925,1.6192,1.5992,1.5925,1.6192,1.5992,1.5784,1.5784,1.5784,1.5784,1.5784,1.5784,1.5784,1.5784,1.5784,1.5784,1.5784,1.5784,1.5784,1.5784,1.5784,1.5784,1.5784,1.5784,1.5784,1.5784,1.5784,1.5784,1.5784,1.5784,1.5784,1.5784,1.5784,1.5879,1.6103,1.7138,1.7638,1.8195,2.015,2.1006,2.0926,1.9724,1.9314,1.9314,1.9314,1.9314,1.9724,2.2006,2.1943,2.1105,2.1105,2.0296,1.9497,1.9497,1.8688,1.8226,1.9451,0.0,1.7917,1.7917,0.0,1.5974,1.5832,0.0,0.0,1.5961,1.8656,2.0567,1.9633,2.1356,2.1928,1.9791,1.9458,1.9605,2.0105,2.2892,2.4793,2.5137,2.5508,2.5693,2.5693,2.5732,2.5996,2.6387,2.6836,2.7285,2.7708,2.8086,2.8301,2.8301,2.8301,2.8301,2.8301,2.8301,2.8301,2.8301,2.8301,2.8535,2.8945,2.9394,2.9824,3.0234,3.0703,3.0898,3.0898,3.0898,3.0898,3.0898,1.5885,1.5784,1.5784,1.5784,1.5784,1.5784,1.5784,1.5979,1.6126,1.6259,1.6313,1.638,1.6513,1.6406,1.6273,1.6099,1.6086,1.6086,1.6086,1.5925,1.5912,1.6086,1.5925,1.5784,1.5784,1.5784,1.5784,1.5784,1.5784,1.5784,1.5784,1.5784,1.5784,1.5784,1.5784,1.5784,1.5784,1.5784,1.5784,1.5784,1.5784,1.5784,1.5927,1.7217,1.8549,1.9906,2.0944,2.1765,2.2031,2.0133,1.9997,2.0522,2.0522,2.0522,2.0899,2.2599,2.2731,2.2359,2.2359,2.1987,2.1587,2.1587,2.123,2.0962,2.1454,2.0087,1.8734,1.8734,0.0,0.0,0.0,0.0,0.0,0.0,1.9844,2.1105,2.0612,2.2031,2.2448,2.0747,1.9951,1.9674,2.0085,2.2017,2.3814,2.5019,2.5234,2.5469,2.5674,2.5693,2.5771,2.5996,2.6426,2.6855,2.7285,2.7715,2.8047,2.8301,2.8301,2.8301,2.8301,2.8301,2.8301,2.8301,2.8301,2.8398,2.8594,2.9023,2.9453,2.9883,3.0312,3.0644,3.0898,3.0898,3.0898,3.0898,1.6019,1.5838,1.5784,1.5784,1.5784,1.5784,1.5784,1.6086,1.6348,1.638,1.658,1.674,1.682,1.6754,1.662,1.6406,1.6393,1.6366,1.6273,1.6139,1.6099,1.6152,1.6019,1.5912,1.5784,1.5784,1.5784,1.5784,1.5784,1.5784,1.5784,1.5784,1.5784,1.5784,1.5784,1.5784,1.5784,1.5784,1.5784,1.5784,1.5784,1.6008,1.6433,1.7358,1.8993,2.0836,2.115,2.1854,2.2359,2.0584,2.0809,2.1747,2.1391,2.1525,2.1987,2.2862,2.3101,2.3101,2.3101,2.2862,2.2687,2.3013,2.2862,2.2624,2.2624,2.1257,1.9906,1.9588,1.8826,0.0,0.0,0.0,1.9906,1.9542,0.0,2.1658,2.1346,2.2359,2.2624,2.1436,2.0522,2.0235,2.0876,2.1889,2.3148,2.4797,2.5047,2.5273,2.5674,2.5693,2.5693,2.5693,2.6172,2.6582,2.7012,2.7441,2.7871,2.8301,2.8301,2.8301,2.8301,2.8301,2.8301,2.8301,2.8301,2.8301,2.832,2.875,2.918,2.9665,3.0039,3.0488,3.0898,3.0898,3.0898,3.0898,1.6415,1.6019,1.5784,1.5784,1.5784,1.5784,1.5784,1.6086,1.638,1.666,1.67,1.682,1.7152,1.6874,1.67,1.6687,1.6687,1.6567,1.6335,1.6526,1.6433,1.5824,1.6112,1.6126,1.5784,1.5784,1.5784,1.5784,1.5784,1.5784,1.5784,1.5784,1.5784,1.5784,1.5784,1.5784,1.5784,1.5784,1.5784,1.5784,1.5784,1.6527,1.7638,1.7684,1.8457,1.9724,2.0881,2.1346,2.1346,2.1257,2.2031,2.2818,2.1658,2.212,2.3057,2.3101,2.3101,2.3101,2.3101,2.2271,2.1658,2.2818,2.2208,2.1346,2.1346,2.1302,2.0926,1.9724,1.9451,1.9451,1.9451,2.0432,2.0836,1.9679,2.1498,0.0,0.0,2.2359,2.2624,2.1436,2.1257,2.1721,2.2882,2.3446,2.3919,2.4414,2.4824,2.5273,2.5674,2.5693,2.5693,2.5693,2.6172,2.6582,2.7012,2.7441,2.7871,2.8301,2.8301,2.8301,2.8301,2.8301,2.8301,2.8301,2.8301,2.8301,2.832,2.875,2.918,2.9665,3.0039,3.0488,3.0898,3.0898,3.0898,3.0898,1.6951,1.646,1.6059,1.5858,1.5784,1.5851,1.6086,1.6366,1.666,1.7018,1.7168,1.7328,1.7474,1.7341,1.7208,1.7072,1.7045,1.7005,1.6911,1.6754,1.662,1.642,1.6326,1.6126,1.5784,1.5784,1.5784,1.5784,1.5784,1.5784,1.5784,1.5784,1.5784,1.5784,1.5784,1.5784,1.5784,1.5784,1.5784,1.5784,1.5784,1.6574,1.7777,1.8596,1.9633,2.0612,2.0268,2.1123,2.2359,2.1569,2.212,2.3038,2.2624,2.2775,2.3101,2.3101,2.3101,2.3101,2.3101,2.2818,2.258,2.3013,2.2775,2.2492,2.2492,2.1854,2.115,2.0792,2.0702,2.0702,2.0702,2.1676,2.2359,2.1943,2.2599,2.295,0.0,2.2862,2.295,2.2536,2.1791,2.148,2.1854,2.307,2.3965,2.4375,2.4824,2.5273,2.5674,2.5693,2.5693,2.5693,2.583,2.6172,2.6602,2.7012,2.7441,2.7943,2.8164,2.8301,2.8301,2.8301,2.8301,2.8301,2.8301,2.8301,2.8301,2.8437,2.875,2.918,2.9609,3.0059,3.0469,3.0781,3.0898,3.0898,1.7219,1.6898,1.646,1.6059,1.5992,1.6086,1.638,1.6673,1.6978,1.7179,1.7447,1.7582,1.7582,1.7582,1.7502,1.7367,1.7353,1.7313,1.7206,1.7061,1.6874,1.6567,1.6473,1.6246,1.5784,1.5784,1.5784,1.5784,1.5784,1.5784,1.5784,1.5784,1.5784,1.5784,1.5784,1.5784,1.5784,1.5784,1.5784,1.5784,1.5784,1.6574,1.7777,1.8549,1.9633,2.0612,2.0268,2.1123,2.2403,2.2076,2.2448,2.3101,2.3101,2.3101,2.3101,2.3101,2.3101,2.3101,2.3101,2.3101,2.3101,2.3101,2.3101,2.3101,2.3101,2.2492,2.1943,2.1943,2.1943,2.1943,2.1943,2.258,2.3101,2.3101,2.3101,2.3101,0.0,2.3101,2.3101,2.3101,2.2403,2.1943,2.1943,2.2917,2.3789,2.4375,2.4668,2.5098,2.5654,2.5693,2.5693,2.5693,2.5693,2.5937,2.6387,2.666,2.709,2.7728,2.793,2.8144,2.8301,2.8301,2.8301,2.8301,2.8301,2.8301,2.8301,2.8301,2.8535,2.8965,2.9394,2.9824,3.0254,3.0723,3.0898,3.0898,1.7273,1.7206,1.7032,1.6469,1.6348,1.6393,1.6687,1.7018,1.7206,1.7219,1.746,1.7582,1.7582,1.7582,1.7582,1.7582,1.7582,1.7462,1.7246,1.7487,1.7208,1.6402,1.6567,1.6433,1.5858,1.5784,1.5784,1.5784,1.5784,1.5784,0.0,0.0,0.0,1.5784,1.5784,1.5784,1.5784,1.5784,1.5784,1.5784,1.5784,1.6622,1.7777,1.7777,1.8596,1.9815,2.0899,2.1346,2.1569,2.2731,2.3101,2.3101,2.3101,2.3101,2.3101,2.3101,2.3101,2.3101,2.3101,2.3101,2.3101,2.3101,2.3101,2.3101,2.3101,2.3101,2.3101,2.3101,2.3101,2.3101,2.3101,2.3101,2.3101,2.3101,2.3101,2.3101,2.3101,2.3101,2.3101,2.3101,2.3101,2.3101,2.3101,2.314,2.3491,2.4355,2.4453,2.4844,2.5635,2.5693,2.5693,2.5693,2.5693,2.5888,2.6348,2.6387,2.6816,2.7689,2.7708,2.7891,2.8301,2.8301,2.8301,2.8301,2.8301,2.8301,2.8301,2.8301,2.8535,2.8926,2.9375,2.9805,3.0254,3.0723,3.0898,3.0898,1.7488,1.7353,1.7152,1.7005,1.674,1.6687,1.7045,1.7152,1.7273,1.7487,1.7542,1.7582,1.7582,1.7582,1.7582,1.7582,1.7582,1.7555,1.7475,1.7542,1.7382,1.6991,1.678,1.654,1.6166,1.5939,1.5784,1.5784,1.5784,1.5784,1.5784,0.0,0.0,0.0,1.5784,1.5784,1.5784,1.5784,1.5784,1.5784,1.5784,1.7124,1.9039,1.9039,2.0359,2.2094,2.1525,2.1898,2.2687,2.3013,2.3101,2.3101,2.3101,2.3101,2.3101,2.3101,2.3101,2.3101,2.3101,2.3101,2.3101,2.3101,2.3101,2.3101,2.3101,2.3101,2.3101,2.3101,2.3101,2.3101,2.3101,2.3101,2.3101,2.3101,2.3101,2.3101,2.3101,2.3101,2.3101,2.3101,2.3101,2.3101,2.3101,2.3666,2.418,2.4394,2.4972,2.544,2.5674,2.5693,2.5693,2.5693,2.5693,2.5752,2.5898,2.623,2.666,2.7187,2.7519,2.7891,2.8301,2.8301,2.8301,2.8301,2.8301,2.8301,2.8301,2.8301,2.8359,2.8496,2.8926,2.9551,3.0254,3.0723,3.0898,3.0898,1.7582,1.7501,1.7393,1.7393,1.7194,1.7141,1.7367,1.7393,1.7447,1.7555,1.7582,1.7582,1.7582,1.7582,1.7582,1.7582,1.7582,1.7582,1.7582,1.7582,1.7501,1.7219,1.7045,1.67,1.6335,1.6112,1.5965,1.5784,1.5784,1.5784,1.5784,0.0,0.0,0.0,1.5784,1.5784,1.5784,1.5784,1.5784,1.5784,1.5784,1.7296,0.0,1.9497,2.0989,2.2994,2.2359,2.2536,2.3101,2.3101,2.3101,2.3101,2.3101,2.3101,2.3101,2.3101,2.3101,2.3101,2.3101,2.3101,2.3101,2.3101,2.3101,2.3101,2.3101,2.3101,2.3101,2.3101,2.3101,2.3101,2.3101,2.3101,2.3101,2.3101,2.3101,2.3101,2.3101,2.3101,2.3101,2.3101,2.3101,2.3101,2.3101,2.375,2.4219,2.4414,2.5059,2.5527,2.5674,2.5693,2.5693,2.5693,2.5693,2.5693,2.5693,2.5977,2.6328,2.6738,2.7168,2.7598,2.8027,2.8203,2.8301,2.8301,2.8301,2.8301,2.8301,2.8301,2.8301,2.8359,2.8965,2.9609,3.0254,3.0723,3.0898,3.0898,1.7582,1.7582,1.7582,1.7582,1.7582,1.7582,1.7582,1.7582,1.7582,1.7582,1.7582,1.7582,1.7582,1.7582,1.7582,1.7582,1.7582,1.7582,1.7582,1.7582,1.7527,1.7273,1.7219,1.6965,1.6442,1.6362,1.6152,1.5885,1.5798,1.5784,1.5784,0.0,0.0,1.5784,1.5784,1.5784,1.5784,1.5784,1.5784,1.5784,1.5784,1.7296,1.9497,1.9497,2.0989,2.3101,2.3101,2.3101,2.3101,2.3101,2.3101,2.3101,2.3101,2.3101,2.3101,2.3101,2.3101,2.3101,2.3101,2.3101,2.3101,2.3101,2.3101,2.3101,2.3101,2.3101,2.3101,2.3101,2.3101,2.3101,2.3101,2.3101,2.3101,2.3101,2.3101,2.3101,2.3101,2.3101,2.3101,2.3101,2.3101,0.0,2.3101,2.3535,2.3965,2.4375,2.4824,2.5273,2.5674,2.5693,2.5693,2.5693,2.5693,2.5693,2.5693,2.5693,2.5957,2.6387,2.6816,2.7246,2.7728,2.8105,2.8301,2.8301,2.8301,2.8301,2.8301,2.8301,2.8301,2.8379,2.9238,2.9785,3.0176,3.0703,3.0898,3.0898,1.7582,1.7582,1.7582,1.7582,1.7582,1.7582,1.7582,1.7582,1.7582,1.7582,1.7582,1.7582,1.7582,1.7582,1.7582,1.7582,1.7582,1.7582,1.7582,1.7582,1.7555,1.7515,1.7326,1.7152,1.7045,1.6576,1.6246,1.6192,1.5952,1.5784,1.5784,1.5784,1.5784,1.5784,1.5784,1.5784,1.5784,1.5784,1.5784,1.5784,1.5784,1.7296,1.9497,1.9497,2.0989,2.3101,2.3101,2.3101,2.3101,2.3101,2.3101,2.3101,2.3101,2.3101,2.3101,2.3101,2.3101,2.3101,2.3101,2.3101,2.3101,2.3101,2.3101,2.3101,2.3101,2.3101,2.3101,2.3101,2.3101,2.3101,2.3101,2.3101,2.3101,2.3101,2.3101,2.3101,2.3101,2.3101,2.3101,2.3101,2.3101,2.3101,2.3101,2.3535,2.3965,2.4375,2.4824,2.5273,2.5674,2.5693,2.5693,2.5693,2.5693,2.5693,2.5693,2.5693,2.5957,2.6387,2.6816,2.7246,2.7728,2.8105,2.8301,2.8301,2.8301,2.8301,2.8301,2.8301,2.8301,2.8379,2.9238,2.9609,2.9785,3.0586,3.0898,3.0898,1.7582,1.7582,1.7582,1.7582,1.7582,1.7582,1.7582,1.7582,1.7582,1.7582,1.7582,1.7582,1.7582,1.7582,1.7582,1.7582,1.7582,1.7582,1.7582,1.7582,1.7582,1.7582,1.7501,1.7353,1.7206,1.6777,1.642,1.6321,1.5979,1.5784,1.5784,1.5784,1.5784,1.5784,1.5784,1.5784,1.5784,1.5784,1.5784,1.5879,1.6527,1.7902,1.9588,2.0206,2.1543,2.3101,2.3101,2.3101,2.3101,2.3101,2.3101,2.3101,2.3101,2.3101,2.3101,2.3101,2.3101,2.3101,2.3101,2.3101,2.3101,2.3101,2.3101,2.3101,2.3101,2.3101,2.3101,2.3101,2.3101,2.3101,2.3101,2.3101,2.3101,2.3101,2.3101,2.3101,2.3101,2.3101,2.3101,2.3101,2.3101,2.3101,2.3101,2.3276,2.3711,2.4375,2.4824,2.5273,2.5674,2.5693,2.5693,2.5693,2.5693,2.5693,2.5693,2.5693,2.5791,2.6055,2.6699,2.7129,2.7344,2.8008,2.8301,2.8301,2.8301,2.8301,2.8301,2.8301,2.8301,2.8359,2.8984,2.9375,2.9704,3.0293,3.0684,3.0898,1.7582,1.7582,1.7582,1.7582,1.7582,1.7582,1.7582,1.7582,1.7582,1.7582,1.7582,1.7582,1.7582,1.7582,1.7582,1.7582,1.7582,1.7582,1.7582,1.7582,1.7582,1.7582,1.7582,1.7475,1.73,1.6954,1.666,1.6366,1.6072,1.5885,1.5784,1.5784,1.5784,1.5784,1.5784,1.5784,1.5784,1.5784,1.5784,1.5879,1.6904,1.818,1.9588,2.0567,2.1854,2.3101,2.3101,2.3101,2.3101,2.3101,2.3101,2.3101,2.3101,2.3101,2.3101,2.3101,2.3101,2.3101,2.3101,2.3101,2.3101,2.3101,2.3101,2.3101,2.3101,2.3101,2.3101,2.3101,2.3101,2.3101,2.3101,2.3101,2.3101,2.3101,2.3101,2.3101,2.3101,2.3101,2.3101,2.3101,2.3101,2.3101,2.3101,2.3101,2.3452,2.4355,2.4727,2.5176,2.5654,2.5693,2.5693,2.5693,2.5693,2.5693,2.5693,2.5693,2.5693,2.5693,2.6551,2.7012,2.7051,2.791,2.8301,2.8301,2.8301,2.8301,2.8301,2.8301,2.8301,2.834,2.875,2.918,2.9685,3.0039,3.0488,3.0898,1.7582,1.7582,1.7582,1.7582,1.7582,1.7582,1.7582,1.7582,1.7582,1.7582,1.7582,1.7582,1.7582,1.7582,1.7582,1.7582,1.7582,1.7582,1.7582,1.7582,1.7582,1.7582,1.7582,1.7569,1.7542,1.7313,1.7018,1.666,1.638,1.6086,1.5784,1.5784,1.5784,1.5784,1.5784,1.5784,1.5784,1.5784,1.5784,1.5832,1.5927,1.739,1.9497,1.9633,2.1078,2.3101,2.3101,2.3101,2.3101,2.3101,2.3101,2.3101,2.3101,2.3101,2.3101,2.3101,2.3101,2.3101,2.3101,2.3101,2.3101,2.3101,2.3101,2.3101,2.3101,2.3101,2.3101,2.3101,2.3101,2.3101,2.3101,2.3101,2.3101,2.3101,2.3101,2.3101,2.3101,2.3101,2.3101,2.3101,2.3101,2.3101,2.3101,2.3101,2.3452,2.4355,2.4453,2.4844,2.5635,2.5693,2.5693,2.5693,2.5693,2.5693,2.5693,2.5693,2.5693,2.5693,2.6551,2.7012,2.7051,2.791,2.8301,2.8301,2.8301,2.8301,2.8301,2.8301,2.8301,2.834,2.875,2.918,2.9685,3.0039,3.0488,3.0898,1.7582,1.7582,1.7582,1.7582,1.7582,1.7582,1.7582,1.7582,1.7582,1.7582,1.7582,1.7582,1.7582,1.7582,1.7582,1.7582,1.7582,1.7582,1.7582,1.7582,1.7582,1.7582,1.7582,1.7582,1.7582,1.7353,1.7139,1.7018,1.6549,1.6219,1.6086,1.5912,1.5784,1.5784,1.5784,1.5784,1.5784,1.5784,1.5784,1.5879,1.6622,1.7544,1.8596,2.0042,2.1168,2.212,2.2818,2.3101,2.3101,2.3101,2.3101,2.3101,2.3101,2.3101,2.314,2.3457,2.3535,2.3594,2.3783,2.3861,2.3861,2.3861,2.3861,2.3848,2.3594,2.3535,2.3457,2.314,2.3101,2.3101,2.3101,2.3101,2.3101,2.3101,2.3101,2.3101,2.3101,2.3101,2.3101,2.3101,2.3101,2.3101,2.3101,2.3101,2.3354,2.3984,2.4277,2.4805,2.5635,2.5693,2.5693,2.5693,2.5693,2.5693,2.5693,2.5693,2.5693,2.5693,2.6551,2.7012,2.7051,2.791,2.8301,2.8301,2.8301,2.8301,2.8301,2.8301,2.8301,2.832,2.8476,2.8965,2.959,2.9766,3.0273,3.0898,1.7582,1.7582,1.7582,1.7582,1.7582,1.7582,1.7582,1.7582,1.7582,1.7582,1.7582,1.7582,1.7582,1.7582,1.7582,1.7582,1.7582,1.7582,1.7582,1.7582,1.7582,1.7582,1.7582,1.7582,1.7582,1.7434,1.7286,1.7206,1.6777,1.6496,1.6308,1.5965,1.5784,1.5784,1.5784,1.5784,1.5784,1.5784,1.5784,1.5879,1.6763,1.7358,1.787,1.9588,2.0657,2.1436,2.2252,2.2818,2.312,2.3237,2.332,2.332,2.332,2.332,2.3374,2.3848,2.3965,2.4043,2.4336,2.4414,2.4414,2.4414,2.4414,2.4336,2.4043,2.3965,2.3848,2.3418,2.3179,2.3101,2.3101,2.3101,2.3101,2.3101,2.3101,2.3101,2.3101,2.3101,2.3101,2.3101,2.3101,2.3101,2.3101,2.3101,2.3335,2.3926,2.4258,2.4746,2.5508,2.5615,2.5693,2.5693,2.5693,2.5693,2.5693,2.5693,2.5693,2.5693,2.6551,2.7012,2.7051,2.791,2.8301,2.8301,2.8301,2.8301,2.8301,2.8301,2.8301,2.8301,2.8301,2.8809,2.9626,2.9626,3.0137,3.0898,1.7582,1.7582,1.7582,1.7582,1.7582,1.7582,1.7582,1.7582,1.7582,1.7582,1.7582,1.7582,1.7582,1.7582,1.7582,1.7582,1.7582,1.7582,1.7582,1.7582,1.7582,1.7582,1.7582,1.7582,1.7582,1.7582,1.7487,1.7206,1.7192,1.6898,1.6308,1.5965,1.5784,1.5784,1.5784,1.5784,1.5784,1.5784,1.5784,1.5784,1.5832,1.6574,1.7684,1.7731,1.9222,2.1302,2.1346,2.2076,2.3159,2.3633,2.3789,2.3789,2.3789,2.3789,2.3867,2.4277,2.4414,2.4414,2.4414,2.4414,2.4414,2.4414,2.4414,2.4414,2.4414,2.4414,2.4297,2.3867,2.3437,2.3101,2.3101,2.3101,2.3101,2.3101,2.3101,2.3101,2.3101,2.3101,2.3101,2.3101,2.3101,2.3101,2.3101,2.3101,2.3452,2.4355,2.4414,2.4609,2.5106,2.5488,2.5693,2.5693,2.5693,2.5693,2.5693,2.5693,2.5693,2.5693,2.6551,2.7012,2.7051,2.791,2.8301,2.8301,2.8301,2.8301,2.8301,2.8301,2.8301,2.8301,2.8301,2.8809,2.9626,2.9626,3.0137,3.0898,1.7582,1.7582,1.7582,1.7582,1.7582,1.7582,1.7582,1.7582,1.7582,1.7582,1.7582,1.7582,1.7582,1.7582,1.7582,1.7582,1.7582,1.7582,1.7582,1.7582,1.7582,1.7582,1.7582,1.7582,1.7582,1.7582,1.7542,1.7448,1.73,1.6898,1.6321,1.6179,1.6019,1.5784,1.5784,1.5784,1.5784,1.5784,1.5784,1.5784,1.5784,1.6055,1.648,1.7358,1.8688,2.0195,2.1354,2.2569,2.3652,2.4082,2.4219,2.4277,2.457,2.4453,2.4297,2.4727,2.4863,2.4922,2.5234,2.5265,2.5265,2.5265,2.5265,2.5234,2.4922,2.4629,2.4297,2.3867,2.3672,2.3496,2.314,2.3101,2.3101,2.3101,2.3101,2.3101,2.3101,2.3101,2.3101,2.3101,2.3101,2.3101,2.3101,2.3101,2.3335,2.3945,2.4258,2.4746,2.5488,2.5615,2.5693,2.5693,2.5693,2.5693,2.5693,2.5693,2.5693,2.5693,2.6551,2.7324,2.7891,2.8164,2.8301,2.8301,2.8301,2.8301,2.8301,2.8301,2.8301,2.8301,2.8301,2.8633,2.916,2.9453,2.9922,3.0469,1.7756,1.7662,1.7582,1.7582,1.7582,1.7582,1.7582,1.7582,1.7582,1.7582,1.7582,1.7582,1.7582,1.7582,1.7582,1.7582,1.7582,1.7582,1.7582,1.7582,1.7582,1.7582,1.7582,1.7582,1.7582,1.7582,1.7582,1.7582,1.734,1.7018,1.6643,1.6486,1.6339,1.6152,1.6152,1.6152,1.6152,1.6152,1.6152,1.6152,1.6152,1.6152,1.6201,1.7007,1.8422,2.0065,2.1112,2.2566,2.4102,2.4512,2.4668,2.4746,2.5176,2.5137,2.4961,2.5234,2.5312,2.5371,2.5615,2.5693,2.5693,2.5693,2.5693,2.5615,2.5391,2.498,2.459,2.4316,2.4023,2.3711,2.3437,2.3198,2.3101,2.3101,2.3101,2.3101,2.3101,2.3101,2.3101,2.3101,2.3101,2.3101,2.3101,2.3101,2.3335,2.3984,2.4277,2.4805,2.5635,2.5693,2.5693,2.5693,2.5693,2.5693,2.5693,2.5693,2.5693,2.5693,2.6551,2.7461,2.8301,2.8301,2.8301,2.8301,2.8301,2.8301,2.8301,2.8301,2.8301,2.8301,2.8301,2.8555,2.8965,2.9414,2.9844,3.0273,1.8022,1.7836,1.7609,1.7609,1.7595,1.7582,1.7582,1.7582,1.7582,1.7582,1.7582,1.7582,1.7582,1.7582,1.7582,1.7582,1.7582,1.7582,1.7582,1.7582,1.7582,1.7582,1.7582,1.7582,1.7582,1.7582,1.7582,1.7582,1.7367,1.7219,1.7192,1.686,1.6727,1.67,1.67,1.67,1.67,1.67,1.67,1.67,1.67,1.675,1.685,1.685,1.8444,2.0714,2.0795,2.2386,2.4531,2.4961,2.5165,2.5243,2.5605,2.5693,2.5693,2.5693,2.5693,2.5693,2.5693,2.5693,2.5693,2.5693,2.5693,2.5693,2.5693,2.541,2.5145,2.5125,2.4414,2.3828,2.3789,2.3437,2.3101,2.3101,2.3101,2.3101,2.3101,2.3101,2.3101,2.3101,2.3101,2.3101,2.3101,2.3101,2.3452,2.4355,2.4414,2.4805,2.5635,2.5693,2.5693,2.5693,2.5693,2.5693,2.5693,2.5693,2.5713,2.5791,2.6641,2.7461,2.8301,2.8301,2.8301,2.8301,2.8301,2.8301,2.8301,2.8301,2.8301,2.8301,2.8301,2.8535,2.8926,2.9394,2.9824,3.0234,1.8384,1.8143,1.7943,1.7943,1.7742,1.7582,1.7582,1.7582,1.7582,1.7582,1.7582,1.7582,1.7582,1.7582,1.7582,1.7582,1.7582,1.7582,1.7582,1.7582,1.7582,1.7582,1.7582,1.7582,1.7582,1.7582,1.7582,1.7582,1.7515,1.742,1.7206,1.7125,1.6978,1.67,1.67,1.67,1.67,1.67,1.67,1.67,1.67,1.7285,1.8213,1.8213,1.9845,2.2167,2.2517,2.3632,2.498,2.543,2.5586,2.5557,2.5654,2.5693,2.5693,2.5693,2.5693,2.5693,2.5693,2.5693,2.5693,2.5693,2.5693,2.5693,2.5693,2.5615,2.5488,2.5137,2.4648,2.418,2.3848,2.3437,2.3101,2.3101,2.3101,2.3101,2.3101,2.3101,2.3101,2.3101,2.3101,2.3101,2.3101,2.3101,2.3452,2.4355,2.4414,2.4805,2.5635,2.5693,2.5693,2.5693,2.5693,2.5693,2.5693,2.5693,2.6025,2.6719,2.6914,2.7461,2.8301,2.8301,2.8301,2.8301,2.8301,2.8301,2.8301,2.8301,2.8301,2.8301,2.8301,2.8359,2.8535,2.9297,2.9629,2.9824,1.8691,1.845,1.825,1.825,1.8116,1.7996,1.7996,1.7996,1.7996,1.7996,1.7996,1.7996,1.7996,1.7996,1.7943,1.7809,1.7662,1.7582,1.7582,1.7582,1.7582,1.7582,1.7582,1.7582,1.7582,1.7582,1.7582,1.7582,1.7582,1.7554,1.7393,1.7393,1.7313,1.7101,1.7101,1.7101,1.7101,1.7101,1.7101,1.7152,1.7752,1.8448,1.919,1.9841,2.1311,2.3118,2.3401,2.432,2.541,2.5615,2.5693,2.5693,2.5693,2.5693,2.5693,2.5693,2.5693,2.5693,2.5693,2.5693,2.5693,2.5693,2.5693,2.5693,2.5693,2.5693,2.5615,2.543,2.5019,2.459,2.416,2.373,2.3379,2.312,2.3101,2.3101,2.3101,2.3101,2.3101,2.3101,2.3101,2.3101,2.3101,2.3101,2.3452,2.4355,2.4414,2.4805,2.5635,2.5693,2.5693,2.5693,2.5693,2.5693,2.5693,2.5693,2.6122,2.7012,2.7012,2.7461,2.8301,2.8301,2.8301,2.8301,2.8301,2.8301,2.8301,2.8301,2.8301,2.8301,2.8301,2.8301,2.8398,2.9258,2.9626,2.9687,1.8985,1.8758,1.8557,1.8557,1.8517,1.849,1.849,1.849,1.849,1.849,1.849,1.849,1.849,1.849,1.8384,1.8075,1.7836,1.7635,1.7582,1.7582,1.7582,1.7582,1.7582,1.7582,1.7582,1.7582,1.7582,1.7582,1.7582,1.7582,1.7582,1.7582,1.7582,1.7582,1.7582,1.7582,1.7582,1.7582,1.7582,1.774,1.9072,1.9731,2.0092,2.1456,2.2818,2.3998,2.3998,2.4707,2.5693,2.5693,2.5693,2.5693,2.5693,2.5693,2.5693,2.5693,2.5693,2.5693,2.5693,2.5693,2.5693,2.5693,2.5693,2.5693,2.5693,2.5693,2.5693,2.5693,2.5371,2.4988,2.4492,2.4082,2.3652,2.3159,2.3101,2.3101,2.3101,2.3101,2.3101,2.3101,2.3101,2.3101,2.3101,2.3101,2.3452,2.4355,2.4414,2.4805,2.5635,2.5693,2.5693,2.5693,2.5693,2.5693,2.5693,2.5693,2.6122,2.7012,2.7012,2.7461,2.8301,2.8301,2.8301,2.8301,2.8301,2.8301,2.8301,2.8301,2.8301,2.8301,2.8301,2.8301,2.8398,2.9258,2.9626,2.9687,1.9292,1.9065,1.8851,1.8851,1.8651,1.849,1.849,1.849,1.849,1.849,1.849,1.849,1.849,1.849,1.8477,1.8424,1.8143,1.7862,1.7595,1.7582,1.7582,1.7582,1.7582,1.7582,1.7582,1.7582,1.7582,1.7582,1.7582,1.7582,1.7582,1.7582,1.7582,1.7582,1.7582,1.7582,1.7582,1.7582,1.7582,1.774,1.9072,2.0333,2.1491,2.2868,2.4196,2.5382,2.5382,2.5528,2.5693,2.5693,2.5693,2.5693,2.5693,2.5693,2.5693,2.5693,2.5693,2.5693,2.5693,2.5693,2.5693,2.5693,2.5693,2.5693,2.5693,2.5693,2.5693,2.5693,2.5371,2.4988,2.4492,2.4082,2.3652,2.3159,2.3101,2.3101,2.3101,2.3101,2.3101,2.3101,2.3101,2.3101,2.3101,2.3101,2.3452,2.4355,2.4414,2.4805,2.5635,2.5693,2.5693,2.5693,2.5693,2.5693,2.5693,2.5693,2.6122,2.7012,2.7012,2.7461,2.8301,2.8301,2.8301,2.8301,2.8301,2.8301,2.8301,2.8301,2.8301,2.8301,2.8301,2.8301,2.8398,2.9258,2.9626,2.9687,1.943,1.9252,1.9158,1.9158,1.9052,1.8958,1.8958,1.8958,1.8958,1.8958,1.8958,1.8958,1.8958,1.8958,1.8905,1.8731,1.8542,1.8262,1.7862,1.7675,1.7582,1.7582,1.7582,1.7582,1.7582,1.7582,1.7582,1.7582,1.7582,1.7582,1.7582,1.7582,1.7582,1.7582,1.7582,1.7582,1.7582,1.7582,1.7582,1.7793,1.987,2.1151,2.1963,2.3998,2.5167,2.5693,2.5693,2.5693,2.5693,2.5693,2.5693,2.5693,2.5693,2.5693,2.5693,2.5693,2.5693,2.5693,2.5693,2.5693,2.5693,2.5693,2.5693,2.5693,2.5693,2.5693,2.5693,2.5693,2.5566,2.5293,2.4844,2.4414,2.3984,2.3555,2.3257,2.3101,2.3101,2.3101,2.3101,2.3101,2.3101,2.3101,2.3101,2.3101,2.3452,2.4355,2.4414,2.4805,2.5635,2.5693,2.5693,2.5693,2.5693,2.5693,2.5693,2.5693,2.6122,2.7012,2.7012,2.7461,2.8301,2.8301,2.8301,2.8301,2.8301,2.8301,2.8301,2.8301,2.8301,2.8301,2.8301,2.8301,2.8359,2.8984,2.9375,2.9668,1.943,1.943,1.943,1.943,1.943,1.943,1.943,1.943,1.943,1.943,1.943,1.943,1.943,1.943,1.9279,1.9052,1.8958,1.8675,1.8222,1.7969,1.7729,1.7595,1.7582,1.7582,1.7582,1.7582,1.7582,1.7582,1.7582,1.7582,1.7582,1.7582,1.7582,1.7582,1.7582,1.7582,1.7582,1.7582,1.7793,1.8304,2.0743,2.1912,2.2416,2.4824,2.5693,2.5693,2.5693,2.5693,2.5693,2.5693,2.5693,2.5693,2.5693,2.5693,2.5693,2.5693,2.5693,2.5693,2.5693,2.5693,2.5693,2.5693,2.5693,2.5693,2.5693,2.5693,2.5693,2.5693,2.5693,2.5605,2.5156,2.4805,2.4394,2.3867,2.3516,2.3218,2.3101,2.3101,2.3101,2.3101,2.3101,2.3101,2.3101,2.3101,2.3452,2.4355,2.4414,2.4805,2.5635,2.5693,2.5693,2.5693,2.5693,2.5693,2.5693,2.5693,2.6122,2.7012,2.7012,2.7461,2.8301,2.8301,2.8301,2.8301,2.8301,2.8301,2.8301,2.8301,2.8301,2.8301,2.8301,2.8301,2.834,2.8769,2.9199,2.9629,1.943,1.943,1.943,1.943,1.943,1.943,1.943,1.943,1.943,1.943,1.943,1.943,1.943,1.943,1.9417,1.939,1.9078,1.8905,1.8865,1.8584,1.817,1.7609,1.7582,1.7582,1.7582,1.7582,1.7582,1.7582,1.7582,1.7582,1.7582,1.7582,1.7582,1.7582,1.7582,1.7582,1.7582,1.7582,1.8304,1.9576,2.11,2.2466,2.3683,2.5167,2.5693,2.5693,2.5693,2.5693,2.5693,2.5693,2.5693,2.5693,2.5693,2.5693,2.5693,2.5693,2.5693,2.5693,2.5693,2.5693,2.5693,2.5693,2.5693,2.5693,2.5693,2.5693,2.5693,2.5693,2.5693,2.5605,2.5156,2.5086,2.4746,2.3926,2.3769,2.3594,2.3159,2.3101,2.3101,2.3101,2.3101,2.3101,2.3101,2.3101,2.3452,2.4355,2.4414,2.4805,2.5635,2.5693,2.5693,2.5693,2.5693,2.5693,2.5693,2.5693,2.6122,2.7012,2.7012,2.7461,2.8301,2.8301,2.8301,2.8301,2.8301,2.8301,2.8301,2.8301,2.8301,2.8301,2.8301,2.8301,2.834,2.8769,2.9199,2.9629,1.943,1.943,1.943,1.943,1.943,1.943,1.943,1.943,1.943,1.943,1.943,1.943,1.943,1.943,1.943,1.943,1.9265,1.9118,1.8931,1.8824,1.8571,1.817,1.8143,1.8143,1.8143,1.8143,1.8143,1.8143,1.8143,1.8143,1.8143,1.7956,1.7876,1.7862,1.7662,1.7582,1.7582,1.7582,1.8356,1.9731,2.1151,2.2517,2.385,2.5167,2.5693,2.5693,2.5693,2.5693,2.5693,2.5693,2.5693,2.5693,2.5693,2.5693,2.5693,2.5693,2.5693,2.5693,2.5693,2.5693,2.5693,2.5693,2.5693,2.5693,2.5693,2.5693,2.5693,2.5693,2.5693,2.5635,2.5508,2.5254,2.5008,2.4629,2.4355,2.4023,2.3594,2.3535,2.3437,2.312,2.3101,2.3101,2.3101,2.3101,2.3452,2.4355,2.4414,2.4805,2.5635,2.5693,2.5693,2.5693,2.5693,2.5693,2.5693,2.5693,2.6122,2.7012,2.7012,2.7461,2.8301,2.8301,2.8301,2.8301,2.8301,2.8301,2.8301,2.8301,2.8301,2.8301,2.8301,2.8301,2.832,2.8476,2.8965,2.959,1.943,1.943,1.943,1.943,1.943,1.943,1.943,1.943,1.943,1.943,1.943,1.943,1.943,1.943,1.943,1.943,1.943,1.9279,1.9078,1.9065,1.8891,1.8504,1.849,1.849,1.849,1.849,1.849,1.849,1.849,1.849,1.849,1.8277,1.8075,1.7982,1.7822,1.7675,1.7582,1.7582,1.8603,2.0333,2.1304,2.2767,2.4461,2.5333,2.5693,2.5693,2.5693,2.5771,2.5937,2.5937,2.5986,2.6083,2.6083,2.6083,2.6083,2.6083,2.6083,2.6064,2.5927,2.5937,2.5849,2.5732,2.5693,2.5693,2.5693,2.5693,2.5693,2.5693,2.5693,2.5693,2.5693,2.5488,2.5234,2.5145,2.4824,2.4473,2.4043,2.3984,2.3867,2.353,2.3374,2.3296,2.3296,2.3296,2.3633,2.4355,2.4551,2.4941,2.5654,2.5693,2.5693,2.5693,2.5693,2.5693,2.5693,2.5693,2.6044,2.6816,2.6953,2.7402,2.8105,2.8223,2.8301,2.8301,2.8301,2.8301,2.8301,2.8301,2.8301,2.8301,2.8301,2.8301,2.8301,2.8301,2.875,2.9394,1.943,1.943,1.943,1.943,1.943,1.943,1.943,1.943,1.943,1.943,1.943,1.943,1.943,1.943,1.943,1.943,1.943,1.943,1.943,1.943,1.9105,1.8517,1.8504,1.8504,1.8504,1.8504,1.8504,1.8504,1.8504,1.8504,1.8504,1.849,1.833,1.7995,1.7995,1.7822,1.7582,1.7582,1.9213,2.1693,2.1693,2.3335,2.5693,2.5693,2.5693,2.5693,2.5693,2.6035,2.6387,2.6387,2.666,2.7012,2.7012,2.7012,2.7012,2.7012,2.7012,2.6914,2.6504,2.6387,2.6289,2.581,2.5693,2.5693,2.5693,2.5693,2.5693,2.5693,2.5693,2.5693,2.5693,2.5693,2.5586,2.5184,2.5125,2.4922,2.4473,2.4414,2.4414,2.4414,2.4043,2.3789,2.3789,2.3789,2.3965,2.4394,2.4824,2.5273,2.5674,2.5693,2.5693,2.5693,2.5693,2.5693,2.5693,2.5693,2.5957,2.6387,2.6816,2.7246,2.7728,2.8105,2.8301,2.8301,2.8301,2.8301,2.8301,2.8301,2.8301,2.8301,2.8301,2.8301,2.8301,2.8301,2.8555,2.8984,1.943,1.943,1.943,1.943,1.943,1.943,1.943,1.943,1.943,1.943,1.943,1.943,1.943,1.943,1.943,1.943,1.943,1.943,1.943,1.943,1.935,1.9118,1.9105,1.9105,1.9105,1.9105,1.9105,1.9105,1.9105,1.9105,1.9162,1.8891,1.8744,1.8595,1.845,1.8196,1.7849,1.7849,1.938,2.1693,2.1693,2.3335,2.5732,2.6074,2.6191,2.623,2.6523,2.6719,2.6836,2.6836,2.6914,2.7012,2.7012,2.7012,2.7012,2.7012,2.7012,2.6992,2.6855,2.6836,2.666,2.5869,2.5693,2.5693,2.5693,2.5693,2.5693,2.5693,2.5693,2.5693,2.5693,2.5693,2.5635,2.5566,2.5527,2.5391,2.4941,2.4863,2.4766,2.4453,2.4316,2.4238,2.4238,2.4238,2.4414,2.4844,2.5293,2.5557,2.5674,2.5693,2.5693,2.5693,2.5693,2.5693,2.5693,2.5693,2.5957,2.6387,2.6816,2.7246,2.7728,2.8105,2.8301,2.8301,2.8301,2.8301,2.8301,2.8301,2.8301,2.8301,2.8301,2.8301,2.8301,2.8301,2.8555,2.8984,1.943,1.943,1.943,1.943,1.943,1.943,1.943,1.943,1.943,1.943,1.943,1.943,1.943,1.943,1.943,1.943,1.943,1.943,1.943,1.943,1.943,1.943,1.943,1.943,1.943,1.943,1.943,1.943,1.943,1.943,1.9417,1.9185,1.9038,1.8918,1.8744,1.8504,1.8223,1.8223,1.9692,2.2088,2.2088,2.3746,2.6269,2.6543,2.6641,2.666,2.6914,2.7129,2.7285,2.7285,2.7383,2.7519,2.7519,2.7519,2.7519,2.7519,2.7519,2.748,2.7324,2.7285,2.7109,2.6376,2.6064,2.5996,2.5996,2.581,2.5693,2.5693,2.5693,2.5693,2.5693,2.5693,2.5693,2.5693,2.5693,2.5644,2.5371,2.5332,2.5234,2.4961,2.4785,2.4668,2.4668,2.4668,2.4863,2.5293,2.5538,2.5693,2.5693,2.5693,2.5693,2.5693,2.5693,2.5693,2.5693,2.5693,2.581,2.6133,2.6562,2.6992,2.7422,2.7851,2.8125,2.8301,2.8301,2.8301,2.8301,2.8301,2.8301,2.8301,2.8301,2.8301,2.8301,2.8301,2.8457,2.875,1.943,1.943,1.943,1.943,1.943,1.943,1.943,1.943,1.943,1.943,1.943,1.943,1.943,1.943,1.943,1.943,1.943,1.943,1.943,1.943,1.943,1.943,1.943,1.943,1.943,1.943,1.943,1.943,1.943,1.943,1.943,1.943,1.9225,1.8958,1.8958,1.8798,1.8531,1.8531,2.0168,2.2695,2.2695,2.4455,2.7012,2.7051,2.707,2.709,2.7109,2.7383,2.7767,2.7767,2.7969,2.8301,2.8301,2.8301,2.8301,2.8301,2.8301,2.8203,2.7832,2.7767,2.7637,2.7226,2.6816,2.6484,2.6406,2.6074,2.5732,2.5693,2.5693,2.5693,2.5693,2.5693,2.5693,2.5693,2.5693,2.5693,2.5693,2.5693,2.5693,2.5693,2.5371,2.5137,2.5137,2.5137,2.5293,2.5654,2.5693,2.5693,2.5693,2.5693,2.5693,2.5693,2.5693,2.5693,2.5693,2.5693,2.5693,2.5693,2.6191,2.6602,2.7031,2.7461,2.7891,2.8301,2.8301,2.8301,2.8301,2.8301,2.8301,2.8301,2.8301,2.8301,2.8301,2.8301,2.8301,2.8418,1.943,1.943,1.943,1.943,1.943,1.943,1.943,1.943,1.943,1.943,1.943,1.943,1.943,1.943,1.943,1.943,1.943,1.943,1.943,1.943,1.943,1.943,1.943,1.943,1.943,1.943,1.943,1.943,1.943,1.943,1.943,1.943,1.9332,1.9265,1.9265,1.9105,1.8824,1.8824,2.0317,2.2695,2.2695,2.4455,2.7051,2.7402,2.7519,2.7578,2.791,2.8086,2.8164,2.8164,2.8223,2.8301,2.8301,2.8301,2.8301,2.8301,2.8301,2.8281,2.8184,2.8164,2.8125,2.8027,2.7695,2.7258,2.6543,2.6309,2.6152,2.5752,2.5693,2.5693,2.5693,2.5693,2.5693,2.5693,2.5693,2.5693,2.5693,2.5693,2.5693,2.5693,2.5596,2.5586,2.5586,2.5586,2.5625,2.5674,2.5693,2.5693,2.5693,2.5693,2.5693,2.5693,2.5693,2.5693,2.5693,2.5693,2.5693,2.5693,2.6191,2.6602,2.7031,2.7461,2.7891,2.8301,2.8301,2.8301,2.8301,2.8301,2.8301,2.8301,2.8301,2.8301,2.8301,2.8301,2.8301,2.8418,1.943,1.943,1.943,1.943,1.943,1.943,1.943,1.943,1.943,1.943,1.943,1.943,1.943,1.943,1.943,1.943,1.943,1.943,1.943,1.943,1.943,1.943,1.943,1.943,1.943,1.943,1.943,1.943,1.943,1.943,1.943,1.943,1.943,1.943,1.943,1.9279,1.9132,1.9132,2.0302,2.2222,2.2933,2.4558,2.6654,2.7607,2.7969,2.7988,2.8203,2.8301,2.8301,2.8301,2.8301,2.8301,2.8301,2.8301,2.8301,2.8301,2.8301,2.8301,2.8301,2.8301,2.8301,2.8301,2.8125,2.7793,2.7148,2.6836,2.6562,2.6133,2.6055,2.5996,2.5732,2.5693,2.5693,2.5693,2.5693,2.5693,2.5693,2.5693,2.5693,2.5693,2.5693,2.5693,2.5693,2.5693,2.5693,2.5693,2.5693,2.5693,2.5693,2.5693,2.5693,2.5693,2.5693,2.5693,2.5693,2.5693,2.5693,2.5693,2.5977,2.6406,2.7031,2.7246,2.7695,2.8301,2.8301,2.8301,2.8301,2.8301,2.8301,2.8301,2.8301,2.8301,2.8301,2.8301,2.8418,2.8691,1.943,1.943,1.943,1.943,1.943,1.943,1.943,1.943,1.943,1.943,1.943,1.943,1.943,1.943,1.943,1.943,1.943,1.943,1.943,1.943,1.943,1.943,1.943,1.943,1.943,1.943,1.943,1.943,1.943,1.943,1.943,1.943,1.943,1.943,1.943,1.943,1.943,1.943,2.0256,2.1699,2.2927,2.4322,2.5882,2.733,2.7906,2.796,2.8228,2.8301,2.8301,2.8301,2.8301,2.8301,2.8301,2.8301,2.8301,2.8301,2.8301,2.8301,2.8301,2.8301,2.8301,2.8301,2.8301,2.8203,2.7851,2.7441,2.7012,2.6582,2.6504,2.6367,2.5869,2.581,2.5771,2.5693,2.5693,2.5693,2.5693,2.5693,2.5693,2.5693,2.5693,2.5693,2.5693,2.5693,2.5693,2.5693,2.5693,2.5693,2.5693,2.5693,2.5693,2.5693,2.5693,2.5693,2.5693,2.5693,2.5693,2.5693,2.5693,2.6103,2.6914,2.6973,2.7441,2.8184,2.8262,2.8301,2.8301,2.8301,2.8301,2.8301,2.8301,2.8301,2.8301,2.8301,2.8555,2.8984,1.943,1.943,1.943,1.943,1.943,1.943,1.943,1.943,1.943,1.943,1.943,1.943,1.943,1.943,1.943,1.943,1.943,1.943,1.943,1.943,1.943,1.943,1.943,1.943,1.943,1.943,1.943,1.943,1.943,1.943,1.943,1.943,1.943,1.943,1.943,1.943,1.943,1.943,2.0256,2.1643,2.1813,2.2814,2.4267,2.5827,2.6372,2.6554,2.7833,2.8301,2.8301,2.8301,2.8301,2.8301,2.8301,2.8301,2.8301,2.8301,2.8301,2.8301,2.8301,2.8301,2.8301,2.8301,2.8301,2.8281,2.8223,2.7871,2.7461,2.7012,2.6934,2.6797,2.6387,2.6309,2.6172,2.5752,2.5693,2.5693,2.5693,2.5693,2.5693,2.5693,2.5693,2.5693,2.5693,2.5693,2.5693,2.5693,2.5693,2.5693,2.5693,2.5693,2.5693,2.5693,2.5693,2.5693,2.5693,2.5693,2.5693,2.5693,2.5693,2.5947,2.6484,2.6855,2.7285,2.7826,2.8125,2.8301,2.8301,2.8301,2.8301,2.8301,2.8301,2.8301,2.8301,2.8301,2.8555,2.8984,1.943,1.943,1.943,1.943,1.943,1.943,1.943,1.943,1.943,1.943,1.943,1.943,1.943,1.943,1.943,1.943,1.943,1.943,1.943,1.943,1.943,1.943,1.943,1.943,1.943,1.943,1.943,1.943,1.943,1.943,1.943,1.943,1.943,1.943,1.943,1.943,1.943,1.943,1.9751,2.0429,2.1259,2.1968,2.2814,2.5206,2.61,2.6264,2.778,2.8301,2.8301,2.8301,2.8301,2.8301,2.8301,2.8301,2.8301,2.8301,2.8301,2.8301,2.8301,2.8301,2.8301,2.8301,2.8301,2.8301,2.8301,2.8144,2.7891,2.7461,2.7383,2.7246,2.6816,2.6543,2.6328,2.6133,2.5849,2.5693,2.5693,2.5693,2.5693,2.5693,2.5693,2.5693,2.5693,2.5693,2.5693,2.5693,2.5693,2.5693,2.5693,2.5693,2.5693,2.5693,2.5693,2.5693,2.5693,2.5693,2.5693,2.5693,2.5693,2.5977,2.6406,2.6816,2.7246,2.7748,2.8105,2.8301,2.8301,2.8301,2.8301,2.8301,2.8301,2.8301,2.8301,2.8301,2.8418,2.8672]}]]